[[[{"header":{"parameterUnit":"kt","parameterCategory":2,"dx":1,"dy":1,"la1":29.587661999999998,"la2":31.0,"lo1":-88.76705300000003,"lo2":-86.6583820000003,"nx":115,"ny":88,"refTime":"2022-10-10T12:00:00:Z","depth":0,"parameterNumber":1,"parameterNumberName":"U-component_of_WINDS"},"data":[-9.9581,-9.9581,-9.9581,-9.9278,-9.8791,-9.8051,-9.7115,-9.6045,-9.4184,-9.2709,-9.1585,-9.0298,-8.9404,-8.912,-8.8449,-8.7012,-8.5423,-8.4351,-8.4051,-8.3727,-8.3643,-8.3643,-8.3559,-8.351,-8.2973,-8.2021,-8.0923,-7.9849,-7.8532,-7.7604,-7.7165,-7.7165,-7.7165,-7.7165,-7.7165,-7.7165,-7.7165,-7.7165,-7.7165,-7.7141,-7.7141,-7.7065,-7.6864,-7.6739,-7.6513,-7.5907,-7.5297,-7.5093,-7.4329,-7.3068,-7.1166,-6.8726,-6.6677,-6.4709,-6.3091,-6.1882,-6.0703,-6.0383,-6.0156,-6.0062,-6.0062,-6.0062,-6.0062,-6.0062,-6.0062,-6.0062,-6.0062,-6.0062,-6.0062,-6.0062,-6.0062,-6.0062,-6.0062,-6.0062,-6.0062,-6.0062,-6.0062,-6.0062,-6.0062,-6.0062,-6.0062,-6.0043,-5.991,-5.991,-5.9816,-5.9683,-5.9191,-5.9191,-5.8849,-5.803,-5.7094,-5.6154,-5.5362,-5.5013,-5.4781,-5.3697,-5.2878,-5.1466,-4.9807,-4.7403,-4.5248,-4.3577,-4.2382,-4.2015,-4.1647,-4.1265,-4.1143,-4.1156,-4.1143,-4.1085,-4.1552,-4.1994,-4.2487,-4.3071,-4.3682,-9.9581,-9.9581,-9.9581,-9.9461,-9.9341,-9.8762,-9.8265,-9.7548,-9.6168,-9.4767,-9.3836,-9.4017,-9.3061,-9.1438,-8.9916,-8.8267,-8.6696,-8.553,-8.4566,-8.4243,-8.3835,-8.3643,-8.3643,-8.3559,-8.3388,-8.2656,-8.1509,-8.024,-7.8946,-7.7946,-7.7336,-7.7189,-7.7165,-7.7165,-7.7165,-7.7165,-7.7165,-7.7165,-7.7165,-7.7165,-7.7165,-7.7165,-7.7065,-7.7165,-7.7065,-7.6739,-7.6436,-7.6032,-7.5805,-7.4558,-7.3091,-7.0639,-6.8511,-6.6133,-6.4399,-6.2422,-6.1228,-6.0477,-6.0156,-6.0062,-6.0062,-6.0062,-6.0062,-6.0062,-6.0062,-6.0062,-6.0062,-6.0062,-6.0062,-6.0062,-6.0062,-6.0062,-6.0062,-6.0062,-6.0062,-6.0062,-6.0062,-6.0062,-6.0062,-6.0062,-6.0062,-6.0062,-6.0043,-6.0043,-6.0043,-6.0043,-5.991,-5.9929,-5.9683,-5.8849,-5.8259,-5.7687,-5.7245,-5.6997,-5.6749,-5.6039,-5.546,-5.4064,-5.229,-4.9673,-4.7163,-4.5369,-4.3942,-4.2994,-4.2137,-4.1879,-4.1634,-4.1278,-4.1143,-4.102,-4.1409,-4.1773,-4.224,-4.2669,-4.3292,-9.9581,-9.9581,-9.9581,-9.9581,-9.9461,-9.8975,-9.8699,-9.8265,-9.7238,-9.6615,-9.6653,-9.6045,-9.5057,-9.3444,-9.2013,-9.0298,-8.8345,-8.6776,-8.5849,-8.4913,-8.4375,-8.3943,-8.3643,-8.3559,-8.3667,-8.3461,-8.2339,-8.1143,-7.9672,-7.8605,-7.758,-7.7214,-7.7165,-7.7165,-7.7165,-7.7165,-7.7165,-7.7165,-7.7165,-7.7165,-7.7165,-7.7165,-7.7165,-7.7165,-7.7165,-7.7065,-7.6864,-7.6763,-7.6638,-7.6008,-7.5069,-7.2965,-7.0005,-6.7543,-6.5169,-6.3071,-6.1546,-6.0571,-6.0269,-6.0062,-6.0062,-6.0062,-6.0062,-6.0062,-6.0062,-6.0062,-6.0062,-6.0062,-6.0062,-6.0062,-6.0062,-6.0062,-6.0062,-6.0062,-6.0062,-6.0062,-6.0062,-6.0062,-6.0062,-6.0062,-6.0062,-6.0062,-6.0062,-6.0062,-6.0062,-6.0043,-6.0043,-6.0043,-6.0043,-5.9437,-5.9323,-5.9095,-5.9,-5.8867,-5.8259,-5.7801,-5.7457,-5.6287,-5.488,-5.2626,-5.0503,-4.8002,-4.5384,-4.3956,-4.2994,-4.2491,-4.1879,-4.1388,-4.1143,-4.102,-4.1279,-4.1552,-4.2002,-4.238,-4.2487,-9.9581,-9.9581,-9.9581,-9.9581,-9.9461,-9.9066,-9.8946,-9.8883,-9.8172,-9.8144,-9.8514,-9.7556,-9.6425,-9.5098,-9.3766,-9.2059,-9.017,-8.863,-8.7248,-8.6193,-8.5152,-8.4615,-8.3968,-8.386,-8.3751,-8.3667,-8.329,-8.2387,-8.0752,-7.9361,-7.8263,-7.7653,-7.7165,-7.7165,-7.7165,-7.7165,-7.7165,-7.7165,-7.7165,-7.7165,-7.7165,-7.7165,-7.7165,-7.7165,-7.7165,-7.7165,-7.7165,-7.7165,-7.7165,-7.7065,-7.6638,-7.4637,-7.1481,-6.8726,-6.6024,-6.3404,-6.1882,-6.0909,-6.0383,-6.0062,-6.0062,-6.0062,-6.0062,-6.0062,-6.0062,-6.0062,-6.0062,-6.0062,-6.0062,-6.0062,-6.0062,-6.0062,-6.0062,-6.0062,-6.0062,-6.0062,-6.0062,-6.0062,-6.0062,-6.0062,-6.0062,-6.0062,-6.0062,-6.0062,-6.0062,-6.0062,-6.0062,-6.0043,-6.0043,-6.0043,-5.9816,-5.9816,-5.9929,-5.9929,-5.9569,-5.8981,-5.8506,-5.7572,-5.6634,-5.5344,-5.3948,-5.2039,-5.0013,-4.6923,-4.3712,-4.3102,-4.2491,-4.1634,-4.1143,-4.102,-4.1188,-4.1279,-4.1565,-4.1721,-4.1846,-9.9581,-9.9581,-9.9581,-9.9581,-9.9581,-9.9461,-9.9461,-9.9461,-9.9278,-9.9158,-9.8762,-9.8578,-9.7649,-9.652,-9.5318,-9.3809,-9.2231,-9.0448,-8.894,-8.7562,-8.651,-8.5366,-8.4591,-8.4267,-8.3968,-8.3643,-8.3363,-8.2949,-8.1533,-8.0215,-7.9142,-7.8605,-7.7775,-7.7238,-7.7214,-7.7165,-7.7165,-7.7165,-7.7165,-7.7165,-7.7165,-7.7165,-7.7165,-7.7165,-7.7165,-7.7165,-7.7165,-7.7165,-7.7165,-7.704,-7.6638,-7.5907,-7.3172,-7.0511,-6.7068,-6.4599,-6.2534,-6.1341,-6.0383,-6.0062,-6.0062,-6.0062,-6.0062,-6.0062,-6.0062,-6.0062,-6.0062,-6.0062,-6.0062,-6.0062,-6.0062,-6.0062,-6.0062,-6.0062,-6.0062,-6.0062,-6.0062,-6.0062,-6.0062,-6.0062,-6.0062,-6.0062,-6.0062,-6.0062,-6.0062,-6.0062,-6.0062,-6.0062,-6.0043,-6.0043,-6.0043,-6.0043,-6.0062,-6.0043,-5.9816,-5.9683,-5.9323,-5.8981,-5.8259,-5.7094,-5.5941,-5.5112,-5.4397,-4.991,-4.5398,-4.4428,-4.2845,-4.1756,-4.102,-4.102,-4.1033,-4.1072,-4.1098,-4.1188,-4.124,-9.9581,-9.9581,-9.9581,-9.9581,-9.9581,-9.9581,-9.9581,-9.9581,-9.9581,-9.9461,-9.9187,-9.8854,-9.8485,-9.7771,-9.6804,-9.5634,-9.4352,-9.2556,-9.0752,-8.9249,-8.772,-8.6379,-8.5127,-8.4483,-8.4159,-8.3751,-8.3461,-8.3399,-8.2729,-8.1362,-7.9752,-7.8946,-7.8483,-7.7799,-7.7336,-7.7165,-7.7165,-7.7165,-7.7165,-7.7165,-7.7165,-7.7165,-7.7165,-7.7165,-7.7165,-7.7165,-7.7165,-7.7165,-7.7165,-7.7065,-7.704,-7.6335,-7.466,-7.2526,-6.9513,-6.4909,-6.3091,-6.1678,-6.0364,-6.0156,-6.0062,-6.0062,-6.0062,-6.0062,-6.0062,-6.0062,-6.0062,-6.0062,-6.0062,-6.0062,-6.0062,-6.0062,-6.0062,-6.0062,-6.0062,-6.0062,-6.0062,-6.0062,-6.0062,-6.0062,-6.0062,-6.0062,-6.0062,-6.0062,-6.0062,-6.0062,-6.0062,-6.0062,-6.0062,-6.0062,-6.0062,-6.0062,-6.0062,-6.0062,-6.0062,-5.9929,-5.9816,-5.9569,-5.8981,-5.8392,-5.7687,-5.6518,-5.4996,-5.1449,-4.7313,-4.5035,-4.3102,-4.2002,-4.102,-4.102,-4.1033,-4.1046,-4.1046,-4.102,-4.1033,-9.9581,-9.9581,-9.9581,-9.9581,-9.9581,-9.9581,-9.9581,-9.9581,-9.9581,-9.9581,-9.9461,-9.9158,-9.8946,-9.8883,-9.8172,-9.7303,-9.614,-9.474,-9.2853,-9.1156,-8.9583,-8.7746,-8.6299,-8.5341,-8.4483,-8.4076,-8.3643,-8.3486,-8.3374,-8.29,-8.1265,-7.9434,-7.8873,-7.8043,-7.7507,-7.7165,-7.7165,-7.7165,-7.7165,-7.7165,-7.7165,-7.7165,-7.7165,-7.7165,-7.7165,-7.7165,-7.7165,-7.7165,-7.7165,-7.7165,-7.7165,-7.6638,-7.55,-7.3895,-7.1459,-6.633,-6.3626,-6.1994,-6.0571,-6.0156,-6.0062,-6.0062,-6.0062,-6.0062,-6.0062,-6.0062,-6.0062,-6.0062,-6.0062,-6.0062,-6.0062,-6.0062,-6.0062,-6.0062,-6.0062,-6.0062,-6.0062,-6.0062,-6.0062,-6.0062,-6.0062,-6.0062,-6.0062,-6.0062,-6.0062,-6.0062,-6.0062,-6.0062,-6.0062,-6.0062,-6.0062,-6.0062,-6.0062,-6.0062,-6.0062,-6.0062,-6.0062,-6.0043,-5.9683,-5.9095,-5.803,-5.6864,-5.546,-5.2643,-4.8631,-4.5882,-4.3468,-4.2124,-4.102,-4.102,-4.102,-4.102,-4.102,-4.102,-4.1033,-9.9581,-9.9581,-9.9581,-9.9581,-9.9581,-9.9581,-9.9581,-9.9581,-9.9581,-9.9581,-9.9581,-9.9461,-9.937,-9.937,-9.8975,-9.8358,-9.7641,-9.6453,-9.474,-9.3149,-9.1485,-8.9583,-8.7955,-8.651,-8.5448,-8.4591,-8.3943,-8.3751,-8.3643,-8.335,-8.2265,-8.0703,-7.9605,-7.8483,-7.7677,-7.7263,-7.7165,-7.7165,-7.7165,-7.7165,-7.7165,-7.7165,-7.7165,-7.7165,-7.7165,-7.7165,-7.7165,-7.7165,-7.7165,-7.7165,-7.7165,-7.6436,-7.55,-7.4432,-7.2236,-6.9025,-6.4909,-6.2757,-6.1022,-6.0269,-6.0156,-6.0062,-6.0062,-6.0062,-6.0062,-6.0062,-6.0062,-6.0062,-6.0062,-6.0062,-6.0062,-6.0062,-6.0062,-6.0062,-6.0062,-6.0062,-6.0062,-6.0062,-6.0062,-6.0062,-6.0062,-6.0062,-6.0062,-6.0062,-6.0062,-6.0062,-6.0062,-6.0062,-6.0062,-6.0062,-6.0062,-6.0062,-6.0062,-6.0062,-6.0062,-6.0062,-6.0062,-6.0043,-5.9797,-5.9095,-5.803,-5.6846,-5.488,-5.2425,-4.9363,-4.6621,-4.3956,-4.2247,-4.1265,-4.102,-4.102,-4.102,-4.102,-4.102,-4.102,-9.9581,-9.9581,-9.9581,-9.9581,-9.9581,-9.9581,-9.9581,-9.9581,-9.9581,-9.9581,-9.9581,-9.9581,-9.9581,-9.9461,-9.9249,-9.9032,-9.845,-9.7613,-9.6453,-9.4864,-9.3275,-9.1358,-8.9454,-8.7825,-8.6696,-8.5448,-8.4698,-8.4159,-8.4184,-8.3751,-8.313,-8.2128,-8.0623,-7.9361,-7.8263,-7.7482,-7.7165,-7.7165,-7.7165,-7.7165,-7.7165,-7.7165,-7.7165,-7.7165,-7.7165,-7.7165,-7.7165,-7.7165,-7.7165,-7.7165,-7.7065,-7.6763,-7.5907,-7.466,-7.2884,-7.0556,-6.7002,-6.3847,-6.1565,-6.0477,-6.0156,-6.0156,-6.0062,-6.0062,-6.0062,-6.0062,-6.0062,-6.0062,-6.0062,-6.0062,-6.0062,-6.0062,-6.0062,-6.0062,-6.0062,-6.0062,-6.0062,-6.0062,-6.0062,-6.0062,-6.0062,-6.0062,-6.0062,-6.0062,-6.0062,-6.0062,-6.0062,-6.0062,-6.0062,-6.0062,-6.0062,-6.0062,-6.0062,-6.0062,-6.0062,-6.0062,-6.0043,-6.0043,-5.9437,-5.8716,-5.765,-5.5905,-5.3931,-5.1718,-4.8646,-4.6032,-4.3956,-4.2491,-4.1524,-4.1033,-4.102,-4.102,-4.102,-4.102,-4.102,-9.9581,-9.9581,-9.9581,-9.9581,-9.9581,-9.9581,-9.9581,-9.9581,-9.9581,-9.9581,-9.9581,-9.9581,-9.9581,-9.9581,-9.949,-9.937,-9.8975,-9.8572,-9.795,-9.6425,-9.4961,-9.3051,-9.123,-8.9557,-8.8059,-8.6932,-8.5874,-8.5209,-8.502,-8.483,-8.44,-8.3517,-8.1998,-8.0595,-7.9445,-7.7974,-7.7165,-7.7165,-7.7165,-7.7165,-7.7165,-7.7165,-7.7165,-7.7165,-7.7165,-7.7165,-7.7165,-7.7165,-7.7165,-7.7165,-7.7165,-7.6864,-7.6234,-7.5093,-7.3322,-7.1106,-6.864,-6.5149,-6.2665,-6.0797,-6.0383,-6.025,-6.0269,-6.0062,-6.0062,-6.0062,-6.0062,-6.0062,-6.0062,-6.0062,-6.0062,-6.0062,-6.0062,-6.0062,-6.0062,-6.0062,-6.0062,-6.0062,-6.0062,-6.0062,-6.0062,-6.0062,-6.0062,-6.0062,-6.0062,-6.0062,-6.0062,-6.0062,-6.0062,-6.0062,-6.0062,-6.0062,-6.0062,-6.0062,-6.0062,-6.0062,-6.0043,-5.9683,-5.8963,-5.8126,-5.6483,-5.4729,-5.2626,-5.0164,-4.7688,-4.5306,-4.3712,-4.2247,-4.1524,-4.1033,-4.102,-4.102,-4.102,-4.102,-4.102,-9.9581,-9.9581,-9.9581,-9.9581,-9.9581,-9.9581,-9.9581,-9.9581,-9.9581,-9.9581,-9.9581,-9.9581,-9.9581,-9.9581,-9.9581,-9.949,-9.9278,-9.8975,-9.8422,-9.7706,-9.6425,-9.4933,-9.3149,-9.1458,-8.9966,-8.8682,-8.7641,-8.6802,-8.6349,-8.6112,-8.5473,-8.4516,-8.3708,-8.2514,-8.1121,-7.8617,-7.7263,-7.7165,-7.7165,-7.7165,-7.7165,-7.7165,-7.7165,-7.7165,-7.7165,-7.7165,-7.7165,-7.7165,-7.7165,-7.7165,-7.7165,-7.6964,-7.6436,-7.5297,-7.3632,-7.1654,-6.9175,-6.6568,-6.3867,-6.1994,-6.1115,-6.0797,-6.025,-6.0156,-6.0062,-6.0062,-6.0062,-6.0062,-6.0062,-6.0062,-6.0062,-6.0062,-6.0062,-6.0062,-6.0062,-6.0062,-6.0062,-6.0062,-6.0062,-6.0062,-6.0062,-6.0062,-6.0062,-6.0062,-6.0062,-6.0062,-6.0062,-6.0062,-6.0062,-6.0062,-6.0062,-6.0062,-6.0062,-6.0062,-6.0062,-6.0062,-5.9816,-5.9191,-5.8374,-5.7094,-5.546,-5.3212,-5.0724,-4.8361,-4.623,-4.4321,-4.3102,-4.2002,-4.1524,-4.1033,-4.102,-4.102,-4.102,-4.102,-4.102,-9.9581,-9.9581,-9.9581,-9.9581,-9.9581,-9.9581,-9.9581,-9.9581,-9.9581,-9.9581,-9.9581,-9.9581,-9.9581,-9.9581,-9.9581,-9.9581,-9.9461,-9.9341,-9.9003,-9.845,-9.7706,-9.6576,-9.5057,-9.357,-9.2185,-9.096,-8.9814,-8.8966,-8.8397,-8.7562,-8.7012,-8.6409,-8.5709,-8.4194,-8.2322,-7.9768,-7.7897,-7.736,-7.7165,-7.7165,-7.7165,-7.7165,-7.7165,-7.7165,-7.7165,-7.7165,-7.7165,-7.7165,-7.7165,-7.7165,-7.7165,-7.704,-7.6436,-7.55,-7.4021,-7.2132,-7.0005,-6.7456,-6.5389,-6.3626,-6.2625,-6.1228,-6.0477,-6.0156,-6.0062,-6.0062,-6.0062,-6.0062,-6.0062,-6.0062,-6.0062,-6.0062,-6.0062,-6.0062,-6.0062,-6.0062,-6.0062,-6.0062,-6.0062,-6.0062,-6.0062,-6.0062,-6.0062,-6.0062,-6.0062,-6.0062,-6.0062,-6.0062,-6.0062,-6.0062,-6.0062,-6.0062,-6.0062,-6.0062,-6.0062,-5.9929,-5.9683,-5.8963,-5.7554,-5.6172,-5.3948,-5.1331,-4.8839,-4.6817,-4.5142,-4.3455,-4.2369,-4.1647,-4.1278,-4.1033,-4.102,-4.102,-4.102,-4.102,-4.102,-9.9581,-9.9581,-9.9581,-9.9581,-9.9581,-9.9581,-9.9581,-9.9581,-9.9581,-9.9581,-9.9581,-9.9581,-9.9581,-9.9581,-9.9581,-9.9581,-9.9581,-9.9581,-9.9341,-9.9003,-9.8543,-9.7828,-9.686,-9.5566,-9.4504,-9.3428,-9.2312,-9.1485,-9.0832,-9.0045,-8.9275,-8.8733,-8.8164,-8.6221,-8.3895,-8.1515,-7.9523,-7.8365,-7.7433,-7.7189,-7.7165,-7.7165,-7.7165,-7.7165,-7.7165,-7.7165,-7.7165,-7.7165,-7.7165,-7.7165,-7.7165,-7.7165,-7.6864,-7.6008,-7.4739,-7.3172,-7.1211,-6.8747,-6.648,-6.5498,-6.4289,-6.233,-6.0816,-6.0062,-6.0062,-6.0062,-6.0062,-6.0062,-6.0062,-6.0062,-6.0062,-6.0062,-6.0062,-6.0062,-6.0062,-6.0062,-6.0062,-6.0062,-6.0062,-6.0062,-6.0062,-6.0062,-6.0062,-6.0062,-6.0062,-6.0062,-6.0062,-6.0062,-6.0062,-6.0062,-6.0062,-6.0062,-6.0062,-6.0062,-6.0062,-5.9816,-5.9569,-5.8278,-5.6997,-5.4897,-5.2559,-4.9942,-4.7418,-4.5626,-4.3834,-4.2736,-4.1879,-4.1278,-4.1033,-4.102,-4.102,-4.102,-4.102,-4.102,-4.102,-9.9581,-9.9581,-9.9581,-9.9581,-9.9581,-9.9581,-9.9581,-9.9581,-9.9581,-9.9581,-9.9581,-9.9581,-9.9581,-9.9581,-9.9581,-9.9581,-9.9581,-9.9581,-9.9461,-9.9341,-9.9037,-9.8543,-9.7893,-9.7115,-9.6358,-9.5662,-9.4795,-9.3989,-9.3401,-9.2637,-9.2511,-9.2285,-9.0272,-8.7699,-8.53,-8.3391,-8.1392,-7.9641,-7.7995,-7.7507,-7.7214,-7.7165,-7.7165,-7.7165,-7.7165,-7.7165,-7.7165,-7.7165,-7.7165,-7.7165,-7.7165,-7.7165,-7.7065,-7.6436,-7.55,-7.4021,-7.2259,-7.0345,-6.8297,-6.7219,-6.5936,-6.3757,-6.1809,-6.0383,-6.0156,-6.0062,-6.0062,-6.0062,-6.0062,-6.0062,-6.0062,-6.0062,-6.0062,-6.0062,-6.0062,-6.0062,-6.0062,-6.0062,-6.0062,-6.0062,-6.0062,-6.0062,-6.0062,-6.0062,-6.0062,-6.0062,-6.0062,-6.0062,-6.0062,-6.0062,-6.0062,-6.0062,-6.0062,-6.0062,-6.0062,-5.9569,-5.8981,-5.7916,-5.6172,-5.3848,-5.1278,-4.8631,-4.6109,-4.4321,-4.298,-4.2002,-4.1278,-4.1156,-4.1033,-4.102,-4.102,-4.102,-4.102,-4.102,-4.102,-9.9581,-9.9581,-9.9581,-9.9581,-9.9581,-9.9581,-9.9581,-9.9581,-9.9581,-9.9581,-9.9581,-9.9581,-9.9581,-9.9581,-9.9581,-9.9581,-9.9581,-9.9581,-9.9581,-9.949,-9.937,-9.9003,-9.8635,-9.8422,-9.7771,-9.6955,-9.6576,-9.6263,-9.5758,-9.5374,-9.4698,-9.357,-9.1759,-8.9423,-8.7001,-8.5243,-8.357,-8.1589,-7.9572,-7.8194,-7.7385,-7.7214,-7.7165,-7.7165,-7.7165,-7.7165,-7.7165,-7.7165,-7.7165,-7.7165,-7.7165,-7.7165,-7.7165,-7.6739,-7.5907,-7.4991,-7.3609,-7.1946,-7.0662,-6.8597,-6.6547,-6.4489,-6.2442,-6.0909,-6.0383,-6.0062,-6.0062,-6.0062,-6.0062,-6.0062,-6.0062,-6.0062,-6.0062,-6.0062,-6.0062,-6.0062,-6.0062,-6.0062,-6.0062,-6.0062,-6.0062,-6.0062,-6.0062,-6.0062,-6.0062,-6.0062,-6.0062,-6.0062,-6.0062,-6.0062,-6.0062,-6.0062,-6.0062,-6.0062,-5.9929,-5.9437,-5.8506,-5.7324,-5.5228,-5.2894,-5.0061,-4.7313,-4.5156,-4.3455,-4.2002,-4.1278,-4.1143,-4.102,-4.102,-4.102,-4.102,-4.102,-4.102,-4.102,-4.102,-9.9825,-9.9854,-9.9643,-9.9581,-9.9581,-9.9581,-9.9581,-9.9581,-9.9581,-9.9581,-9.9581,-9.9581,-9.9581,-9.9581,-9.9581,-9.9581,-9.9581,-9.9581,-9.9581,-9.9581,-9.9461,-9.9341,-9.9158,-9.9095,-9.8883,-9.8358,-9.8079,-9.7771,-9.7864,-9.7491,-9.6738,-9.5154,-9.3444,-9.1404,-8.9142,-8.7467,-8.5764,-8.3809,-8.1926,-7.9876,-7.8243,-7.7433,-7.7165,-7.7165,-7.7165,-7.7165,-7.7165,-7.7165,-7.7165,-7.7165,-7.7165,-7.7165,-7.7065,-7.6839,-7.6412,-7.5829,-7.466,-7.3712,-7.2572,-6.9921,-6.7522,-6.5258,-6.3091,-6.1565,-6.0703,-6.0269,-6.0062,-6.0062,-6.0062,-6.0062,-6.0062,-6.0062,-6.0062,-6.0062,-6.0062,-6.0062,-6.0062,-6.0062,-6.0062,-6.0062,-6.0062,-6.0062,-6.0062,-6.0062,-6.0062,-6.0062,-6.0062,-6.0062,-6.0062,-6.0062,-6.0062,-6.0062,-6.0062,-6.0043,-5.9797,-5.9323,-5.8259,-5.6767,-5.4664,-5.1937,-4.8989,-4.6471,-4.4428,-4.2614,-4.1634,-4.1143,-4.102,-4.102,-4.102,-4.102,-4.102,-4.102,-4.102,-4.102,-4.102,-10.0428,-10.0458,-9.9825,-9.9643,-9.9643,-9.9552,-9.9581,-9.9581,-9.9581,-9.9581,-9.9581,-9.9581,-9.9581,-9.9581,-9.9581,-9.9581,-9.9581,-9.9581,-9.9581,-9.9581,-9.9581,-9.9461,-9.949,-9.9581,-9.937,-9.9158,-9.8854,-9.9129,-9.9066,-9.8699,-9.7929,-9.6709,-9.5318,-9.3782,-9.1431,-9.0135,-8.8394,-8.6129,-8.4555,-8.2411,-7.9749,-7.8169,-7.7433,-7.7214,-7.7165,-7.7165,-7.7165,-7.7165,-7.7165,-7.7165,-7.7165,-7.7165,-7.7165,-7.7165,-7.6839,-7.6436,-7.5829,-7.4865,-7.3402,-7.0767,-6.7974,-6.6133,-6.3757,-6.1994,-6.1228,-6.0684,-6.0269,-6.0156,-6.0062,-6.0062,-6.0062,-6.0062,-6.0062,-6.0062,-6.0062,-6.0062,-6.0062,-6.0062,-6.0062,-6.0062,-6.0062,-6.0062,-6.0062,-6.0062,-6.0062,-6.0062,-6.0062,-6.0062,-6.0062,-6.0062,-6.0062,-6.0062,-6.0062,-5.9929,-5.9664,-5.8963,-5.7801,-5.6208,-5.3731,-5.1127,-4.8272,-4.5761,-4.3698,-4.2247,-4.1634,-4.102,-4.102,-4.102,-4.102,-4.102,-4.102,-4.102,-4.102,-4.102,-4.102,-10.138,-10.1321,-10.0518,-10.0187,-10.0097,-9.9734,-9.9552,-9.9581,-9.9581,-9.9581,-9.9581,-9.9581,-9.9581,-9.9581,-9.9581,-9.9581,-9.9581,-9.9581,-9.9581,-9.9581,-9.9581,-9.9581,-9.9581,-9.9581,-9.9581,-9.9552,-9.937,-9.9461,-9.9461,-9.9066,-9.845,-9.7678,-9.6738,-9.525,-9.3641,-9.243,-9.0699,-8.8622,-8.6695,-8.4662,-8.2362,-7.9999,-7.8092,-7.7287,-7.7165,-7.7165,-7.7165,-7.7165,-7.7165,-7.7165,-7.7165,-7.7165,-7.7165,-7.7165,-7.7165,-7.6864,-7.6008,-7.4991,-7.3505,-7.1084,-6.8747,-6.7132,-6.462,-6.3202,-6.2218,-6.1341,-6.059,-6.0156,-6.0062,-6.0062,-6.0062,-6.0062,-6.0062,-6.0062,-6.0062,-6.0062,-6.0062,-6.0062,-6.0062,-6.0062,-6.0062,-6.0062,-6.0062,-6.0062,-6.0062,-6.0062,-6.0062,-6.0062,-6.0062,-6.0062,-6.0062,-6.0062,-6.0043,-5.9797,-5.9323,-5.8602,-5.7209,-5.5495,-5.3028,-5.0417,-4.7673,-4.5049,-4.3346,-4.1756,-4.1143,-4.1143,-4.102,-4.102,-4.102,-4.102,-4.102,-4.102,-4.102,-4.102,-4.102,-10.3011,-10.2638,-10.1734,-10.1055,-10.0518,-10.0097,-9.9734,-9.9581,-9.9581,-9.9581,-9.9581,-9.9581,-9.9581,-9.9581,-9.9581,-9.9581,-9.9581,-9.9581,-9.9581,-9.9581,-9.9581,-9.9581,-9.9581,-9.9581,-9.9581,-9.9581,-9.9581,-9.9581,-9.949,-9.9278,-9.8883,-9.845,-9.7958,-9.6993,-9.5758,-9.4546,-9.3122,-9.1251,-8.898,-8.6617,-8.4354,-8.2094,-7.9744,-7.8365,-7.7531,-7.7214,-7.7165,-7.7165,-7.7165,-7.7165,-7.7165,-7.7165,-7.7165,-7.7165,-7.7165,-7.6964,-7.6032,-7.5093,-7.3918,-7.1736,-6.9602,-6.8211,-6.5826,-6.4289,-6.3293,-6.2218,-6.1135,-6.059,-6.0364,-6.0062,-6.0062,-6.0062,-6.0062,-6.0062,-6.0062,-6.0062,-6.0062,-6.0062,-6.0062,-6.0062,-6.0062,-6.0062,-6.0062,-6.0062,-6.0062,-6.0062,-6.0062,-6.0062,-6.0062,-6.0062,-6.0062,-6.0062,-6.0043,-5.9797,-5.9191,-5.8241,-5.6846,-5.4781,-5.2323,-4.972,-4.7088,-4.4792,-4.298,-4.1756,-4.1511,-4.1388,-4.1265,-4.102,-4.102,-4.102,-4.102,-4.102,-4.102,-4.102,-4.102,-10.4716,-10.4152,-10.3213,-10.2172,-10.1203,-10.0608,-10.0097,-9.9643,-9.9581,-9.9581,-9.9581,-9.9581,-9.9581,-9.9581,-9.9581,-9.9581,-9.9581,-9.9581,-9.9581,-9.9581,-9.9581,-9.9581,-9.9581,-9.9581,-9.9581,-9.9581,-9.9581,-9.9581,-9.9581,-9.9581,-9.9249,-9.8946,-9.8762,-9.8422,-9.7397,-9.6548,-9.5057,-9.3221,-9.0949,-8.842,-8.5971,-8.3779,-8.1718,-7.9166,-7.8092,-7.7653,-7.7507,-7.7336,-7.7165,-7.7165,-7.7165,-7.7165,-7.7165,-7.7165,-7.7165,-7.6964,-7.6234,-7.5399,-7.4558,-7.2491,-7.0895,-6.9495,-6.7327,-6.5587,-6.453,-6.3111,-6.179,-6.1003,-6.0477,-6.0062,-6.0062,-6.0062,-6.0062,-6.0062,-6.0062,-6.0062,-6.0062,-6.0062,-6.0062,-6.0062,-6.0062,-6.0062,-6.0062,-6.0062,-6.0062,-6.0062,-6.0062,-6.0062,-6.0062,-6.0062,-6.0062,-6.0062,-6.0062,-5.9683,-5.9304,-5.8012,-5.6616,-5.4548,-5.2206,-4.9601,-4.7088,-4.4671,-4.3346,-4.2614,-4.2247,-4.1756,-4.1265,-4.102,-4.102,-4.102,-4.102,-4.102,-4.102,-4.102,-4.102,-10.5562,-10.584,-10.4596,-10.3526,-10.2638,-10.144,-10.0667,-10.0158,-9.9734,-9.9581,-9.9581,-9.9581,-9.9581,-9.9581,-9.9581,-9.9581,-9.9581,-9.9581,-9.9581,-9.9581,-9.9581,-9.9581,-9.9581,-9.9581,-9.9581,-9.9581,-9.9581,-9.9581,-9.9581,-9.9581,-9.9461,-9.9461,-9.937,-9.8975,-9.8422,-9.7584,-9.6358,-9.4823,-9.2565,-9.0113,-8.7518,-8.5347,-8.2983,-8.043,-7.902,-7.8385,-7.819,-7.7629,-7.7165,-7.7165,-7.7165,-7.7165,-7.7165,-7.7165,-7.7165,-7.7165,-7.6537,-7.5907,-7.5093,-7.3632,-7.2155,-7.1001,-6.8833,-6.7132,-6.5649,-6.3998,-6.2442,-6.1565,-6.0703,-6.0062,-6.0062,-6.0062,-6.0062,-6.0062,-6.0062,-6.0062,-6.0062,-6.0062,-6.0062,-6.0062,-6.0062,-6.0062,-6.0062,-6.0062,-6.0062,-6.0062,-6.0062,-6.0062,-6.0062,-6.0062,-6.0062,-6.0062,-6.0062,-5.9797,-5.9551,-5.8488,-5.6846,-5.4781,-5.2458,-4.9958,-4.7463,-4.5776,-4.4564,-4.382,-4.2736,-4.1879,-4.1278,-4.1143,-4.102,-4.102,-4.102,-4.102,-4.102,-4.102,-4.102,-10.576,-10.5426,-10.5121,-10.4216,-10.301,-10.2338,-10.1705,-10.0995,-10.0278,-9.9887,-9.9916,-9.9672,-9.9581,-9.9581,-9.9581,-9.9581,-9.9581,-9.9581,-9.9581,-9.9581,-9.9581,-9.9581,-9.9581,-9.9581,-9.9581,-9.9581,-9.9581,-9.9581,-9.9581,-9.9581,-9.9581,-9.9581,-9.9581,-9.9341,-9.9066,-9.8422,-9.7425,-9.6005,-9.3919,-9.1538,-8.9043,-8.6687,-8.4094,-8.1953,-7.9782,-7.8776,-7.8678,-7.7751,-7.7263,-7.7165,-7.7165,-7.7165,-7.7165,-7.7165,-7.7165,-7.7065,-7.6739,-7.6234,-7.5704,-7.4455,-7.3091,-7.2305,-7.0133,-6.8318,-6.661,-6.453,-6.2888,-6.179,-6.0797,-6.0062,-6.0062,-6.0062,-6.0062,-6.0062,-6.0062,-6.0062,-6.0062,-6.0062,-6.0062,-6.0062,-6.0062,-6.0062,-6.0062,-6.0062,-6.0062,-6.0062,-6.0062,-6.0062,-6.0062,-6.0062,-6.0062,-6.0062,-6.0062,-6.0043,-5.9797,-5.8849,-5.7094,-5.5362,-5.3045,-5.0551,-4.8662,-4.7343,-4.5897,-4.4564,-4.3346,-4.2369,-4.1278,-4.1143,-4.102,-4.102,-4.102,-4.102,-4.102,-4.102,-4.102,-10.5813,-10.5042,-10.5329,-10.4503,-10.3066,-10.2615,-10.2082,-10.1133,-10.0464,-10.0108,-10.0105,-9.9799,-9.9734,-9.9734,-9.9552,-9.9581,-9.9581,-9.9581,-9.9581,-9.9581,-9.9581,-9.9581,-9.9581,-9.9581,-9.9581,-9.9581,-9.9581,-9.9581,-9.9581,-9.9581,-9.9581,-9.9581,-9.9581,-9.9581,-9.9461,-9.8854,-9.8329,-9.7143,-9.4961,-9.2583,-9.0245,-8.7852,-8.5739,-8.3566,-8.1079,-7.9641,-7.8751,-7.7726,-7.7189,-7.7165,-7.7165,-7.7165,-7.7165,-7.7165,-7.7165,-7.7065,-7.6739,-7.6416,-7.5921,-7.4641,-7.3441,-7.1963,-6.9789,-6.8244,-6.6322,-6.3999,-6.2569,-6.1424,-6.0607,-6.0156,-6.0062,-6.0062,-6.0062,-6.0062,-6.0062,-6.0062,-6.0062,-6.0062,-6.0062,-6.0062,-6.0062,-6.0062,-6.0062,-6.0062,-6.0062,-6.0062,-6.0062,-6.0062,-6.0062,-6.0062,-6.0062,-6.0062,-6.0062,-6.0043,-5.9929,-5.9456,-5.8049,-5.6536,-5.3965,-5.1498,-5.0195,-4.8885,-4.6847,-4.5292,-4.3956,-4.2614,-4.1265,-4.102,-4.102,-4.102,-4.102,-4.102,-4.102,-4.102,-4.102,-10.589,-10.6247,-10.5611,-10.4605,-10.3204,-10.1728,-10.0967,-10.0068,-9.9936,-9.9808,-9.9841,-10.0108,-9.9867,-10.0158,-9.9239,-9.9465,-9.9494,-9.9349,-9.9436,-9.9581,-9.9581,-9.932,-9.9203,-9.9087,-9.9116,-9.9174,-9.9494,-9.9349,-9.9116,-9.9291,-9.9436,-9.9174,-9.9291,-9.9465,-9.8996,-9.8777,-9.8272,-9.6953,-9.5271,-9.3132,-9.0756,-8.8755,-8.6921,-8.5026,-8.2878,-8.1012,-7.9127,-7.7775,-7.7165,-7.7165,-7.7165,-7.7165,-7.7165,-7.7165,-7.7165,-7.7165,-7.6918,-7.6329,-7.5152,-7.4286,-7.2806,-7.0196,-6.8245,-6.5971,-6.3932,-6.2546,-6.1295,-6.0215,-6.0056,-5.9871,-5.9815,-5.9986,-5.9986,-6.0024,-5.9948,-6.0005,-6.0062,-6.0062,-6.0062,-6.0062,-6.0062,-6.0062,-6.0062,-6.0062,-6.0062,-6.0062,-6.0062,-6.0062,-6.0062,-6.0062,-6.0062,-6.0062,-6.0062,-6.0062,-6.0043,-5.9929,-5.8753,-5.7457,-5.4664,-5.2928,-5.1633,-4.9497,-4.7568,-4.564,-4.4063,-4.2614,-4.1388,-4.102,-4.102,-4.102,-4.102,-4.102,-4.102,-4.102,-4.102,-10.4647,-10.469,-10.4979,-10.4449,-10.3273,-10.2884,-10.2099,-10.1144,-10.0361,-9.9801,-9.9246,-9.898,-9.8578,-9.8022,-9.7815,-9.7988,-9.8299,-9.8357,-9.8764,-9.9378,-9.9465,-9.868,-9.7633,-9.7371,-9.7371,-9.7371,-9.7342,-9.74,-9.74,-9.7342,-9.7342,-9.7458,-9.7371,-9.7371,-9.7458,-9.7164,-9.6507,-9.5566,-9.4283,-9.2661,-9.0358,-8.8417,-8.6764,-8.508,-8.354,-8.1584,-7.9385,-7.7928,-7.7165,-7.7165,-7.7165,-7.7165,-7.7165,-7.7165,-7.7165,-7.7116,-7.6555,-7.5869,-7.484,-7.335,-7.1542,-6.933,-6.7302,-6.5277,-6.3388,-6.1521,-6.0386,-5.9469,-5.8865,-5.8635,-5.8638,-5.9018,-5.9473,-5.9758,-5.9131,-5.8771,-5.9226,-5.9264,-5.9492,-5.9891,-6.0062,-6.0062,-6.0062,-6.0062,-6.0062,-6.0024,-5.9986,-6.0062,-6.0062,-6.0062,-6.0062,-6.0062,-6.0062,-6.0043,-5.9929,-5.9683,-5.8716,-5.7457,-5.5362,-5.4349,-5.2458,-4.9736,-4.8063,-4.6259,-4.4307,-4.2722,-4.1879,-4.1388,-4.1143,-4.102,-4.102,-4.102,-4.102,-4.102,-4.102,-10.3833,-10.3634,-10.4279,-10.4017,-10.3236,-10.3278,-10.2763,-10.1691,-10.0759,-9.9908,-9.9167,-9.8362,-9.7791,-9.6786,-9.6614,-9.6676,-9.7053,-9.7167,-9.7749,-9.8447,-9.8563,-9.7371,-9.615,-9.5859,-9.5917,-9.5976,-9.6092,-9.583,-9.583,-9.6034,-9.5976,-9.583,-9.6063,-9.5946,-9.583,-9.5976,-9.5332,-9.4504,-9.3578,-9.2267,-9.0432,-8.8526,-8.6768,-8.5135,-8.3476,-8.1708,-8.0049,-7.8306,-7.7365,-7.7165,-7.7165,-7.7165,-7.7165,-7.7165,-7.7165,-7.6994,-7.6213,-7.526,-7.4186,-7.2538,-7.0435,-6.853,-6.6345,-6.4544,-6.2738,-6.0818,-5.9603,-5.8701,-5.8054,-5.7665,-5.7613,-5.8049,-5.86,-5.9093,-5.8334,-5.795,-5.8258,-5.841,-5.86,-5.9207,-5.9283,-5.9245,-5.9283,-5.9416,-5.9625,-5.9663,-5.9834,-6.0062,-6.0062,-6.0062,-6.0062,-6.0062,-6.0024,-5.991,-5.9797,-5.9304,-5.8488,-5.7342,-5.587,-5.4578,-5.2308,-4.9981,-4.8481,-4.6726,-4.4643,-4.2967,-4.2247,-4.1511,-4.1265,-4.102,-4.102,-4.102,-4.102,-4.102,-4.102,-10.403,-10.3931,-10.3634,-10.3333,-10.2893,-10.2272,-10.1663,-10.0807,-10.0611,-10.0189,-9.9489,-9.8845,-9.8242,-9.755,-9.6401,-9.609,-9.5976,-9.5946,-9.6004,-9.6034,-9.6034,-9.5917,-9.5481,-9.5364,-9.5364,-9.5481,-9.5539,-9.5626,-9.5393,-9.5422,-9.583,-9.551,-9.5452,-9.5743,-9.5452,-9.5743,-9.5189,-9.4574,-9.4157,-9.3142,-9.1563,-9.0009,-8.8587,-8.7018,-8.4218,-8.2101,-8.0729,-7.9032,-7.7716,-7.7265,-7.7141,-7.7165,-7.7165,-7.7165,-7.7165,-7.7116,-7.614,-7.4773,-7.3244,-7.1703,-6.96,-6.6956,-6.505,-6.2855,-6.0944,-5.9786,-5.8627,-5.7633,-5.7428,-5.7417,-5.7398,-5.748,-5.7518,-5.7613,-5.7347,-5.7271,-5.7608,-5.7646,-5.7798,-5.7855,-5.7779,-5.7689,-5.7898,-5.8429,-5.8695,-5.8904,-5.9359,-5.9606,-5.972,-5.9739,-5.9948,-6.0024,-5.9986,-5.9872,-5.9437,-5.8944,-5.803,-5.6544,-5.4665,-5.3357,-5.1559,-5.0145,-4.8803,-4.6848,-4.4843,-4.3549,-4.2478,-4.1756,-4.1265,-4.102,-4.102,-4.102,-4.102,-4.102,-4.102,-10.403,-10.403,-10.3866,-10.3569,-10.3171,-10.287,-10.2296,-10.157,-10.1102,-10.0352,-9.9367,-9.849,-9.7368,-9.6108,-9.5204,-9.4842,-9.4952,-9.4723,-9.4143,-9.3445,-9.3387,-9.3387,-9.3387,-9.3358,-9.3387,-9.3387,-9.3358,-9.3358,-9.3358,-9.3387,-9.3387,-9.3387,-9.3358,-9.3416,-9.3387,-9.3358,-9.3072,-9.2642,-9.2382,-9.1744,-9.0599,-8.9498,-8.82,-8.6668,-8.4294,-8.2293,-8.0614,-7.9624,-7.8511,-7.7716,-7.7365,-7.7165,-7.7165,-7.7165,-7.7165,-7.6823,-7.5603,-7.4165,-7.3075,-7.1055,-6.8823,-6.6834,-6.5162,-6.339,-6.1603,-5.9786,-5.8541,-5.7427,-5.6841,-5.6365,-5.6143,-5.6341,-5.6398,-5.5999,-5.5999,-5.5923,-5.5999,-5.636,-5.6816,-5.7271,-5.7531,-5.7499,-5.7499,-5.7822,-5.8007,-5.7955,-5.822,-5.8429,-5.8524,-5.8904,-5.9056,-5.9226,-5.9473,-5.9362,-5.9078,-5.8263,-5.7366,-5.5533,-5.3656,-5.2386,-5.123,-5.0036,-4.8996,-4.7024,-4.5351,-4.3933,-4.2425,-4.1776,-4.1166,-4.113,-4.102,-4.0968,-4.0903,-4.0929,-4.0968,-10.403,-10.403,-10.403,-10.3833,-10.3602,-10.3602,-10.3238,-10.2568,-10.1921,-10.0914,-9.9771,-9.8598,-9.7166,-9.5753,-9.467,-9.4202,-9.4115,-9.3608,-9.2946,-9.2305,-9.2075,-9.2049,-9.202,-9.1991,-9.1962,-9.1962,-9.1962,-9.1962,-9.202,-9.202,-9.1962,-9.1962,-9.202,-9.1962,-9.2078,-9.1962,-9.1764,-9.1397,-9.1397,-9.1057,-9.0257,-8.9331,-8.8159,-8.6671,-8.4752,-8.2977,-8.1238,-8.0226,-7.9151,-7.8015,-7.7416,-7.7165,-7.7165,-7.7165,-7.7165,-7.6921,-7.5091,-7.3678,-7.3026,-7.0933,-6.8984,-6.7596,-6.6123,-6.4559,-6.2802,-6.0764,-5.9096,-5.7896,-5.6564,-5.5635,-5.54,-5.563,-5.5601,-5.505,-5.5012,-5.5088,-5.5202,-5.5525,-5.6094,-5.6607,-5.6702,-5.6702,-5.6702,-5.7005,-5.7062,-5.71,-5.7385,-5.7703,-5.7613,-5.8068,-5.8277,-5.8315,-5.8584,-5.8775,-5.8029,-5.7117,-5.6238,-5.4785,-5.3185,-5.1899,-5.0761,-4.9737,-4.8836,-4.7407,-4.5927,-4.4331,-4.2808,-4.1685,-4.0869,-4.0612,-4.0448,-4.0565,-4.0708,-4.0799,-4.0851,-10.403,-10.403,-10.403,-10.3931,-10.3931,-10.3931,-10.3767,-10.3304,-10.2903,-10.2091,-10.0984,-9.9875,-9.8449,-9.6936,-9.5674,-9.4428,-9.3659,-9.314,-9.269,-9.2435,-9.2101,-9.1962,-9.1962,-9.1962,-9.1962,-9.1962,-9.1962,-9.1962,-9.1962,-9.1962,-9.1962,-9.1962,-9.1962,-9.1962,-9.1962,-9.1962,-9.1962,-9.1848,-9.1848,-9.168,-9.1113,-9.0257,-8.9128,-8.7686,-8.5854,-8.4262,-8.3087,-8.1334,-7.9641,-7.8189,-7.7541,-7.7165,-7.7165,-7.7043,-7.7092,-7.6701,-7.5042,-7.3919,-7.3482,-7.1401,-6.9706,-6.8937,-6.7691,-6.5931,-6.3976,-6.1914,-6.0042,-5.8569,-5.6955,-5.5842,-5.5757,-5.5419,-5.5088,-5.5012,-5.5012,-5.5012,-5.5012,-5.5031,-5.505,-5.5183,-5.5278,-5.5088,-5.5221,-5.5772,-5.6208,-5.6341,-5.674,-5.7138,-5.7119,-5.729,-5.7442,-5.7499,-5.7803,-5.7906,-5.7055,-5.6081,-5.5203,-5.4174,-5.282,-5.1504,-5.0463,-4.9857,-4.9064,-4.7657,-4.6092,-4.4734,-4.3114,-4.1756,-4.0963,-3.9998,-3.9762,-3.9708,-3.9955,-4.0215,-4.0409,-10.403,-10.403,-10.403,-10.403,-10.403,-10.403,-10.3931,-10.3767,-10.3404,-10.2903,-10.2091,-10.0984,-9.9771,-9.8449,-9.6766,-9.5625,-9.496,-9.3942,-9.3153,-9.249,-9.2101,-9.1962,-9.1962,-9.1962,-9.1962,-9.1962,-9.1962,-9.1962,-9.1962,-9.1962,-9.1962,-9.1962,-9.1962,-9.1962,-9.1962,-9.1962,-9.1962,-9.1962,-9.1962,-9.1848,-9.168,-9.1057,-9.0171,-8.904,-8.7597,-8.5945,-8.4262,-8.241,-8.0614,-7.9201,-7.8114,-7.7516,-7.7167,-7.6482,-7.6067,-7.5847,-7.4017,-7.2797,-7.2626,-7.1386,-7.0262,-6.9706,-6.8562,-6.7217,-6.5474,-6.3488,-6.1419,-5.966,-5.8182,-5.6892,-5.6068,-5.5324,-5.4993,-5.5012,-5.5012,-5.5012,-5.5012,-5.5012,-5.5012,-5.5012,-5.5012,-5.5012,-5.505,-5.5259,-5.5392,-5.5392,-5.5601,-5.579,-5.5904,-5.6227,-5.6626,-5.6664,-5.7043,-5.7055,-5.6493,-5.5656,-5.4641,-5.3747,-5.2581,-5.1344,-5.045,-5.0108,-4.9242,-4.767,-4.6305,-4.5004,-4.3499,-4.2044,-4.0873,-3.962,-3.9228,-3.9098,-3.9384,-3.9604,-3.9747,-10.403,-10.403,-10.403,-10.403,-10.403,-10.403,-10.403,-10.403,-10.3767,-10.3404,-10.2903,-10.1921,-10.0844,-9.9658,-9.8031,-9.6921,-9.6145,-9.472,-9.3616,-9.2822,-9.2352,-9.213,-9.1962,-9.1962,-9.1962,-9.1962,-9.1962,-9.1962,-9.1962,-9.1962,-9.1962,-9.1962,-9.1962,-9.1962,-9.1962,-9.1962,-9.1962,-9.1962,-9.1962,-9.1962,-9.1877,-9.1397,-9.0971,-9.0257,-8.91,-8.7418,-8.5305,-8.3328,-8.1455,-7.9568,-7.8486,-7.7544,-7.6679,-7.592,-7.5408,-7.4847,-7.3285,-7.2284,-7.2162,-7.1376,-7.0514,-7.0008,-6.9147,-6.7903,-6.605,-6.4268,-6.231,-6.0163,-5.8792,-5.757,-5.6235,-5.5635,-5.5201,-5.5116,-5.5012,-5.5012,-5.5012,-5.5012,-5.5012,-5.5012,-5.5012,-5.5012,-5.5012,-5.5012,-5.5012,-5.5012,-5.5012,-5.505,-5.5126,-5.5411,-5.579,-5.5885,-5.6227,-5.6481,-5.6071,-5.5037,-5.4264,-5.3409,-5.2674,-5.1671,-5.0429,-5.0053,-4.9013,-4.7457,-4.5265,-4.3915,-4.3334,-4.1813,-3.9983,-3.9001,-3.8565,-3.8565,-3.8994,-3.902,-3.9124,-10.403,-10.403,-10.403,-10.403,-10.403,-10.403,-10.403,-10.403,-10.3997,-10.38,-10.3371,-10.26,-10.1645,-10.0553,-9.9335,-9.8181,-9.6921,-9.5358,-9.4186,-9.34,-9.2822,-9.2352,-9.1962,-9.1962,-9.1962,-9.1962,-9.1962,-9.1962,-9.1962,-9.1962,-9.1962,-9.1962,-9.1962,-9.1962,-9.1962,-9.1962,-9.1962,-9.1962,-9.1962,-9.1962,-9.1877,-9.151,-9.1227,-9.1028,-9.0171,-8.8464,-8.6153,-8.4141,-8.1959,-7.9464,-7.8409,-7.7126,-7.5824,-7.5555,-7.492,-7.3846,-7.2723,-7.2065,-7.1772,-7.0985,-7.0198,-6.9743,-6.902,-6.7833,-6.5285,-6.3942,-6.2302,-6.0,-5.8306,-5.7029,-5.6315,-5.552,-5.5102,-5.4926,-5.4898,-5.4936,-5.4974,-5.5012,-5.5012,-5.5012,-5.5012,-5.5012,-5.5012,-5.5012,-5.5012,-5.5012,-5.5012,-5.5012,-5.5012,-5.5012,-5.5107,-5.5126,-5.5126,-5.5031,-5.505,-5.4889,-5.4473,-5.3723,-5.3094,-5.2463,-5.1087,-4.9702,-4.843,-4.7014,-4.4777,-4.3353,-4.2621,-4.1384,-3.9719,-3.8744,-3.8357,-3.802,-3.8397,-3.8449,-3.854,-10.403,-10.403,-10.403,-10.403,-10.403,-10.403,-10.403,-10.403,-10.403,-10.3931,-10.38,-10.297,-10.2296,-10.1645,-10.0489,-9.922,-9.7836,-9.6457,-9.5229,-9.4186,-9.3698,-9.3153,-9.2435,-9.2352,-9.2214,-9.2046,-9.1962,-9.1962,-9.1962,-9.1962,-9.1962,-9.1962,-9.1962,-9.1962,-9.1962,-9.1962,-9.1962,-9.1962,-9.1962,-9.1962,-9.1932,-9.1793,-9.1595,-9.1055,-8.9485,-8.7774,-8.5973,-8.326,-8.0846,-7.8776,-7.7365,-7.6168,-7.4961,-7.4527,-7.387,-7.2723,-7.1015,-6.9624,-6.8843,-6.8526,-6.8202,-6.769,-6.6833,-6.5606,-6.3952,-6.2555,-6.1065,-5.949,-5.7426,-5.5781,-5.477,-5.3892,-5.3677,-5.4127,-5.412,-5.4386,-5.4879,-5.5012,-5.4955,-5.5012,-5.4917,-5.5012,-5.5012,-5.5012,-5.5012,-5.5012,-5.5012,-5.5012,-5.5012,-5.5012,-5.5012,-5.5012,-5.5012,-5.5012,-5.5012,-5.5012,-5.4785,-5.4141,-5.3514,-5.2568,-5.0999,-5.0236,-4.9166,-4.7025,-4.4626,-4.3086,-4.2754,-4.1883,-4.0408,-3.9232,-3.8359,-3.79,-3.8043,-3.8004,-3.7981,-10.403,-10.403,-10.403,-10.403,-10.403,-10.403,-10.403,-10.403,-10.403,-10.403,-10.38,-10.2095,-10.1078,-10.0614,-9.9528,-9.8626,-9.7933,-9.6743,-9.5984,-9.5486,-9.491,-9.4186,-9.34,-9.2988,-9.2602,-9.2184,-9.2017,-9.1962,-9.1962,-9.1962,-9.1962,-9.1962,-9.1962,-9.1962,-9.1962,-9.1962,-9.1962,-9.1962,-9.1962,-9.1409,-9.0507,-9.0333,-9.0167,-8.9748,-8.8335,-8.6871,-8.5307,-8.2787,-8.0281,-7.8101,-7.6213,-7.4599,-7.3121,-7.228,-7.1337,-7.0381,-6.9046,-6.8071,-6.7462,-6.7413,-6.7149,-6.6555,-6.5974,-6.4852,-6.3061,-6.1865,-6.0399,-5.8415,-5.6467,-5.4976,-5.4145,-5.3279,-5.2976,-5.3233,-5.3266,-5.3437,-5.393,-5.3968,-5.4158,-5.4462,-5.45,-5.4576,-5.4898,-5.5012,-5.5012,-5.5012,-5.5012,-5.5012,-5.5012,-5.5012,-5.5012,-5.5012,-5.5012,-5.5012,-5.5012,-5.5012,-5.4766,-5.4246,-5.3723,-5.2884,-5.1406,-5.068,-4.938,-4.7258,-4.5173,-4.3747,-4.3041,-4.1772,-4.0324,-3.964,-3.8518,-3.7756,-3.7756,-3.7756,-3.7756,-10.3569,-10.3602,-10.3471,-10.3602,-10.3504,-10.3504,-10.3471,-10.3471,-10.3569,-10.3602,-10.3143,-10.0456,-9.9089,-9.8508,-9.759,-9.7388,-9.7636,-9.6597,-9.6343,-9.6612,-9.6013,-9.5183,-9.408,-9.3445,-9.2799,-9.2216,-9.1689,-9.1434,-9.1434,-9.1438,-9.1642,-9.1758,-9.1758,-9.1758,-9.1729,-9.1613,-9.1554,-9.1583,-9.1583,-9.042,-8.8181,-8.8035,-8.8035,-8.8035,-8.6941,-8.5813,-8.445,-8.2008,-7.9476,-7.7196,-7.4673,-7.2538,-7.0686,-6.9429,-6.8291,-6.7477,-6.7159,-6.7037,-6.6989,-6.6964,-6.6285,-6.5625,-6.521,-6.4237,-6.2128,-6.1284,-5.9644,-5.6903,-5.523,-5.4274,-5.3849,-5.3071,-5.2601,-5.2495,-5.2393,-5.2431,-5.2601,-5.2506,-5.2791,-5.3588,-5.3664,-5.3911,-5.4462,-5.4708,-5.4822,-5.4765,-5.486,-5.5012,-5.5012,-5.5012,-5.5012,-5.5012,-5.5012,-5.5012,-5.5012,-5.5012,-5.4889,-5.4435,-5.3667,-5.2683,-5.1489,-5.0576,-4.9444,-4.6697,-4.528,-4.3757,-4.2584,-4.1142,-3.9518,-3.9019,-3.8444,-3.7791,-3.7756,-3.7756,-3.7613,-10.0514,-10.0514,-10.0545,-10.0577,-10.0545,-10.0545,-10.0545,-10.0514,-10.0545,-10.0577,-10.0448,-9.9761,-9.9243,-9.8991,-9.8443,-9.7918,-9.744,-9.6552,-9.5912,-9.5452,-9.4749,-9.3759,-9.2645,-9.197,-9.1223,-9.0435,-8.9716,-8.9394,-8.9313,-8.907,-8.9431,-9.0391,-9.0478,-9.0395,-9.042,-8.9431,-8.8908,-8.8937,-8.8937,-8.8617,-8.8064,-8.8035,-8.8035,-8.789,-8.5351,-8.3411,-8.236,-7.8462,-7.5427,-7.3554,-7.166,-7.0041,-6.8852,-6.7383,-6.65,-6.6134,-6.467,-6.3718,-6.367,-6.2962,-6.2091,-6.1319,-6.0965,-6.0165,-5.8956,-5.7532,-5.5964,-5.4574,-5.2905,-5.1964,-5.1951,-5.1094,-5.0737,-5.2045,-5.183,-5.1709,-5.2374,-5.2506,-5.2601,-5.2734,-5.2791,-5.2848,-5.3133,-5.3645,-5.4025,-5.4158,-5.4614,-5.4974,-5.5012,-5.5012,-5.5012,-5.5012,-5.5012,-5.4917,-5.5012,-5.4936,-5.4813,-5.487,-5.3429,-5.2044,-5.0791,-4.8827,-4.6923,-4.5539,-4.432,-4.3043,-4.1245,-4.0008,-3.9141,-3.831,-3.7853,-3.7667,-3.7673,-3.7652,-3.7384,-9.9683,-9.9558,-9.9591,-9.9591,-9.9591,-9.9591,-9.9591,-9.9364,-9.8177,-9.7585,-9.7585,-9.7585,-9.7495,-9.7309,-9.6998,-9.6945,-9.7081,-9.6362,-9.6051,-9.6113,-9.5275,-9.4179,-9.3029,-9.2126,-9.1174,-9.0172,-8.9341,-8.8836,-8.8568,-8.8277,-8.8442,-8.9082,-8.914,-8.914,-8.9082,-8.8413,-8.8035,-8.7977,-8.6348,-8.5234,-8.4574,-8.4574,-8.4545,-8.4574,-8.2499,-8.098,-8.0037,-7.6486,-7.3742,-7.2042,-6.931,-6.74,-6.6416,-6.4691,-6.345,-6.2986,-6.1839,-6.0985,-6.0497,-5.9936,-5.94,-5.9094,-5.848,-5.7214,-5.5142,-5.3849,-5.3037,-5.2797,-5.1523,-5.0773,-5.0941,-4.9878,-4.9434,-5.0289,-4.9807,-4.9887,-5.0608,-5.0779,-5.1102,-5.1804,-5.1956,-5.2108,-5.2468,-5.2924,-5.319,-5.3228,-5.3532,-5.4006,-5.4367,-5.412,-5.3854,-5.3854,-5.3873,-5.3873,-5.3835,-5.3632,-5.3549,-5.3549,-5.2035,-5.0712,-5.0075,-4.8052,-4.6023,-4.4627,-4.3182,-4.1769,-4.0288,-3.902,-3.8077,-3.7324,-3.7146,-3.6912,-3.6968,-3.6864,-3.6644,-9.9215,-9.8966,-9.8933,-9.8904,-9.8904,-9.8966,-9.8933,-9.8703,-9.5909,-9.4626,-9.4659,-9.4659,-9.4659,-9.4659,-9.4453,-9.4927,-9.5945,-9.5355,-9.5625,-9.6624,-9.5657,-9.4658,-9.377,-9.2425,-9.1081,-8.9981,-8.8851,-8.8093,-8.7671,-8.7248,-8.7155,-8.7192,-8.725,-8.7221,-8.725,-8.7279,-8.7163,-8.6901,-8.3808,-8.1624,-8.0547,-8.0518,-8.0518,-8.0445,-7.9559,-7.8564,-7.7673,-7.4905,-7.2646,-7.0956,-6.7303,-6.4913,-6.3933,-6.1871,-6.0107,-5.9155,-5.8764,-5.813,-5.7006,-5.6933,-5.6925,-5.6907,-5.6394,-5.4504,-5.109,-5.0289,-5.0233,-5.0737,-5.0021,-4.9762,-4.976,-4.8862,-4.8259,-4.8127,-4.7592,-4.7647,-4.852,-4.8634,-4.9165,-5.0456,-5.076,-5.0988,-5.1614,-5.1975,-5.2108,-5.2317,-5.262,-5.2829,-5.3285,-5.2691,-5.2199,-5.2251,-5.2209,-5.2308,-5.2279,-5.1811,-5.1549,-5.1344,-4.9954,-4.8637,-4.8141,-4.6126,-4.4281,-4.3556,-4.1319,-3.9861,-3.8656,-3.7341,-3.6362,-3.6139,-3.5859,-3.5816,-3.5852,-3.534,-3.5159,-9.6068,-9.6007,-9.6007,-9.6007,-9.6007,-9.6007,-9.6007,-9.5843,-9.2949,0.0,0.0,-9.17,-9.17,-9.1733,-9.1642,-9.1807,-9.1978,-9.1503,-9.2076,-9.3325,-9.2369,-9.2152,-9.2321,-8.997,-8.8238,-8.7113,-8.4924,-8.3448,-8.2894,-8.2481,-8.2636,-8.3371,-8.3429,-8.3429,-8.3429,-8.3429,-8.2905,-8.1886,-8.1188,-8.0751,-8.0518,-8.0518,-8.0518,-8.0518,-7.8695,-7.728,-7.6478,-7.2526,-6.957,-6.7896,-6.5092,-6.31,-6.2129,-5.9773,-5.7984,-5.6763,-5.5153,-5.3549,-5.2296,-5.2199,-5.1928,-5.147,-5.1448,-5.0125,-4.6972,-4.6601,-4.6652,-4.6741,-4.6566,-4.6695,-4.7101,-4.6316,-4.6155,-4.7142,-4.6821,-4.6774,-4.7533,-4.7685,-4.7742,-4.8045,-4.8216,-4.8463,-4.9355,-5.0058,-5.0703,-5.1386,-5.1861,-5.2601,-5.2426,-5.0998,-4.9988,-5.0718,-5.0829,-5.1026,-5.1119,-5.0591,-5.02,-4.9371,-4.7696,-4.583,-4.4226,-4.2181,-4.0228,-3.9174,-3.7506,-3.6338,-3.5201,-3.4448,-3.3951,-3.4012,-3.4266,-3.4631,-3.4851,-3.351,-3.2168,-9.3198,-9.3081,-9.3048,-9.3081,0.0,-9.3081,-9.3081,-9.3015,-9.1569,-9.0944,-9.0944,-9.0944,-9.0944,-9.0944,-9.0944,-9.0944,-9.0944,-9.0591,-9.0692,-9.1201,-9.042,-9.0006,-8.9693,-8.8089,-8.6585,-8.5361,-8.3483,-8.2267,-8.164,-8.106,-8.0986,-8.145,-8.145,-8.145,-8.145,-8.145,-8.0415,-7.8525,-7.9165,-7.9165,-7.8554,-7.8525,-7.8176,-7.7507,-7.6188,0.0,0.0,0.0,0.0,0.0,0.0,0.0,0.0,-5.7646,0.0,-5.2895,-5.0823,-4.8732,-4.6807,-4.6428,-4.6054,-4.5409,-4.653,-4.555,-4.1354,-4.2205,-4.2986,-4.3018,-4.3271,-4.3623,-4.4086,-4.3803,-4.3773,-4.4425,-4.4449,-4.4686,-4.5426,-4.5597,-4.59,-4.6641,-4.685,-4.7153,-4.7989,-4.8501,-4.89,-4.9317,-4.9716,-5.0058,-5.0285,-4.8682,-4.7376,-4.769,-4.7758,-4.7662,-4.7357,-4.6991,-4.6411,-4.5554,-4.4071,-4.2428,-4.1117,-3.9549,-3.7927,-3.6785,-3.5555,-3.4511,-3.3544,-3.2878,-3.2397,-3.2372,-3.2442,-3.2494,-3.1482,-3.0828,-3.0337,-9.048,-9.0549,-9.0549,-9.0714,-9.0845,-8.976,-8.93,-8.93,-8.93,-8.93,-8.9333,-8.93,-8.93,-8.9244,-8.9244,-8.922,-8.9074,-8.8757,-8.873,-8.8959,-8.8459,-8.7897,-8.7537,-8.6584,-8.5331,-8.3696,-8.2267,-8.1057,-8.0165,-7.9494,-7.9063,-7.8961,-7.899,-7.8961,-7.9063,0.0,0.0,0.0,-7.6925,-7.6925,-7.5867,-7.5878,-7.5286,-7.4269,-7.3583,0.0,-7.0439,-6.8316,-6.652,-6.4943,-6.2338,0.0,0.0,0.0,0.0,0.0,0.0,0.0,0.0,0.0,0.0,0.0,-4.0407,-3.9363,-3.5509,-3.7218,-3.8764,-3.9161,-3.9906,-4.0452,-4.0744,-4.092,-4.1121,-4.1198,-4.1461,-4.1982,-4.2677,-4.279,-4.3281,-4.4725,-4.5027,-4.5319,-4.6018,-4.6414,-4.6603,-4.6891,-4.698,-4.706,-4.7218,-4.5451,-4.4242,-4.3933,-4.3875,-4.3623,-4.3133,-4.2671,-4.2029,-4.0883,-3.9856,-3.8744,-3.7555,-3.652,-3.5646,-3.4261,-3.351,-3.2427,-3.1584,-3.1075,-3.0471,-3.0295,-3.0372,-2.9815,-2.7665,-2.7802,-2.8369,-8.8007,-8.9103,-8.9103,-8.9826,-9.0549,-8.5486,-8.3316,-8.3316,-8.3316,-8.3316,-8.3349,-8.3316,-8.3211,-8.3012,-8.3012,-8.2712,-8.2312,-8.2257,-8.342,-8.5398,-8.5056,-8.6046,-8.7882,-8.5801,-8.3597,-8.1241,-7.9042,-7.6912,-7.4883,-7.4389,-7.4092,-7.3697,-7.3697,-7.3697,-7.3697,-7.3697,-7.3552,-7.3232,-7.3377,-7.3348,-7.3232,-7.3203,-7.3011,-7.2626,-7.1879,-7.0899,-6.9557,-6.7079,-6.5036,-6.3499,-6.1168,-5.8905,-5.6739,-5.3284,-4.9688,0.0,-4.2038,0.0,0.0,0.0,0.0,0.0,0.0,0.0,0.0,-3.1421,-3.323,-3.4691,-3.6273,-3.7013,-3.6624,-3.7241,-3.787,-3.8214,-3.8345,-3.8623,-3.9402,-3.9513,-3.9587,-3.981,-4.0399,-4.1158,-4.2092,-4.2778,-4.378,-4.4824,-4.4884,-4.3881,-4.2093,-4.0727,-4.0177,-4.0951,-4.0562,-4.0036,-3.9627,-3.8966,-3.8091,-3.6914,-3.5938,-3.4488,-3.2761,-3.1887,-3.0865,-2.939,-2.8933,-2.8437,-2.7447,-2.7227,-2.715,-2.7156,-2.7682,-2.7223,-2.4889,-2.4361,-2.4127,-8.4565,-8.5157,-8.5157,-8.4138,-8.2395,-8.0653,-7.9831,-7.9848,-7.9831,-7.978,-7.9662,-7.9629,-7.9458,-7.9047,-7.891,-7.8597,-7.8291,-7.8708,-7.9482,-8.0553,-8.1041,-8.1649,-8.237,-8.1165,-7.962,-7.7815,-7.6347,-7.4875,-7.3553,-7.3135,-7.2841,-7.2708,-7.2708,-7.1661,-6.9684,-7.0294,-7.1022,-7.169,-7.2359,-7.2708,-7.2708,-7.2537,-7.1951,-7.0926,-7.0024,-6.8662,-6.6838,-6.4883,-6.3073,-6.1455,-5.9393,-5.6657,-5.3312,-4.9676,-4.5469,0.0,0.0,0.0,0.0,0.0,0.0,0.0,0.0,0.0,0.0,0.0,-2.8858,-3.005,-3.189,-3.2917,-3.2666,-3.3497,-3.3981,-3.3912,-3.4394,-3.4808,-3.5149,-3.5185,-3.549,-3.6086,-3.6791,-3.7662,-3.8728,-3.9475,-4.0422,-4.1387,-3.9539,-3.755,-3.658,-3.5893,-3.5498,-3.5588,-3.5604,-3.5604,-3.5449,-3.5075,-3.4464,-3.3241,-3.2575,-3.1621,-2.9696,-2.8947,-2.8275,-2.6936,-2.6409,-2.6057,-2.545,-2.5273,-2.5196,-2.4809,-2.4056,-2.2935,-2.1823,-2.1814,-2.1902,-7.9864,-8.0061,-7.868,-7.6411,-7.3814,-7.4884,-7.5509,-7.5804,-7.5724,-7.5416,-7.4913,-7.4832,-7.4442,-7.3644,-7.3297,-7.3107,-7.3102,-7.3977,-7.4846,-7.5777,-7.6817,-7.7448,-7.7511,-7.7151,-7.6267,-7.4816,-7.3997,-7.3237,-7.2359,-7.1647,-7.1341,-7.1312,-7.044,-6.8695,-6.6252,-6.7415,-6.8724,-6.9975,-7.1196,-7.1836,-7.1865,-7.144,-7.0543,-6.8944,-6.7913,-6.6382,-6.4288,-6.2468,-6.0699,-5.8886,-5.6581,-5.3382,-4.9157,-4.5088,0.0,0.0,0.0,0.0,0.0,0.0,0.0,0.0,0.0,-1.9821,-2.0754,0.0,-2.4567,0.0,-2.7299,-2.8649,-2.8857,-2.9621,0.0,0.0,-3.0188,-3.058,-3.058,-3.0663,-3.1022,-3.2036,-3.2889,-3.3728,-3.4715,-3.5631,-3.6166,-3.5696,-3.2784,-3.0789,-3.124,-3.0989,-3.0641,-3.0323,-3.0569,-3.0868,-3.083,-3.0825,-3.0445,-2.9158,-2.8976,-2.8412,-2.6774,-2.6104,-2.5505,-2.4464,-2.3862,-2.3431,-2.2892,-2.2847,-2.247,-2.1487,-1.9727,-1.8395,-1.8669,-1.9038,-1.9172,-7.3169,-7.3833,-6.8553,-6.6876,-6.7731,-6.7757,-6.8489,-6.9668,-6.9445,-6.8548,-6.7231,-6.7198,-6.6243,-6.4598,-6.3976,0.0,-6.4593,-6.5751,-6.8085,-7.1497,-7.2799,-7.442,-7.6451,-7.6174,-7.5072,-7.3001,-7.2435,-7.1246,-6.9664,-6.8212,-6.7535,-6.7448,-6.3954,-6.2588,-6.3547,-6.4769,-6.6048,-6.739,-6.8637,-6.9306,-6.9306,-6.8574,-6.7711,-6.6574,-6.5581,-6.4204,-6.2663,-6.0285,-5.7822,-5.5354,-5.2283,-4.8777,-4.4474,0.0,0.0,0.0,0.0,0.0,0.0,0.0,0.0,0.0,0.0,0.0,0.0,0.0,0.0,-2.005,-2.26,0.0,-2.5039,-2.557,0.0,0.0,0.0,-2.5656,-2.5656,-2.5836,-2.6232,-2.6805,0.0,0.0,-2.9307,-3.0618,-3.0318,-2.7117,-2.5819,-2.5436,-2.614,-2.6016,-2.5853,-2.5704,-2.6096,-2.6225,-2.5917,-2.5944,-2.5646,-2.4733,-2.4478,-2.4057,-2.29,-2.2336,-2.1523,-2.0441,-1.9853,-1.9403,-1.8814,-1.8752,-1.8074,-1.5828,-1.5201,-1.5017,-1.5063,-1.5197,-1.5072,-6.6087,-6.161,-5.9234,-5.8536,-5.9126,-5.978,-6.0388,-6.0909,-6.0663,-6.0057,-5.9338,-5.9185,-5.8148,-5.6477,-5.6104,0.0,0.0,0.0,-6.0524,-6.2837,-6.5698,-6.7811,-6.9337,-6.9973,-6.9678,-6.8573,-6.8302,-6.7264,-6.5617,-6.5003,-6.2762,-5.9006,0.0,-5.6486,-5.8632,-6.061,-6.2995,-6.5787,-6.694,-6.7858,-6.864,-6.7936,-6.6867,-6.5375,-6.4054,-6.2345,-6.0188,-5.7746,-5.4664,-5.0925,-4.7369,-4.3035,0.0,0.0,0.0,0.0,0.0,0.0,0.0,0.0,0.0,0.0,0.0,-1.2378,-1.2942,0.0,0.0,0.0,-1.8433,-2.0287,-2.1103,-2.1346,0.0,0.0,0.0,0.0,0.0,0.0,0.0,-2.1996,-2.3287,-2.4404,-2.5026,-2.4259,-2.3152,-2.1774,-2.144,-2.1402,-2.1761,0.0,-2.0942,-2.0742,-2.1088,-2.1255,-2.1036,-2.136,-2.1652,-2.1215,-2.0915,-2.039,-1.9498,-1.8752,-1.7995,-1.7109,-1.6664,-1.6361,-1.5884,-1.4578,-1.3266,-1.2553,-1.2367,-1.2434,-1.2685,-1.2725,-1.2557,-5.7,0.0,0.0,0.0,0.0,-5.1445,-5.2182,-5.292,-5.2602,-5.2083,-5.1381,-5.0859,0.0,0.0,0.0,0.0,0.0,0.0,-5.3493,-5.5664,-5.9117,-6.1479,-6.2816,-6.3655,-6.3789,-6.3367,-6.3367,-6.2699,-6.1482,-5.901,-5.5229,-5.0448,0.0,0.0,0.0,0.0,-6.0005,-6.372,-6.5415,-6.6716,-6.7908,-6.7223,-6.6045,-6.4602,-6.2485,-6.0033,-5.7266,-5.4171,-5.0343,-4.5643,-4.142,0.0,0.0,0.0,0.0,0.0,0.0,0.0,0.0,0.0,0.0,0.0,0.0,0.0,0.0,0.0,0.0,0.0,0.0,0.0,-1.6691,-1.6912,-1.7037,0.0,0.0,0.0,0.0,0.0,0.0,0.0,0.0,0.0,-1.9587,-1.7999,-1.6974,0.0,0.0,-1.7561,-1.7567,-1.7169,-1.6712,-1.6326,-1.6467,0.0,-1.6574,-1.7044,-1.7399,-1.7543,-1.7255,-1.6749,-1.5971,-1.5163,-1.4435,-1.3859,-1.3539,-1.2927,-1.17,-0.9945,-0.8988,-0.9095,-0.9143,-0.9272,-0.95,-0.9615,-0.9481,0.0,0.0,0.0,0.0,-4.292,0.0,0.0,0.0,-4.6099,-4.4945,0.0,-4.2019,0.0,0.0,0.0,0.0,-3.9812,-4.3469,0.0,0.0,-5.3503,-5.603,-5.7991,-5.8079,-5.804,-5.7783,-5.7725,-5.7638,-5.7056,-4.8905,0.0,0.0,0.0,0.0,0.0,0.0,-5.7021,-6.0944,-6.3943,-6.5954,-6.6839,-6.579,-6.482,-6.4096,-6.0699,-5.7216,-5.3653,-4.9285,-4.4449,-3.9025,-3.4269,0.0,0.0,0.0,0.0,0.0,0.0,0.0,0.0,0.0,0.0,0.0,0.0,0.0,0.0,0.0,0.0,0.0,0.0,0.0,0.0,-1.2354,0.0,0.0,0.0,0.0,0.0,0.0,0.0,0.0,0.0,-1.4682,-1.2442,-1.2214,-1.262,-1.3644,0.0,0.0,0.0,0.0,-1.3227,-1.2836,-1.258,-1.2574,-1.2928,-1.2728,-1.2596,-1.2951,0.0,0.0,-1.197,-1.1476,-1.1108,-1.0715,-1.0302,-0.8914,-0.5509,-0.5075,-0.5085,-0.5101,-0.516,-0.5039,-0.5048,-0.5251,-0.5225,0.0,0.0,0.0,0.0,0.0,0.0,0.0,0.0,0.0,-3.6327,-3.5632,-3.4257,0.0,0.0,0.0,0.0,0.0,0.0,0.0,0.0,-4.3872,-4.6369,-4.8701,-4.9636,-5.0044,-4.9907,-4.9907,-4.7304,0.0,0.0,0.0,0.0,0.0,0.0,0.0,0.0,-5.3389,-5.8405,-6.139,-6.3696,-6.5332,-6.4027,-6.31,-6.2584,-5.9725,-5.527,-4.9213,-4.4714,-3.9412,0.0,0.0,0.0,0.0,0.0,0.0,0.0,0.0,0.0,0.0,0.0,0.0,0.0,0.0,0.0,0.0,0.0,0.0,0.0,0.0,0.0,0.0,0.0,-0.9684,0.0,0.0,0.0,0.0,0.0,0.0,0.0,0.0,0.0,-0.8555,-0.8748,-0.9404,-1.0073,-1.0481,-1.0667,-1.0641,0.0,0.0,0.0,0.0,0.0,0.0,0.0,-0.7973,-0.8089,-0.8387,-0.8333,-0.7811,-0.7471,-0.7165,-0.6782,0.0,0.0,-0.2732,-0.2307,-0.2323,-0.2323,-0.2323,-0.2323,-0.2323,-0.2244,-0.2223,0.0,0.0,0.0,0.0,0.0,0.0,0.0,0.0,0.0,-2.8957,-2.8758,0.0,0.0,0.0,0.0,0.0,0.0,0.0,0.0,0.0,0.0,0.0,-4.0475,-4.1523,0.0,0.0,0.0,0.0,0.0,0.0,0.0,0.0,0.0,0.0,0.0,0.0,-4.9608,-5.6009,-5.8827,-6.1345,-6.3644,-6.2213,-6.1262,-6.0902,-5.8087,-5.3559,-4.7245,0.0,0.0,0.0,0.0,0.0,0.0,0.0,0.0,0.0,0.0,0.0,0.0,0.0,0.0,0.0,0.0,0.0,0.0,0.0,0.0,0.0,0.0,0.0,0.0,0.0,-0.6757,0.0,0.0,0.0,0.0,0.0,0.0,0.0,0.0,0.0,0.0,-0.5395,-0.6058,-0.6724,-0.734,-0.7673,-0.7643,-0.7348,-0.6843,0.0,0.0,0.0,0.0,0.0,0.0,0.0,0.0,0.0,0.0,0.0,0.0,0.0,0.0,-0.1922,0.0,0.0304,0.0354,0.0405,0.0,0.0,0.0,0.0,0.0,0.0,0.0,0.0,0.0,0.0,0.0,0.0,0.0,0.0,0.0,-2.2722,0.0,0.0,-2.0545,0.0,0.0,0.0,0.0,0.0,0.0,0.0,0.0,0.0,0.0,0.0,0.0,0.0,0.0,0.0,0.0,0.0,0.0,0.0,0.0,0.0,0.0,-4.59,-5.3832,-5.6449,-5.9011,-6.1605,-6.0226,-5.93,-5.8907,-5.5448,-5.1661,-4.7628,0.0,0.0,0.0,0.0,0.0,0.0,0.0,0.0,0.0,0.0,0.0,0.0,0.0,0.0,0.0,0.0,0.0,0.0,0.0,0.0,0.0,0.0,0.0,0.0,0.0,0.0,-0.3922,-0.3948,-0.3995,0.0,0.0,0.0,0.0,0.0,0.0,0.0,0.0,0.0,-0.3496,-0.4287,-0.4717,-0.4632,-0.4599,-0.422,-0.3247,-0.2472,-0.2086,-0.2083,-0.1528,-0.1188,0.0,0.0,0.0,0.0,0.0,0.0,0.0,0.0,0.0,0.0,0.0,0.0,0.0,0.0,0.0,0.0,0.0,0.0,0.0,0.0,0.0,0.0,0.0,0.0,0.0,0.0,0.0,0.0,0.0,0.0,0.0,0.0,0.0,0.0,0.0,0.0,0.0,0.0,0.0,0.0,0.0,0.0,0.0,0.0,0.0,0.0,0.0,0.0,0.0,0.0,0.0,0.0,0.0,0.0,-4.3103,-5.0804,-5.4253,-5.7258,-5.9887,-5.8586,-5.7248,-5.5902,-5.1874,-4.75,0.0,0.0,0.0,0.0,0.0,0.0,0.0,0.0,0.0,0.0,0.0,0.0,0.0,0.0,0.0,0.0,0.0,0.0,0.0,0.0,0.0,0.0,0.0,0.0,0.0,0.0,0.0,0.0,-0.1763,-0.1499,-0.1259,0.0,0.0,0.0,0.0,0.0,0.0,0.0,0.0,0.0,0.0,-0.1622,-0.1807,-0.1746,-0.1536,-0.1108,-0.0123,0.0553,0.0614,0.1281,0.1734,0.143,0.0,0.0,0.0,0.0,0.0,0.0,0.0,0.0,0.0,0.0,0.0,0.0,0.0,0.0,0.0,0.0,0.0,0.0,0.0,0.0,0.0,0.0,0.0,0.0,0.0,0.0,0.0,0.0,0.0,0.0,0.0,0.0,0.0,0.0,0.0,0.0,0.0,0.0,0.0,0.0,0.0,0.0,0.0,0.0,0.0,0.0,0.0,0.0,0.0,0.0,0.0,0.0,0.0,-4.0258,-4.8643,-5.186,-5.4967,-5.7941,-5.6706,-5.5118,-5.343,-4.8855,-4.3874,0.0,0.0,0.0,0.0,0.0,0.0,0.0,0.0,0.0,0.0,0.0,0.0,0.0,0.0,0.0,0.0,0.0,0.0,0.0,0.0,0.0,0.0,0.0,0.0,0.0,0.0,0.0,0.0,0.021,0.0436,0.064,0.0,0.0,0.0,0.0,0.0,0.0,0.0,0.0,0.0,0.0,0.1062,0.089,0.0873,0.0,0.0,0.1976,0.2754,0.2989,0.3401,0.3817,0.3829,0.4007,0.0,0.0,0.0,0.0,0.0,0.0,0.0,0.0,0.0,0.0,0.0,0.0,0.0,0.0,0.0,0.0,0.0,0.0,0.0,0.0,0.0,0.0,0.0,0.0,0.0,0.0,0.0,0.0,0.0,0.0,0.0,0.0,0.0,0.0,0.0,0.0,0.0,0.0,0.0,0.0,0.0,0.0,0.0,0.0,0.0,0.0,0.0,0.0,0.0,0.0,0.0,0.0,-3.7419,-4.6794,-4.9273,-5.2325,-5.613,-5.4784,-5.3022,-5.1048,-4.6159,-4.0561,0.0,0.0,0.0,0.0,0.0,0.0,0.0,0.0,0.0,0.0,0.0,0.0,0.0,0.0,0.0,0.0,0.0,0.0,0.0,0.0,0.0,0.0,0.0,0.0,0.0,0.0,0.0,0.0,0.0,0.0,0.0,0.0,0.0,0.0,0.0,0.0,0.0,0.0,0.0,0.0,0.0,0.3437,0.3315,0.3187,0.3251,0.0,0.3964,0.4437,0.5016,0.5061,0.5179,0.5628,0.0,0.0,0.0,0.0,0.0,0.0,0.0,0.0,0.0,0.0,0.0,0.0,0.0,0.0,0.0,0.0,0.0,0.0,0.0,0.0,0.0,0.0,0.0,0.0,0.0,0.0,0.0,0.0,0.0,0.0,0.0,0.0,0.0,0.0,0.0,0.0,0.0,0.0,0.0,0.0,0.0,0.0,0.0,0.0,0.0,0.0,0.0,0.0,0.0,0.0,0.0,0.0,0.0,0.0,-4.3446,-4.6905,-5.0304,-5.3609,-5.3059,-5.0838,-4.6824,-4.2801,0.0,0.0,0.0,0.0,0.0,0.0,0.0,0.0,0.0,0.0,0.0,0.0,0.0,0.0,0.0,0.0,0.0,0.0,0.0,0.0,0.0,0.0,0.0,0.0,0.0,0.0,0.0,0.2522,0.0,0.0,0.0,0.0,0.0,0.0,0.0,0.0,0.0,0.0,0.0,0.0,0.0,0.0,0.5296,0.517,0.505,0.4897,0.0,0.0,0.5886,0.6036,0.6398,0.6548,0.0,0.0,0.0,0.0,0.0,0.0,0.0,0.0,0.0,0.0,0.0,0.0,0.0,0.0,0.0,0.0,0.0,0.0,0.0,0.0,0.0,0.0,0.0,0.0,0.0,0.0,0.0,0.0,0.0,0.0,0.0,0.0,0.0,0.0,0.0,0.0,0.0,0.0,0.0,0.0,0.0,0.0,0.0,0.0,0.0,0.0,0.0,0.0,0.0,0.0,0.0,0.0,0.0,0.0,-3.2173,-3.9929,-4.4007,-4.7694,-5.0997,-5.0926,-4.8655,-4.419,-4.0651,-3.4903,0.0,0.0,0.0,0.0,0.0,0.0,0.0,0.0,0.0,0.0,0.0,0.0,0.0,0.0,0.0,0.0,0.0,0.0,0.0,0.0,0.0,0.0,0.0,0.0,0.0,0.0,0.0,0.0,0.0,0.0,0.0,0.0,0.0,0.0,0.0,0.0,0.0,0.0,0.0,0.0,0.0,0.0,0.6616,0.6596,0.0,0.0,0.0,0.7551,0.7551,0.0,0.0,0.0,0.0,0.0,0.0,0.0,0.0,0.0,0.0,0.0,0.0,0.0,0.0,0.0,0.0,0.0,0.0,0.0,0.0,0.0,0.0,0.0,0.0,0.0,0.0,0.0,0.0,0.0,0.0,0.0,0.0,0.0,0.0,0.0,0.0,0.0,0.0,0.0,0.0,0.0,0.0,0.0,0.0,0.0,0.0,0.0,0.0,0.0,0.0,0.0,0.0,0.0,0.0,0.0,0.0,0.0,-3.6391,-4.0781,-4.4801,-4.8265,-4.857,-4.6556,-4.2334,-3.9017,-3.34,0.0,0.0,0.0,0.0,0.0,0.0,0.0,0.0,0.0,0.0,0.0,0.0,0.0,0.0,0.0,0.0,0.0,0.0,0.0,0.0,0.0,0.0,0.0,0.0,0.0,0.0,0.0,0.0,0.0,0.0,0.0,0.0,0.0,0.0,0.0,0.0,0.0,0.0,0.0,0.0,0.0,0.7787,0.7683,0.7831,0.8064,0.0,0.0,0.8938,0.9039,0.8668,0.0,0.0,0.0,0.0,0.0,0.0,0.0,0.0,0.0,0.0,0.0,0.0,0.0,0.0,0.0,0.0,0.0,0.0,0.0,0.0,0.0,0.0,0.0,0.0,0.0,0.0,0.0,0.0,0.0,0.0,0.0,0.0,0.0,0.0,0.0,0.0,0.0,0.0,0.0,0.0,0.0,0.0,0.0,0.0,0.0,0.0,0.0,0.0,0.0,0.0,0.0,0.0,0.0,0.0,0.0,0.0,-3.3294,-3.8205,-4.2209,-4.5263,-4.604,-4.4025,-3.9383,-3.6887,-3.1472,0.0,0.0,0.0,0.0,0.0,0.0,0.0,0.0,0.0,0.0,0.0,0.0,0.0,0.0,0.0,0.0,0.0,0.0,0.0,0.0,0.0,0.0,0.0,0.0,0.0,0.0,0.0,0.0,0.0,0.0,0.0,0.0,0.0,0.0,0.0,0.0,0.0,0.0,0.0,0.0,0.0,0.8156,0.8313,0.8225,0.0,0.0,0.0,0.0,0.8645,0.8568,0.0,0.0,0.0,0.0,0.0,0.0,0.0,0.0,0.0,0.0,0.0,0.0,0.0,0.0,0.0,0.0,0.0,0.0,0.0,0.0,0.0,0.0,0.0,0.0,0.0,0.0,0.0,0.0,0.0,0.0,0.0,0.0,0.0,0.0,0.0,0.0,0.0,0.0,0.0,0.0,0.0,0.0,0.0,0.0,0.0,0.0,0.0,0.0,0.0,0.0,0.0,0.0,0.0,0.0,0.0,0.0,-2.955,-3.4823,-3.8976,-4.1988,-4.3345,-4.1874,-3.7454,-3.4897,-2.9656,0.0,0.0,0.0,0.0,0.0,0.0,0.0,0.0,0.0,0.0,0.0,0.0,0.0,0.0,0.0,0.0,0.0,0.0,0.0,0.0,0.0,0.0,0.0,0.0,0.0,0.0,0.0,0.0,0.0,0.0,0.0,0.0,0.0,0.0,0.0,0.0,0.0,0.0,0.0,0.0,0.7729,0.779,0.8048,0.0,0.0,0.0,0.0,0.0,0.0,0.9054,0.8786,0.0,0.0,0.0,0.0,0.0,0.0,0.0,0.0,0.0,0.0,0.0,0.0,0.0,0.0,0.0,0.0,0.0,0.0,0.0,0.0,0.0,0.0,0.0,0.0,0.0,0.0,0.0,0.0,0.0,0.0,0.0,0.0,0.0,0.0,0.0,0.0,0.0,0.0,0.0,0.0,0.0,0.0,0.0,0.0,0.0,0.0,0.0,0.0,0.0,0.0,0.0,0.0,0.0,0.0,0.0,-2.5916,-3.1467,-3.5832,-3.8923,-4.0724,-3.9837,-3.6056,-3.2977,-2.792,-2.0933,0.0,0.0,0.0,0.0,0.0,0.0,0.0,0.0,0.0,0.0,0.0,0.0,0.0,0.0,0.0,0.0,0.0,0.0,0.0,0.0,0.0,0.0,0.0,0.0,0.0,0.0,0.0,0.0,0.0,0.0,0.0,0.0,0.0,0.0,0.0,0.0,0.0,0.0,0.0,0.7167,0.7368,0.0,0.0,0.0,0.0,0.0,0.0,0.0,0.0,0.9033,0.0,0.0,0.0,0.0,0.0,0.0,0.0,0.0,0.0,0.0,0.0,0.0,0.0,0.0,0.0,0.0,0.0,0.0,0.0,0.0,0.0,0.0,0.0,0.0,0.0,0.0,0.0,0.0,0.0,0.0,0.0,0.0,0.0,0.0,0.0,0.0,0.0,0.0,0.0,0.0,0.0,0.0,0.0,0.0,0.0,0.0,0.0,0.0,0.0,0.0,0.0,0.0,0.0,0.0,0.0,0.0,-2.9226,-3.3853,-3.7047,-3.8519,-3.7639,-3.4471,-3.1318,-2.63,-1.9134,0.0,0.0,0.0,0.0,0.0,0.0,0.0,0.0,0.0,0.0,0.0,0.0,0.0,0.0,0.0,0.0,0.0,0.0,0.0,0.0,0.0,0.0,0.0,0.0,0.0,0.0,0.0,0.0,0.0,0.0,0.0,0.0,0.0,0.0,0.0,0.0,0.0,0.0,0.7289,0.7429,0.0,0.0,0.0,0.0,0.0,0.0,0.0,0.0,0.7916,0.0,0.0,0.0,0.0,0.0,0.0,0.0,0.0,0.0,0.0,0.0,0.0,0.0,0.0,0.0,0.0,0.0,0.0,0.0,0.0,0.0,0.0,0.0,0.0,0.0,0.0,0.0,0.0,0.0,0.0,0.0,0.0,0.0,0.0,0.0,0.0,0.0,0.0,0.0,0.0,0.0,0.0,0.0,0.0,0.0,0.0,0.0,0.0,0.0,0.0,0.0,0.0,0.0,0.0,0.0,0.0,0.0,0.0,-3.0803,-3.4134,-3.5641,-3.514,-3.2711,-2.8763,-2.3798,0.0,0.0,0.0,0.0,0.0,0.0,0.0,0.0,0.0,0.0,0.0,0.0,0.0,0.0,0.0,0.0,0.0,0.0,0.0,0.0,0.0,0.0,0.0,0.0,0.0,0.0,0.0,0.0,0.0,0.0,0.0,0.0,0.0,0.0,0.0,0.0,0.0,0.0,0.0,0.0,0.0,0.0,0.0,0.0,0.0,0.0,0.0,0.0,0.0,0.0,0.0,0.0,0.0,0.0,0.0,0.0,0.0,0.0,0.0,0.0,0.0,0.0,0.0,0.0,0.0,0.0,0.0,0.0,0.0,0.0,0.0,0.0,0.0,0.0,0.0,0.0,0.0,0.0,0.0,0.0,0.0,0.0,0.0,0.0,0.0,0.0,0.0,0.0,0.0,0.0,0.0,0.0,0.0,0.0,0.0,0.0,0.0,0.0,0.0,0.0,0.0,0.0,0.0,0.0,0.0,0.0,0.0,0.0,-2.7873,-3.1392,-3.3091,-3.2973,-3.1044,-2.6551,-2.1723,0.0,0.0,0.0,0.0,0.0,0.0,0.0,0.0,0.0,0.0,0.0,0.0,0.0,0.0,0.0,0.0,0.0,0.0,0.0,0.0,0.0,0.0,0.0,0.0,0.0,0.0,0.0,0.0,0.0,0.0,0.0,0.0,0.0,0.0,0.0,0.0,0.0,0.0,0.0,0.0,0.0,0.0,0.0,0.0,0.0,0.0,0.0,0.0,0.7591,0.0,0.0,0.0,0.0,0.0,0.0,0.0,0.0,0.0,0.0,0.0,0.0,0.0,0.0,0.0,0.0,0.0,0.0,0.0,0.0,0.0,0.0,0.0,0.0,0.0,0.0,0.0,0.0,0.0,0.0,0.0,0.0,0.0,0.0,0.0,0.0,0.0,0.0,0.0,0.0,0.0,0.0,0.0,0.0,0.0,0.0,0.0,0.0,0.0,0.0,0.0,0.0,0.0,0.0,0.0,0.0,0.0,0.0,0.0,-2.6243,-2.9388,-3.1763,-3.1872,-2.9589,-2.5741,-2.1051,0.0,0.0,0.0,0.0,0.0,0.0,0.0,0.0,0.0,0.0,0.0,0.0,0.0,0.0,0.0,0.0,0.0,0.0,0.0,0.0,0.0,0.0,0.0,0.0,0.0,0.0,0.0,0.0,0.0,0.0,0.0,0.0,0.0,0.0,0.0,0.0,0.0,0.0,0.0,0.0,0.0,0.0,0.0,0.0,0.0,0.0,0.0,0.0,0.0,0.0,0.0,0.0,0.0,0.0,0.0,0.0,0.0,0.0,0.0,0.0,0.0,0.0,0.0,0.0,0.0,0.0,0.0,0.0,0.0,0.0,0.0,0.0,0.0,0.0,0.0,0.0,0.0,0.0,0.0,0.0,0.0,0.0,0.0,0.0,0.0,0.0,0.0,0.0,0.0,0.0,0.0,0.0,0.0,0.0,0.0,0.0,0.0,0.0,0.0,0.0,0.0,0.0,0.0,0.0,0.0,0.0,0.0,0.0,-2.2707,-2.661,-2.8872,-2.8937,-2.657,-2.3402,-1.9331,0.0,0.0,0.0,0.0,0.0,0.0,0.0,0.0,0.0,0.0,0.0,0.0,0.0,0.0,0.0,0.0,0.0,0.0,0.0,0.0,0.0,0.0,0.0,0.0,0.0,0.0,0.0,0.0,0.0,0.0,0.0,0.0,0.0,0.0,0.0,0.0,0.0,0.0,0.0,0.0,0.0,0.0,0.0,0.0,0.0,0.0,0.0,0.0,0.0,0.0,0.0,0.0,0.0,0.0,0.0,0.0,0.0,0.0,0.0,0.0,0.0,0.0,0.0,0.0,0.0,0.0,0.0,0.0,0.0,0.0,0.0,0.0,0.0,0.0,0.0,0.0,0.0,0.0,0.0,0.0,0.0,0.0,0.0,0.0,0.0,0.0,0.0,0.0,0.0,0.0,0.0,0.0,0.0,0.0,0.0,0.0,0.0,0.0,0.0,0.0,0.0,0.0,0.0,0.0,0.0,0.0,0.0,0.0,0.0,-2.3659,-2.5128,-2.4852,-2.2943,-2.0833,-1.7456,0.0,0.0,0.0,0.0,0.0,0.0,0.0,0.0,0.0,0.0,0.0,0.0,0.0,0.0,0.0,0.0,0.0,0.0,0.0,0.0,0.0,0.0,0.0,0.0,0.0,0.0,0.0,0.0,0.0,0.0,0.0,0.0,0.0,0.0,0.0,0.0,0.0,0.0,0.0,0.0,0.0,0.0,0.0,0.0,0.0,0.0,0.0,0.0,0.0,0.0,0.0,0.0,0.0,0.0,0.0,0.0,0.0,0.0,0.0,0.0,0.0,0.0,0.0,0.0,0.0,0.0,0.0,0.0,0.0,0.0,0.0,0.0,0.0,0.0,0.0,0.0,0.0,0.0,0.0,0.0,0.0,0.0,0.0,0.0,0.0,0.0,0.0,0.0,0.0,0.0,0.0,0.0,0.0,0.0,0.0,0.0,0.0,0.0,0.0,0.0,0.0,0.0,0.0,0.0,0.0,0.0,0.0,0.0,0.0,-2.0937,-2.045,-1.9682,-1.8853,-1.8048,-1.5461,0.0,0.0,0.0,0.0,0.0,0.0,0.0,0.0,0.0,0.0,0.0,0.0,0.0,0.0,0.0,0.0,0.0,0.0,0.0,0.0,0.0,0.0,0.0,0.0,0.0,0.0,0.0,0.0,0.0,0.0,0.0,0.0,0.0,0.0,0.0,0.0,0.0,0.0,0.0,0.0,0.0,0.0,0.0,0.0,0.0,0.0,0.0,0.0,0.0,0.0,0.0,0.0,0.0,0.0,0.0,0.0,0.0,0.0,0.0,0.0,0.0,0.0,0.0,0.0,0.0,0.0,0.0,0.0,0.0,0.0,0.0,0.0,0.0,0.0,0.0,0.0,0.0,0.0,0.0,0.0,0.0,0.0,0.0,0.0,0.0,0.0,0.0,0.0,0.0,0.0,0.0,0.0,0.0,0.0,0.0,0.0,0.0,0.0,0.0,0.0,0.0,0.0,0.0,0.0,0.0,0.0,0.0,0.0,0.0,-1.5745,-1.6323,-1.6611,-1.6634,-1.5323,-1.3016,-0.9757,0.0,0.0,0.0,0.0,0.0,0.0,0.0,0.0,0.0,0.0,0.0,0.0,0.0,0.0,0.0,0.0,0.0,0.0,0.0,0.0,0.0,0.0,0.0,0.0,0.0,0.0,0.0,0.0,0.0,0.0,0.0,0.0,0.0,0.0,0.0,0.0,0.0,0.0,0.0,0.0,0.0,0.0,0.0,0.0,0.0,0.0,0.0,0.0,0.0,0.0,0.0,0.0,0.0,0.0,0.0,0.0,0.0,0.0,0.0,0.0,0.0,0.0,0.0,0.0,0.0,0.0,0.0,0.0,0.0,0.0,0.0,0.0,0.0,0.0,0.0,0.0,0.0,0.0,0.0,0.0,0.0,0.0,0.0,0.0,0.0,0.0,0.0,0.0,0.0,0.0,0.0,0.0,0.0,0.0,0.0,0.0,0.0,0.0,0.0,0.0,0.0,0.0,0.0,0.0,0.0,0.0,0.0,0.0,-1.1376,-1.2588,-1.3317,-1.345,-1.224,-1.0578,0.0,0.0,0.0,0.0,0.0,0.0,0.0,0.0,0.0,0.0,0.0,0.0,0.0,0.0,0.0,0.0,0.0,0.0,0.0,0.0,0.0,0.0,0.0,0.0,0.0,0.0,0.0,0.0,0.0,0.0,0.0,0.0,0.0,0.0,0.0,0.0,0.0,0.0,0.0,0.0,0.0,0.0,0.0,0.0,0.0,0.0,0.0,0.0,0.0,0.0,0.0,0.0,0.0,0.0,0.0,0.0,0.0,0.0,0.0,0.0,0.0,0.0,0.0,0.0,0.0,0.0,0.0,0.0,0.0,0.0,0.0,0.0,0.0,0.0,0.0,0.0,0.0,0.0,0.0,0.0,0.0,0.0,0.0,0.0,0.0,0.0,0.0,0.0,0.0,0.0,0.0,0.0,0.0,0.0,0.0,0.0,0.0,0.0,0.0,0.0,0.0,0.0,0.0,0.0,0.0,0.0,0.0,0.0,-0.7485,-0.8225,-0.9329,-0.9695,-0.9062,-0.8959,-0.816,0.0,0.0,0.0,0.0,0.0,0.0,0.0,0.0,0.0,0.0,0.0,0.0,0.0,0.0,0.0,0.0,0.0,0.0,0.0,0.0,0.0,0.0,0.0,0.0,0.0,0.0,0.0,0.0,0.0,0.0,0.0,0.0,0.0,0.0,0.0,0.0,0.0,0.0,0.0,0.0,0.0,0.0,0.0,0.0,0.0,0.0,0.0,0.0,0.0,0.0,0.0,0.0,0.0,0.0,0.0,0.0,0.0,0.0,0.0,0.0,0.0,0.0,0.0,0.0,0.0,0.0,0.0,0.0,0.0,0.0,0.0,0.0,0.0,0.0,0.0,0.0,0.0,0.0,0.0,0.0,0.0,0.0,0.0,0.0,0.0,0.0,0.0,0.0,0.0,0.0,0.0,0.0,0.0,0.0,0.0,0.0,0.0,0.0,0.0,0.0,0.0,0.0,0.0,0.0,0.0,0.0,0.0,0.0,0.0,-0.7911,0.0,-0.8545,-0.8381,-0.7958,-0.7364,0.0,0.0,0.0,0.0,0.0,0.0,0.0,0.0,0.0,0.0,0.0,0.0,0.0,0.0,0.0,0.0,0.0,0.0,0.0,0.0,0.0,0.0,0.0,0.0,0.0,0.0,0.0,0.0,0.0,0.0,0.0,0.0,0.0,0.0,0.0,0.0,0.0,0.0,0.0,0.0,0.0,0.0,0.0,0.0,0.0,0.0,0.0,0.0,0.0,0.0,0.0,0.0,0.0,0.0,0.0,0.0,0.0,0.0,0.0,0.0,0.0,0.0,0.0,0.0,0.0,0.0,0.0,0.0,0.0,0.0,0.0,0.0,0.0,0.0,0.0,0.0,0.0,0.0,0.0,0.0,0.0,0.0,0.0,0.0,0.0,0.0,0.0,0.0,0.0,0.0,0.0,0.0,0.0,0.0,0.0,0.0,0.0,0.0,0.0,0.0,0.0,0.0,0.0,0.0,0.0,0.0,0.0,0.0,0.0,-0.7769,-0.7823,-0.7712,-0.7521,-0.716,-0.6792,0.0,0.0,0.0,0.0,0.0,0.0,0.0,0.0,0.0,0.0,0.0,0.0,0.0,0.0,0.0,0.0,0.0,0.0,0.0,0.0,0.0,0.0,0.0,0.0,0.0,0.0,0.0,0.0,0.0,0.0,0.0,0.0,0.0,0.0,0.0,0.0,0.0,0.0,0.0,0.0,0.0,0.0,0.0,0.0,0.0,0.0,0.0,0.0,0.0,0.0,0.0,0.0,0.0,0.0,0.0,0.0,0.0,0.0,0.0,0.0,0.0,0.0,0.0,0.0,0.0,0.0,0.0,0.0,0.0,0.0,0.0,0.0,0.0,0.0,0.0,0.0,0.0,0.0,0.0,0.0,0.0,0.0,0.0,0.0,0.0,0.0,0.0,0.0,0.0,0.0,0.0,0.0,0.0,0.0,0.0,0.0,0.0,0.0,0.0,0.0,0.0,0.0,0.0,0.0,0.0,0.0,0.0,0.0,0.0,-0.7847,-0.7442,-0.7007,-0.6547,-0.6469,-0.6469,0.0,0.0,0.0,0.0,0.0,0.0,0.0,0.0,0.0,0.0,0.0,0.0,0.0,0.0,0.0,0.0,0.0,0.0,0.0,0.0,0.0,0.0,0.0,0.0,0.0,0.0,0.0,0.0,0.0,0.0,0.0,0.0,0.0,0.0,0.0,0.0,0.0,0.0,0.0,0.0,0.0,0.0,0.0,0.0,0.0,0.0,0.0,0.0,0.0,0.0,0.0,0.0,0.0,0.0,0.0,0.0,0.0,0.0,0.0,0.0,0.0,0.0,0.0,0.0,0.0,0.0,0.0,0.0,0.0,0.0,0.0,0.0,0.0,0.0,0.0,0.0,0.0,0.0,0.0,0.0,0.0,0.0,0.0,0.0,0.0,0.0,0.0,0.0,0.0,0.0,0.0,0.0,0.0,0.0,0.0,0.0,0.0,0.0,0.0,0.0,0.0,0.0,0.0,0.0,0.0,0.0,0.0,0.0,0.0,0.0,-0.8178,-0.7838,-0.7412,-0.7325,-0.7265,-0.7265,0.0,0.0,0.0,0.0,0.0,0.0,0.0,0.0,0.0,0.0,0.0,0.0,0.0,0.0,0.0,0.0,0.0,0.0,0.0,0.0,0.0,0.0,0.0,0.0,0.0,0.0,0.0,0.0,0.0,0.0,0.0,0.0,0.0,0.0,0.0,0.0,0.0,0.0,0.0,0.0,0.0,0.0,0.0,0.0,0.0,0.0,0.0,0.0,0.0,0.0,0.0,0.0,0.0,0.0,0.0,0.0,0.0,0.0,0.0,0.0,0.0,0.0,0.0,0.0,0.0,0.0,0.0,0.0,0.0,0.0,0.0,0.0,0.0,0.0,0.0,0.0,0.0,0.0,0.0,0.0,0.0,0.0,0.0,0.0,0.0,0.0,0.0,0.0,0.0,0.0,0.0,0.0,0.0,0.0,0.0,0.0,0.0,0.0,0.0,0.0,0.0,0.0,0.0,0.0,0.0,0.0,0.0,0.0,0.0,0.0,-0.8475,-0.8171,-0.7992,-0.7868,0.0,0.0,0.0,0.0,0.0,0.0,0.0,0.0,0.0,0.0,0.0,0.0,0.0,0.0,0.0,0.0,0.0,0.0,0.0,0.0,0.0,0.0,0.0,0.0,0.0,0.0,0.0,0.0,0.0,0.0,0.0,0.0,0.0,0.0,0.0,0.0,0.0,0.0,0.0,0.0,0.0,0.0,0.0,0.0,0.0,0.0,0.0,0.0,0.0,0.0,0.0,0.0,0.0,0.0,0.0,0.0,0.0,0.0,0.0,0.0,0.0,0.0,0.0,0.0,0.0,0.0,0.0,0.0,0.0,0.0,0.0,0.0,0.0,0.0,0.0,0.0,0.0,0.0,0.0,0.0,0.0,0.0,0.0,0.0,0.0,0.0,0.0,0.0,0.0,0.0,0.0,0.0,0.0,0.0,0.0,0.0,0.0,0.0,0.0,0.0,0.0,0.0,0.0,0.0,0.0,0.0,0.0,0.0,0.0,0.0,0.0,-0.895,-0.8818,-0.8561,0.0,-0.8467,0.0,0.0,0.0,0.0,0.0,0.0,0.0,0.0,0.0,0.0,0.0,0.0,0.0,0.0,0.0,0.0,0.0,0.0,0.0,0.0,0.0,0.0,0.0,0.0,0.0,0.0,0.0,0.0,0.0,0.0,0.0,0.0,0.0,0.0,0.0,0.0,0.0,0.0,0.0,0.0,0.0,0.0,0.0,0.0,0.0,0.0,0.0,0.0,0.0,0.0,0.0,0.0,0.0,0.0,0.0,0.0,0.0,0.0,0.0,0.0,0.0,0.0,0.0,0.0,0.0,0.0,0.0,0.0,0.0,0.0,0.0,0.0,0.0,0.0,0.0,0.0,0.0,0.0,0.0,0.0,0.0,0.0,0.0,0.0,0.0,0.0,0.0,0.0,0.0,0.0,0.0,0.0,0.0,0.0,0.0,0.0,0.0,0.0,0.0,0.0,0.0,0.0,0.0,0.0,0.0,0.0,0.0,0.0,0.0,0.0,0.0,0.0,-0.9184,-0.9124,-0.9105,0.0,0.0,0.0,0.0,0.0,0.0,0.0,0.0,0.0,0.0,0.0,0.0,0.0,0.0,0.0,0.0,0.0,0.0,0.0,0.0,0.0,0.0,0.0,0.0,0.0,0.0,0.0,0.0,0.0,0.0,0.0,0.0,0.0,0.0,0.0,0.0,0.0,0.0,0.0,0.0,0.0,0.0,0.0,0.0,0.0,0.0,0.0,0.0,0.0,0.0,0.0,0.0,0.0,0.0,0.0,0.0,0.0,0.0,0.0,0.0,0.0,0.0,0.0,0.0,0.0,0.0,0.0,0.0,0.0,0.0,0.0,0.0,0.0,0.0,0.0,0.0,0.0,0.0,0.0,0.0,0.0,0.0,0.0,0.0,0.0,0.0,0.0,0.0,0.0,0.0,0.0,0.0,0.0,0.0,0.0,0.0,0.0,0.0,0.0,0.0,0.0,0.0,0.0,0.0,0.0,0.0,0.0,0.0,0.0,0.0,-0.9777,-0.972,-0.9643,-0.9602,-0.9584,0.0,0.0,0.0,0.0,0.0,0.0,0.0,0.0,0.0,0.0,0.0,0.0,0.0,0.0,0.0,0.0,0.0,0.0,0.0,0.0,0.0,0.0,0.0,0.0,0.0,0.0,0.0,0.0,0.0,0.0,0.0,0.0,0.0,0.0,0.0,0.0,0.0,0.0,0.0,0.0,0.0,0.0,0.0,0.0,0.0,0.0,0.0,0.0,0.0,0.0,0.0,0.0,0.0,0.0,0.0,0.0,0.0,0.0,0.0,0.0,0.0,0.0,0.0,0.0,0.0,0.0,0.0,0.0,0.0,0.0,0.0,0.0,0.0,0.0,0.0,0.0,0.0,0.0,0.0,0.0,0.0,0.0,0.0,0.0,0.0,0.0,0.0,0.0,0.0,0.0,0.0,0.0,0.0,0.0,0.0,0.0,0.0,0.0,0.0,0.0,0.0,0.0,0.0,0.0,0.0,0.0,0.0,0.0,0.0,0.0,0.0,0.0,0.0,0.0,-1.0004,0.0,0.0,0.0,0.0,0.0,0.0,0.0,0.0,0.0,0.0,0.0,0.0,0.0,0.0,0.0,0.0,0.0,0.0,0.0,0.0,0.0,0.0,0.0,0.0,0.0,0.0,0.0,0.0,0.0,0.0,0.0,0.0,0.0,0.0,0.0,0.0,0.0,0.0,0.0,0.0,0.0,0.0,0.0,0.0,0.0,0.0,0.0,0.0,0.0,0.0,0.0,0.0,0.0,0.0,0.0,0.0,0.0,0.0,0.0,0.0,0.0,0.0,0.0,0.0,0.0,0.0,0.0,0.0,0.0,0.0,0.0,0.0,0.0,0.0,0.0,0.0,0.0,0.0,0.0,0.0,0.0,0.0,0.0,0.0,0.0,0.0,0.0,0.0,0.0,0.0,0.0,0.0,0.0,0.0,0.0,0.0,0.0,0.0,0.0,0.0,0.0,0.0,0.0,0.0,0.0,0.0,0.0,0.0,0.0,0.0,0.0,0.0,0.0,0.0,0.0,0.0,0.0,0.0,0.0,0.0,0.0,0.0,0.0,0.0,0.0,0.0,0.0,0.0,0.0,0.0,0.0,0.0,0.0,0.0,0.0,0.0,0.0,0.0,0.0,0.0,0.0,0.0,0.0,0.0,0.0,0.0,0.0,0.0,0.0,0.0,0.0,0.0,0.0,0.0,0.0,0.0,0.0,0.0,0.0,0.0,0.0,0.0,0.0,0.0,0.0,0.0,0.0,0.0,0.0,0.0,0.0,0.0,0.0,0.0,0.0,0.0,0.0,0.0,0.0,0.0,0.0,0.0,0.0,0.0,0.0,0.0,0.0,0.0,0.0,0.0,0.0,0.0,0.0,0.0,0.0,0.0,0.0,0.0,0.0,0.0,0.0,0.0,0.0,0.0,0.0,0.0,0.0,0.0,0.0,0.0,0.0,0.0,0.0,0.0,0.0,0.0,0.0,0.0,0.0,0.0,0.0,0.0,0.0,0.0,0.0,0.0,0.0,0.0,0.0,0.0,0.0,0.0,0.0,0.0,0.0,0.0,0.0,0.0,0.0,0.0,0.0,0.0,0.0,0.0,0.0,0.0,0.0,0.0,0.0,0.0,0.0,0.0,0.0,0.0,0.0,0.0,0.0,0.0,0.0,0.0,0.0,0.0,0.0,0.0,0.0,0.0,0.0,0.0,0.0,0.0,0.0,0.0,0.0,0.0,0.0,0.0,0.0,0.0,0.0,0.0,0.0,0.0,0.0,0.0,0.0,0.0,0.0,0.0,0.0,0.0,0.0,0.0,0.0,0.0,0.0,0.0,0.0,0.0,0.0,0.0,0.0,0.0,0.0,0.0,0.0,0.0,0.0,0.0,0.0,0.0,0.0,0.0,0.0,0.0,0.0,0.0,0.0,0.0,0.0,0.0,0.0,0.0,0.0,0.0,0.0,0.0,0.0,0.0,0.0,0.0,0.0,0.0,0.0,0.0,0.0,0.0,0.0,0.0,0.0,0.0,0.0,0.0,0.0,0.0,0.0,0.0,0.0,0.0,0.0,0.0,0.0,0.0,0.0,0.0,0.0,0.0,0.0,0.0,0.0,0.0,0.0,0.0,0.0,0.0,0.0,0.0,0.0,0.0,0.0,0.0,0.0,0.0,0.0,0.0,0.0,0.0,0.0,0.0,0.0,0.0,0.0,0.0,0.0,0.0,0.0,0.0,0.0,0.0,0.0,0.0,0.0,0.0,0.0,0.0,0.0,0.0,0.0,0.0,0.0,0.0,0.0,0.0,0.0,0.0,0.0,0.0,0.0,0.0,0.0,0.0,0.0,0.0,0.0,0.0,0.0,0.0,0.0,0.0,0.0,0.0,0.0,0.0,0.0,0.0,0.0,0.0,0.0,0.0,0.0,0.0,0.0,0.0,0.0,0.0,0.0,0.0,0.0,0.0,0.0,0.0,0.0,0.0,0.0,0.0,0.0,0.0,0.0,0.0,0.0,0.0,0.0,0.0,0.0,0.0,0.0,0.0,0.0,0.0,0.0,0.0,0.0,0.0,0.0,0.0,0.0,0.0,0.0,0.0,0.0,0.0,0.0,0.0,0.0,0.0,0.0,0.0,0.0,0.0,0.0,0.0,0.0,0.0,0.0,0.0,0.0,0.0,0.0,0.0,0.0,0.0,0.0,0.0,0.0,0.0,0.0,0.0,0.0,0.0,0.0,0.0,0.0,0.0,0.0,0.0,0.0,0.0,0.0,0.0,0.0,0.0,0.0,0.0,0.0,0.0,0.0,0.0,0.0,0.0,0.0,0.0,0.0,0.0,0.0,0.0,0.0,0.0,0.0,0.0,0.0,0.0,0.0,0.0,0.0,0.0,0.0,0.0,0.0,0.0,0.0,0.0,0.0,0.0,0.0,0.0,0.0,0.0,0.0,0.0,0.0,0.0,0.0,0.0,0.0,0.0,0.0,0.0,0.0,0.0,0.0,0.0,0.0,0.0,0.0,0.0,0.0,0.0,0.0,0.0,0.0,0.0,0.0,0.0,0.0,0.0,0.0,0.0,0.0,0.0,0.0,0.0,0.0,0.0,0.0,0.0,0.0,0.0,0.0,0.0,0.0,0.0,0.0,0.0,0.0,0.0,0.0,0.0,0.0,0.0,0.0,0.0,0.0,0.0,0.0,0.0,0.0,0.0,0.0,0.0,0.0,0.0,0.0,0.0,0.0,0.0,0.0,0.0,0.0,0.0,0.0,0.0,0.0,0.0,0.0,0.0,0.0,0.0,0.0,0.0,0.0,0.0,0.0,0.0,0.0,0.0,0.0,0.0,0.0,0.0,0.0,0.0,0.0,0.0,0.0,0.0,0.0,0.0,0.0,0.0,0.0,0.0,0.0,0.0,0.0,0.0,0.0,0.0,0.0,0.0,0.0,0.0,0.0,0.0,0.0,0.0,0.0,0.0,0.0,0.0,0.0,0.0,0.0,0.0,0.0,0.0,0.0,0.0,0.0,0.0,0.0,0.0,0.0,0.0,0.0,0.0,0.0,0.0,0.0,0.0,0.0,0.0,0.0,0.0,0.0,0.0,0.0,0.0,0.0,0.0,0.0,0.0,0.0,0.0,0.0,0.0,0.0,0.0,0.0,0.0,0.0,0.0,0.0,0.0,0.0,0.0,0.0,0.0,0.0,0.0,0.0,0.0,0.0,0.0,0.0,0.0,0.0,0.0,0.0,0.0,0.0,0.0,0.0,0.0,0.0,0.0,0.0,0.0,0.0,0.0,0.0,0.0,0.0,0.0,0.0,0.0,0.0,0.0,0.0,0.0,0.0,0.0,0.0,0.0,0.0,0.0,0.0,0.0,0.0,0.0,0.0,0.0,0.0,0.0,0.0,0.0,0.0,0.0,0.0,0.0,0.0,0.0,0.0,0.0,0.0,0.0,0.0,0.0,0.0,0.0,0.0,0.0,0.0,0.0,0.0,0.0,0.0,0.0,0.0,0.0,0.0,0.0,0.0,0.0,0.0,0.0,0.0,0.0,0.0,0.0,0.0,0.0,0.0,0.0,0.0,0.0,0.0,0.0,0.0,0.0,0.0,0.0,0.0,0.0,0.0,0.0,0.0,0.0,0.0,0.0,0.0,0.0,0.0,0.0,0.0,0.0,0.0,0.0,0.0,0.0,0.0,0.0,0.0,0.0,0.0,0.0,0.0,0.0,0.0,0.0,0.0,0.0,0.0,0.0,0.0,0.0,0.0,0.0,0.0,0.0,0.0,0.0,0.0,0.0,0.0,0.0,0.0,0.0,0.0,0.0,0.0,0.0,0.0,0.0,0.0,0.0,0.0,0.0,0.0,0.0,0.0,0.0,0.0,0.0,0.0,0.0,0.0,0.0,0.0,0.0,0.0,0.0,0.0,0.0,0.0,0.0,0.0,0.0,0.0,0.0,0.0,0.0,0.0,0.0,0.0,0.0,0.0,0.0,0.0,0.0,0.0,0.0,0.0,0.0,0.0,0.0,0.0,0.0,0.0,0.0,0.0,0.0,0.0,0.0,0.0,0.0,0.0,0.0,0.0,0.0,0.0,0.0,0.0,0.0,0.0,0.0,0.0,0.0,0.0,0.0,0.0,0.0,0.0,0.0,0.0,0.0,0.0,0.0,0.0,0.0,0.0,0.0,0.0,0.0,0.0,0.0,0.0,0.0,0.0,0.0,0.0,0.0,0.0,0.0,0.0,0.0,0.0,0.0,0.0,0.0,0.0,0.0,0.0,0.0,0.0,0.0,0.0,0.0,0.0,0.0,0.0,0.0,0.0,0.0,0.0,0.0,0.0,0.0,0.0,0.0,0.0,0.0,0.0,0.0,0.0,0.0,0.0,0.0,0.0,0.0]}],[{"header":{"parameterUnit":"kt","parameterCategory":2,"dx":1,"dy":1,"la1":29.587661999999998,"la2":31.0,"lo1":-88.76705300000003,"lo2":-86.6583820000003,"nx":115,"ny":88,"refTime":"2022-10-10T12:00:00:Z","depth":0,"parameterNumber":2,"parameterNumberName":"V-component_of_WINDS"},"data":[8.3559,8.3559,8.3559,8.386,8.4375,8.5234,8.6299,8.7432,8.9378,9.0907,9.1986,9.3302,9.4212,9.4324,9.5057,9.6425,9.7836,9.8762,9.9066,9.9341,9.9461,9.9461,9.9581,9.9523,9.8883,9.7749,9.644,9.5161,9.359,9.2485,9.1962,9.1962,9.1962,9.1962,9.1962,9.1962,9.1962,9.1962,9.1962,9.1932,9.1932,9.2046,9.2214,9.2268,9.2406,9.2905,9.34,9.3564,9.4075,9.501,9.6395,9.815,9.9554,10.0844,10.1953,10.2736,10.3569,10.38,10.3931,10.403,10.403,10.403,10.403,10.403,10.403,10.403,10.403,10.403,10.403,10.403,10.403,10.403,10.403,10.403,10.403,10.403,10.403,10.403,10.403,10.403,10.403,10.3997,10.4029,10.4029,10.4128,10.416,10.4353,10.4353,10.4546,10.4959,10.5429,10.5889,10.6349,10.6529,10.6649,10.7114,10.7521,10.8204,10.8977,11.0003,11.0947,11.1696,11.2236,11.2374,11.2511,11.2611,11.2656,11.2691,11.2656,11.2879,11.4163,11.5376,11.6732,11.8337,12.0014,8.3559,8.3559,8.3559,8.3643,8.3727,8.4351,8.5045,8.5924,8.7353,8.8759,8.9633,8.9609,9.0656,9.2239,9.3723,9.5278,9.6709,9.7743,9.8578,9.8854,9.9249,9.9461,9.9461,9.9581,9.9378,9.8505,9.7138,9.5626,9.4085,9.2892,9.2165,9.1991,9.1962,9.1962,9.1962,9.1962,9.1962,9.1962,9.1962,9.1962,9.1962,9.1962,9.2046,9.1962,9.2046,9.2268,9.2519,9.2851,9.2988,9.3942,9.504,9.6782,9.83,9.9916,10.1087,10.2364,10.3171,10.3701,10.3931,10.403,10.403,10.403,10.403,10.403,10.403,10.403,10.403,10.403,10.403,10.403,10.403,10.403,10.403,10.403,10.403,10.403,10.403,10.403,10.403,10.403,10.403,10.403,10.3997,10.3997,10.3997,10.3997,10.4029,10.4062,10.416,10.4546,10.4833,10.5149,10.5433,10.5524,10.5615,10.595,10.6254,10.6971,10.7807,10.8997,11.0106,11.0898,11.1553,11.2003,11.2328,11.2384,11.2475,11.2646,11.2656,11.2701,11.3771,11.477,11.6054,11.7231,11.8944,8.3559,8.3559,8.3559,8.3559,8.3643,8.4159,8.4483,8.5045,8.6218,8.6802,8.6645,8.7432,8.8449,9.0042,9.1612,9.3302,9.5154,9.6586,9.7462,9.8329,9.8791,9.9158,9.9461,9.9581,9.949,9.9465,9.8127,9.6702,9.516,9.3677,9.2456,9.202,9.1962,9.1962,9.1962,9.1962,9.1962,9.1962,9.1962,9.1962,9.1962,9.1962,9.1962,9.1962,9.1962,9.2046,9.2214,9.2297,9.2352,9.2822,9.3534,9.5089,9.7242,9.8968,10.0592,10.1921,10.2938,10.3602,10.3866,10.403,10.403,10.403,10.403,10.403,10.403,10.403,10.403,10.403,10.403,10.403,10.403,10.403,10.403,10.403,10.403,10.403,10.403,10.403,10.403,10.403,10.403,10.403,10.403,10.403,10.403,10.3997,10.3997,10.3997,10.3997,10.4257,10.4322,10.4451,10.4548,10.4579,10.4833,10.5086,10.5274,10.5861,10.6555,10.7602,10.8614,10.9742,11.0933,11.1588,11.2003,11.2154,11.2384,11.2566,11.2656,11.2701,11.3414,11.4163,11.5009,11.6044,11.6732,8.3559,8.3559,8.3559,8.3559,8.3643,8.4051,8.4135,8.4267,8.5152,8.5127,8.4698,8.5743,8.7012,8.8293,8.9761,9.1458,9.3374,9.4836,9.6263,9.7209,9.8172,9.8635,9.9187,9.9278,9.937,9.949,9.9261,9.8185,9.6237,9.4579,9.327,9.2543,9.1962,9.1962,9.1962,9.1962,9.1962,9.1962,9.1962,9.1962,9.1962,9.1962,9.1962,9.1962,9.1962,9.1962,9.1962,9.1962,9.1962,9.2046,9.2352,9.3831,9.6162,9.815,9.9988,10.1714,10.2736,10.3404,10.38,10.403,10.403,10.403,10.403,10.403,10.403,10.403,10.403,10.403,10.403,10.403,10.403,10.403,10.403,10.403,10.403,10.403,10.403,10.403,10.403,10.403,10.403,10.403,10.403,10.403,10.403,10.403,10.403,10.3997,10.3997,10.3997,10.4128,10.4128,10.4062,10.4062,10.4225,10.4515,10.4738,10.5212,10.5677,10.6315,10.703,10.7887,10.8799,11.0208,11.1684,11.1921,11.2154,11.2475,11.2656,11.2701,11.3164,11.3414,11.4199,11.4627,11.4581,8.3559,8.3559,8.3559,8.3559,8.3559,8.3643,8.3643,8.3643,8.386,8.3943,8.4351,8.4566,8.5636,8.6907,8.8111,8.9607,9.123,9.3051,9.4546,9.5977,9.6927,9.7986,9.8606,9.8883,9.9187,9.9461,9.9349,9.8854,9.7167,9.5597,9.4317,9.3677,9.2689,9.2049,9.202,9.1962,9.1962,9.1962,9.1962,9.1962,9.1962,9.1962,9.1962,9.1962,9.1962,9.1962,9.1962,9.1962,9.1962,9.2017,9.2352,9.2905,9.493,9.6828,9.9199,10.0914,10.2296,10.3104,10.38,10.403,10.403,10.403,10.403,10.403,10.403,10.403,10.403,10.403,10.403,10.403,10.403,10.403,10.403,10.403,10.403,10.403,10.403,10.403,10.403,10.403,10.403,10.403,10.403,10.403,10.403,10.403,10.403,10.403,10.3997,10.3997,10.3997,10.3997,10.403,10.3997,10.4128,10.416,10.4322,10.4515,10.4833,10.5429,10.6045,10.6435,10.676,10.8888,11.0968,11.136,11.1979,11.243,11.2701,11.2701,11.2736,11.2843,11.2915,11.3164,11.3307,8.3559,8.3559,8.3559,8.3559,8.3559,8.3559,8.3559,8.3559,8.3559,8.3643,8.3968,8.4243,8.4673,8.5555,8.6591,8.7825,8.9146,9.0955,9.2754,9.4254,9.573,9.6993,9.8144,9.8699,9.8975,9.937,9.9465,9.9171,9.8593,9.6964,9.5044,9.4085,9.3532,9.2718,9.2165,9.1962,9.1962,9.1962,9.1962,9.1962,9.1962,9.1962,9.1962,9.1962,9.1962,9.1962,9.1962,9.1962,9.1962,9.2046,9.2017,9.2602,9.3861,9.5377,9.7454,10.067,10.1953,10.2903,10.3767,10.3931,10.403,10.403,10.403,10.403,10.403,10.403,10.403,10.403,10.403,10.403,10.403,10.403,10.403,10.403,10.403,10.403,10.403,10.403,10.403,10.403,10.403,10.403,10.403,10.403,10.403,10.403,10.403,10.403,10.403,10.403,10.403,10.403,10.403,10.403,10.403,10.4062,10.4128,10.4225,10.4515,10.4802,10.5149,10.5738,10.6495,10.8169,11.0124,11.1116,11.1921,11.2338,11.2701,11.2701,11.2736,11.2772,11.2772,11.2701,11.2736,8.3559,8.3559,8.3559,8.3559,8.3559,8.3559,8.3559,8.3559,8.3559,8.3559,8.3643,8.3943,8.4135,8.4267,8.5152,8.6087,8.7327,8.8733,9.0651,9.2357,9.3989,9.5758,9.7115,9.7958,9.8699,9.9095,9.9461,9.9494,9.9142,9.8796,9.6848,9.4666,9.3997,9.3009,9.2369,9.1962,9.1962,9.1962,9.1962,9.1962,9.1962,9.1962,9.1962,9.1962,9.1962,9.1962,9.1962,9.1962,9.1962,9.1962,9.1962,9.2352,9.3235,9.4368,9.6132,9.974,10.1576,10.2668,10.3602,10.3931,10.403,10.403,10.403,10.403,10.403,10.403,10.403,10.403,10.403,10.403,10.403,10.403,10.403,10.403,10.403,10.403,10.403,10.403,10.403,10.403,10.403,10.403,10.403,10.403,10.403,10.403,10.403,10.403,10.403,10.403,10.403,10.403,10.403,10.403,10.403,10.403,10.403,10.3997,10.416,10.4451,10.4959,10.5553,10.6254,10.7636,10.9548,11.0769,11.1779,11.2292,11.2701,11.2701,11.2701,11.2701,11.2701,11.2701,11.2736,8.3559,8.3559,8.3559,8.3559,8.3559,8.3559,8.3559,8.3559,8.3559,8.3559,8.3559,8.3643,8.3751,8.3751,8.4159,8.4938,8.5818,8.7038,8.8733,9.0347,9.2085,9.3989,9.5566,9.6927,9.7864,9.8606,9.9158,9.937,9.9461,9.9112,9.804,9.6179,9.487,9.3532,9.2572,9.2078,9.1962,9.1962,9.1962,9.1962,9.1962,9.1962,9.1962,9.1962,9.1962,9.1962,9.1962,9.1962,9.1962,9.1962,9.1962,9.2519,9.3235,9.3994,9.5644,9.7894,10.067,10.2159,10.3337,10.3866,10.3931,10.403,10.403,10.403,10.403,10.403,10.403,10.403,10.403,10.403,10.403,10.403,10.403,10.403,10.403,10.403,10.403,10.403,10.403,10.403,10.403,10.403,10.403,10.403,10.403,10.403,10.403,10.403,10.403,10.403,10.403,10.403,10.403,10.403,10.403,10.403,10.403,10.3997,10.4095,10.4451,10.4959,10.5519,10.6555,10.7784,10.9262,11.0501,11.1588,11.2246,11.2611,11.2701,11.2701,11.2701,11.2701,11.2701,11.2701,8.3559,8.3559,8.3559,8.3559,8.3559,8.3559,8.3559,8.3559,8.3559,8.3559,8.3559,8.3559,8.3559,8.3643,8.3835,8.4209,8.483,8.5793,8.7038,8.8656,9.0272,9.2158,9.4059,9.5634,9.6709,9.7864,9.8514,9.8975,9.9003,9.937,9.8851,9.766,9.6296,9.4579,9.327,9.234,9.1962,9.1962,9.1962,9.1962,9.1962,9.1962,9.1962,9.1962,9.1962,9.1962,9.1962,9.1962,9.1962,9.1962,9.2046,9.2297,9.2905,9.3861,9.5199,9.689,9.9335,10.1437,10.297,10.3701,10.3931,10.3931,10.403,10.403,10.403,10.403,10.403,10.403,10.403,10.403,10.403,10.403,10.403,10.403,10.403,10.403,10.403,10.403,10.403,10.403,10.403,10.403,10.403,10.403,10.403,10.403,10.403,10.403,10.403,10.403,10.403,10.403,10.403,10.403,10.403,10.403,10.3997,10.3997,10.4257,10.4577,10.5082,10.5978,10.6996,10.8125,10.9583,11.0789,11.1588,11.2154,11.2556,11.2736,11.2701,11.2701,11.2701,11.2701,11.2701,8.3559,8.3559,8.3559,8.3559,8.3559,8.3559,8.3559,8.3559,8.3559,8.3559,8.3559,8.3559,8.3559,8.3559,8.3667,8.3751,8.4159,8.4748,8.5523,8.7012,8.8552,9.0448,9.2231,9.3962,9.547,9.6548,9.7491,9.8022,9.8236,9.845,9.882,9.8872,9.7074,9.5625,9.4261,9.272,9.1962,9.1962,9.1962,9.1962,9.1962,9.1962,9.1962,9.1962,9.1962,9.1962,9.1962,9.1962,9.1962,9.1962,9.1962,9.2214,9.2685,9.3564,9.491,9.6534,9.8256,10.056,10.226,10.347,10.38,10.3833,10.3866,10.403,10.403,10.403,10.403,10.403,10.403,10.403,10.403,10.403,10.403,10.403,10.403,10.403,10.403,10.403,10.403,10.403,10.403,10.403,10.403,10.403,10.403,10.403,10.403,10.403,10.403,10.403,10.403,10.403,10.403,10.403,10.403,10.403,10.3997,10.416,10.4482,10.4863,10.5671,10.6548,10.7602,10.8813,11.0003,11.1088,11.1684,11.2246,11.2556,11.2736,11.2701,11.2701,11.2701,11.2701,11.2701,8.3559,8.3559,8.3559,8.3559,8.3559,8.3559,8.3559,8.3559,8.3559,8.3559,8.3559,8.3559,8.3559,8.3559,8.3559,8.3667,8.386,8.4159,8.4805,8.5686,8.7012,8.8526,9.0347,9.2059,9.357,9.4892,9.5854,9.6615,9.7172,9.7332,9.7893,9.7869,9.7363,9.6186,9.498,9.3072,9.2078,9.1962,9.1962,9.1962,9.1962,9.1962,9.1962,9.1962,9.1962,9.1962,9.1962,9.1962,9.1962,9.1962,9.1962,9.213,9.2519,9.34,9.467,9.6175,9.7881,9.9626,10.1469,10.2668,10.3238,10.347,10.3833,10.3931,10.403,10.403,10.403,10.403,10.403,10.403,10.403,10.403,10.403,10.403,10.403,10.403,10.403,10.403,10.403,10.403,10.403,10.403,10.403,10.403,10.403,10.403,10.403,10.403,10.403,10.403,10.403,10.403,10.403,10.403,10.403,10.403,10.4128,10.4353,10.4769,10.5429,10.6254,10.7313,10.8469,10.9585,11.0583,11.1444,11.1921,11.2338,11.2556,11.2736,11.2701,11.2701,11.2701,11.2701,11.2701,8.3559,8.3559,8.3559,8.3559,8.3559,8.3559,8.3559,8.3559,8.3559,8.3559,8.3559,8.3559,8.3559,8.3559,8.3559,8.3559,8.3643,8.3727,8.4184,8.483,8.5686,8.6958,8.8449,8.9966,9.1384,9.2764,9.3821,9.4573,9.5209,9.5977,9.6425,9.6813,9.6877,9.6641,9.575,9.4435,9.2834,9.2194,9.1962,9.1962,9.1962,9.1962,9.1962,9.1962,9.1962,9.1962,9.1962,9.1962,9.1962,9.1962,9.1962,9.2017,9.2519,9.3235,9.4318,9.5722,9.7242,9.9073,10.045,10.1576,10.2195,10.3171,10.3701,10.3931,10.403,10.403,10.403,10.403,10.403,10.403,10.403,10.403,10.403,10.403,10.403,10.403,10.403,10.403,10.403,10.403,10.403,10.403,10.403,10.403,10.403,10.403,10.403,10.403,10.403,10.403,10.403,10.403,10.403,10.403,10.403,10.4062,10.416,10.4482,10.5178,10.5923,10.703,10.8225,10.9373,11.0294,11.1032,11.1743,11.22,11.2511,11.2646,11.2736,11.2701,11.2701,11.2701,11.2701,11.2701,8.3559,8.3559,8.3559,8.3559,8.3559,8.3559,8.3559,8.3559,8.3559,8.3559,8.3559,8.3559,8.3559,8.3559,8.3559,8.3559,8.3559,8.3559,8.3727,8.4184,8.4723,8.5605,8.6641,8.7955,8.9095,9.0223,9.131,9.2085,9.2836,9.3652,9.4282,9.474,9.5166,9.5758,9.6297,9.5442,9.4145,9.3185,9.2281,9.1991,9.1962,9.1962,9.1962,9.1962,9.1962,9.1962,9.1962,9.1962,9.1962,9.1962,9.1962,9.1962,9.2214,9.2822,9.375,9.493,9.6457,9.8181,9.973,10.0378,10.1157,10.2465,10.3503,10.403,10.403,10.403,10.403,10.403,10.403,10.403,10.403,10.403,10.403,10.403,10.403,10.403,10.403,10.403,10.403,10.403,10.403,10.403,10.403,10.403,10.403,10.403,10.403,10.403,10.403,10.403,10.403,10.403,10.403,10.403,10.403,10.4128,10.4225,10.4866,10.5524,10.6589,10.7761,10.8957,11.0037,11.0834,11.1636,11.2061,11.2384,11.2646,11.2736,11.2701,11.2701,11.2701,11.2701,11.2701,11.2701,8.3559,8.3559,8.3559,8.3559,8.3559,8.3559,8.3559,8.3559,8.3559,8.3559,8.3559,8.3559,8.3559,8.3559,8.3559,8.3559,8.3559,8.3559,8.3643,8.3727,8.4027,8.4723,8.5473,8.6299,8.7143,8.785,8.8785,8.9583,9.0196,9.1034,9.1109,9.1284,9.3275,9.4458,9.5361,9.593,9.5298,9.4493,9.295,9.2369,9.202,9.1962,9.1962,9.1962,9.1962,9.1962,9.1962,9.1962,9.1962,9.1962,9.1962,9.1962,9.2046,9.2519,9.3235,9.4318,9.5674,9.7044,9.8449,9.9188,10.0092,10.1538,10.2868,10.38,10.3931,10.403,10.403,10.403,10.403,10.403,10.403,10.403,10.403,10.403,10.403,10.403,10.403,10.403,10.403,10.403,10.403,10.403,10.403,10.403,10.403,10.403,10.403,10.403,10.403,10.403,10.403,10.403,10.403,10.403,10.403,10.4225,10.4515,10.5023,10.5923,10.7123,10.8419,10.9548,11.0634,11.1444,11.1967,11.2338,11.2646,11.2691,11.2736,11.2701,11.2701,11.2701,11.2701,11.2701,11.2701,8.3559,8.3559,8.3559,8.3559,8.3559,8.3559,8.3559,8.3559,8.3559,8.3559,8.3559,8.3559,8.3559,8.3559,8.3559,8.3559,8.3559,8.3559,8.3559,8.3667,8.3751,8.4184,8.4615,8.4805,8.5555,8.6536,8.6958,8.7248,8.7746,8.8163,8.8889,8.9966,9.1759,9.3617,9.5153,9.5717,9.5925,9.5528,9.4203,9.2982,9.2223,9.202,9.1962,9.1962,9.1962,9.1962,9.1962,9.1962,9.1962,9.1962,9.1962,9.1962,9.1962,9.2268,9.2905,9.3646,9.464,9.591,9.6813,9.8194,9.9595,10.0984,10.2397,10.3404,10.38,10.403,10.403,10.403,10.403,10.403,10.403,10.403,10.403,10.403,10.403,10.403,10.403,10.403,10.403,10.403,10.403,10.403,10.403,10.403,10.403,10.403,10.403,10.403,10.403,10.403,10.403,10.403,10.403,10.403,10.4062,10.4257,10.4738,10.5304,10.6375,10.7555,10.8902,11.0124,11.1067,11.1743,11.2338,11.2646,11.2656,11.2701,11.2701,11.2701,11.2701,11.2701,11.2701,11.2701,11.2701,8.3208,8.3232,8.3426,8.3559,8.3559,8.3559,8.3559,8.3559,8.3559,8.3559,8.3559,8.3559,8.3559,8.3559,8.3559,8.3559,8.3559,8.3559,8.3559,8.3559,8.3643,8.3727,8.3943,8.4076,8.4267,8.4938,8.5259,8.5555,8.5448,8.5874,8.6722,8.8345,9.0042,9.2005,9.3937,9.4621,9.525,9.5566,9.529,9.4145,9.304,9.2281,9.1962,9.1962,9.1962,9.1962,9.1962,9.1962,9.1962,9.1962,9.1962,9.1962,9.2046,9.2184,9.249,9.3017,9.3861,9.4559,9.5437,9.735,9.8937,10.0489,10.1953,10.297,10.3569,10.3866,10.403,10.403,10.403,10.403,10.403,10.403,10.403,10.403,10.403,10.403,10.403,10.403,10.403,10.403,10.403,10.403,10.403,10.403,10.403,10.403,10.403,10.403,10.403,10.403,10.403,10.403,10.403,10.3997,10.4095,10.4322,10.4833,10.5648,10.6709,10.7978,10.9389,11.0482,11.136,11.2108,11.2475,11.2656,11.2701,11.2701,11.2701,11.2701,11.2701,11.2701,11.2701,11.2701,11.2701,8.2419,8.2443,8.3208,8.3426,8.3426,8.3534,8.3559,8.3559,8.3559,8.3559,8.3559,8.3559,8.3559,8.3559,8.3559,8.3559,8.3559,8.3559,8.3559,8.3559,8.3559,8.3643,8.3667,8.3559,8.3751,8.3943,8.4243,8.3919,8.4051,8.4483,8.5316,8.6696,8.8111,8.958,9.2032,9.2931,9.3965,9.4613,9.5363,9.5222,9.4203,9.2952,9.2281,9.202,9.1962,9.1962,9.1962,9.1962,9.1962,9.1962,9.1962,9.1962,9.1962,9.1962,9.2184,9.2519,9.3017,9.3698,9.48,9.6736,9.8672,9.9916,10.1538,10.2668,10.3171,10.3536,10.3866,10.3931,10.403,10.403,10.403,10.403,10.403,10.403,10.403,10.403,10.403,10.403,10.403,10.403,10.403,10.403,10.403,10.403,10.403,10.403,10.403,10.403,10.403,10.403,10.403,10.403,10.403,10.4062,10.4127,10.4482,10.5086,10.599,10.7182,10.8406,10.9707,11.0819,11.1648,11.2246,11.2475,11.2701,11.2701,11.2701,11.2701,11.2701,11.2701,11.2701,11.2701,11.2701,11.2701,8.1185,8.1319,8.231,8.2772,8.2881,8.3317,8.3534,8.3559,8.3559,8.3559,8.3559,8.3559,8.3559,8.3559,8.3559,8.3559,8.3559,8.3559,8.3559,8.3559,8.3559,8.3559,8.3559,8.3559,8.3559,8.3534,8.3751,8.3643,8.3643,8.4051,8.483,8.5661,8.6722,8.8241,8.9837,9.1029,9.27,9.3593,9.4404,9.5065,9.5165,9.429,9.3067,9.2107,9.1962,9.1962,9.1962,9.1962,9.1962,9.1962,9.1962,9.1962,9.1962,9.1962,9.1962,9.2214,9.2822,9.3646,9.472,9.6504,9.8181,9.9293,10.0946,10.1884,10.2532,10.3104,10.3635,10.3931,10.403,10.403,10.403,10.403,10.403,10.403,10.403,10.403,10.403,10.403,10.403,10.403,10.403,10.403,10.403,10.403,10.403,10.403,10.403,10.403,10.403,10.403,10.403,10.403,10.3997,10.4095,10.4322,10.4641,10.5366,10.6322,10.7531,10.8738,10.9969,11.1151,11.1826,11.243,11.2656,11.2656,11.2701,11.2701,11.2701,11.2701,11.2701,11.2701,11.2701,11.2701,11.2701,7.9043,7.965,8.0742,8.165,8.231,8.2881,8.3317,8.3559,8.3559,8.3559,8.3559,8.3559,8.3559,8.3559,8.3559,8.3559,8.3559,8.3559,8.3559,8.3559,8.3559,8.3559,8.3559,8.3559,8.3559,8.3559,8.3559,8.3559,8.3667,8.386,8.4267,8.483,8.5341,8.6379,8.7746,8.894,9.032,9.205,9.3357,9.4526,9.5135,9.5696,9.4406,9.3185,9.2398,9.202,9.1962,9.1962,9.1962,9.1962,9.1962,9.1962,9.1962,9.1962,9.1962,9.213,9.2851,9.3564,9.4398,9.6067,9.7578,9.8555,10.0163,10.1157,10.1783,10.2532,10.327,10.3635,10.3767,10.403,10.403,10.403,10.403,10.403,10.403,10.403,10.403,10.403,10.403,10.403,10.403,10.403,10.403,10.403,10.403,10.403,10.403,10.403,10.403,10.403,10.403,10.403,10.3997,10.4095,10.4353,10.4799,10.5519,10.6649,10.7876,10.91,11.0262,11.1214,11.1967,11.243,11.252,11.2566,11.2611,11.2701,11.2701,11.2701,11.2701,11.2701,11.2701,11.2701,11.2701,7.6255,7.7597,7.8841,8.0185,8.1406,8.22,8.2881,8.3426,8.3559,8.3559,8.3559,8.3559,8.3559,8.3559,8.3559,8.3559,8.3559,8.3559,8.3559,8.3559,8.3559,8.3559,8.3559,8.3559,8.3559,8.3559,8.3559,8.3559,8.3559,8.3559,8.3835,8.4135,8.4351,8.4805,8.598,8.6932,8.8449,9.0219,9.2349,9.3993,9.5063,9.5743,9.5468,9.4346,9.3067,9.2543,9.2369,9.2165,9.1962,9.1962,9.1962,9.1962,9.1962,9.1962,9.1962,9.213,9.2685,9.3318,9.3942,9.5546,9.6689,9.7654,9.9115,10.0275,10.1048,10.1986,10.2836,10.3304,10.3701,10.403,10.403,10.403,10.403,10.403,10.403,10.403,10.403,10.403,10.403,10.403,10.403,10.403,10.403,10.403,10.403,10.403,10.403,10.403,10.403,10.403,10.403,10.403,10.403,10.416,10.4289,10.4926,10.5643,10.6768,10.7933,10.9154,11.0262,11.1263,11.1826,11.2108,11.2246,11.243,11.2611,11.2701,11.2701,11.2701,11.2701,11.2701,11.2701,11.2701,11.2701,7.3231,7.5147,7.6869,7.8367,7.965,8.1232,8.2248,8.2748,8.3317,8.3559,8.3559,8.3559,8.3559,8.3559,8.3559,8.3559,8.3559,8.3559,8.3559,8.3559,8.3559,8.3559,8.3559,8.3559,8.3559,8.3559,8.3559,8.3559,8.3559,8.3559,8.3643,8.3643,8.3751,8.4159,8.4805,8.5768,8.7143,8.8811,9.1162,9.3111,9.5091,9.5624,9.5882,9.5218,9.4172,9.3416,9.3183,9.2514,9.1962,9.1962,9.1962,9.1962,9.1962,9.1962,9.1962,9.1962,9.2435,9.2905,9.3564,9.467,9.5753,9.6612,9.8075,9.9293,10.037,10.1431,10.2397,10.297,10.3569,10.403,10.403,10.403,10.403,10.403,10.403,10.403,10.403,10.403,10.403,10.403,10.403,10.403,10.403,10.403,10.403,10.403,10.403,10.403,10.403,10.403,10.403,10.403,10.403,10.4095,10.4192,10.4705,10.5519,10.6649,10.7853,10.8991,11.0142,11.0854,11.1347,11.1601,11.2061,11.2384,11.2646,11.2656,11.2701,11.2701,11.2701,11.2701,11.2701,11.2701,11.2701,6.9339,7.1278,7.3265,7.5198,7.7096,7.9418,8.09,8.1784,8.2662,8.3075,8.3099,8.345,8.3559,8.3559,8.3559,8.3559,8.3559,8.3559,8.3559,8.3559,8.3559,8.3559,8.3559,8.3559,8.3559,8.3559,8.3559,8.3559,8.3559,8.3559,8.3559,8.3559,8.3559,8.3727,8.4051,8.4805,8.6005,8.7588,8.9712,9.2139,9.4449,9.5644,9.6526,9.6166,9.487,9.3881,9.3765,9.266,9.2078,9.1962,9.1962,9.1962,9.1962,9.1962,9.1962,9.2046,9.2268,9.2685,9.307,9.4024,9.504,9.5735,9.7197,9.8481,9.9689,10.1048,10.2123,10.2836,10.347,10.403,10.403,10.403,10.403,10.403,10.403,10.403,10.403,10.403,10.403,10.403,10.403,10.403,10.403,10.403,10.403,10.403,10.403,10.403,10.403,10.403,10.403,10.403,10.403,10.3997,10.4095,10.4546,10.5429,10.6349,10.7565,10.8717,10.9618,11.0194,11.0804,11.1347,11.1826,11.22,11.2646,11.2656,11.2701,11.2701,11.2701,11.2701,11.2701,11.2701,11.2701,6.5799,6.7727,6.9716,7.1823,7.4197,7.68,7.8507,7.9727,8.1173,8.1792,8.2154,8.3002,8.3317,8.3317,8.3534,8.3559,8.3559,8.3559,8.3559,8.3559,8.3559,8.3559,8.3559,8.3559,8.3559,8.3559,8.3559,8.3559,8.3559,8.3559,8.3559,8.3559,8.3559,8.3559,8.3643,8.4243,8.4913,8.6324,8.8552,9.0981,9.3248,9.5454,9.6698,9.6984,9.5563,9.4493,9.3852,9.263,9.1991,9.1962,9.1962,9.1962,9.1962,9.1962,9.1962,9.2046,9.2268,9.2289,9.2304,9.3001,9.4,9.4422,9.5617,9.7236,9.8557,10.0217,10.1606,10.248,10.3405,10.3931,10.403,10.403,10.403,10.403,10.403,10.403,10.403,10.403,10.403,10.403,10.403,10.403,10.403,10.403,10.403,10.403,10.403,10.403,10.403,10.403,10.403,10.403,10.403,10.3997,10.4062,10.429,10.4993,10.5772,10.7064,10.8272,10.8882,10.9477,11.0364,11.1053,11.1588,11.2108,11.2611,11.2701,11.2701,11.2701,11.2701,11.2701,11.2701,11.2701,11.2701,6.3783,6.5748,6.712,6.8745,7.0765,7.3066,7.4882,7.6266,7.8607,7.9747,8.0131,8.1792,8.2324,8.2748,8.2903,8.3461,8.3486,8.3363,8.3437,8.3559,8.3559,8.3339,8.3241,8.3144,8.3168,8.3217,8.3486,8.3363,8.3168,8.3315,8.3437,8.3217,8.3315,8.3461,8.3252,8.3806,8.4863,8.5966,8.7491,8.9545,9.1952,9.3938,9.5483,9.6315,9.5973,9.5272,9.3883,9.2689,9.1962,9.1962,9.1962,9.1962,9.1962,9.1962,9.1962,9.1962,9.1871,9.1572,9.1167,9.1532,9.194,9.2522,9.3501,9.4656,9.682,9.889,10.0516,10.1212,10.298,10.3438,10.3602,10.3898,10.3898,10.3964,10.3832,10.3931,10.403,10.403,10.403,10.403,10.403,10.403,10.403,10.403,10.403,10.403,10.403,10.403,10.403,10.403,10.403,10.403,10.403,10.403,10.3997,10.4062,10.4644,10.5274,10.6709,10.7623,10.825,10.9243,11.0055,11.0869,11.1505,11.2108,11.2566,11.2701,11.2701,11.2701,11.2701,11.2701,11.2701,11.2701,11.2701,6.1642,6.2904,6.4331,6.5903,6.787,6.9887,7.1823,7.3485,7.5628,7.6927,7.7888,7.9262,8.0184,8.0803,8.1172,8.1677,8.2665,8.2714,8.3056,8.3388,8.3461,8.2802,8.1924,8.1704,8.1704,8.1704,8.168,8.1728,8.1728,8.168,8.168,8.1777,8.1704,8.1704,8.1777,8.1892,8.2607,8.3809,8.5079,8.6787,8.9183,9.116,9.2839,9.4077,9.4841,9.4683,9.3566,9.2461,9.1962,9.1962,9.1962,9.1962,9.1962,9.1962,9.1962,9.1903,9.1234,9.0819,9.0587,9.058,9.0954,9.1796,9.3059,9.4537,9.5996,9.7741,9.9025,9.9711,10.0685,10.1303,10.1564,10.2221,10.3011,10.3504,10.2419,10.1794,10.2583,10.2649,10.3043,10.3734,10.403,10.403,10.403,10.403,10.403,10.3964,10.3898,10.403,10.403,10.403,10.403,10.403,10.403,10.3997,10.4062,10.416,10.4577,10.5274,10.6349,10.6955,10.7853,10.9135,10.9882,11.0653,11.1408,11.2026,11.2384,11.2566,11.2656,11.2701,11.2701,11.2701,11.2701,11.2701,11.2701,6.025,6.0741,6.2039,6.343,6.498,6.6749,6.8502,7.0217,7.2203,7.3759,7.5068,7.6676,7.8135,7.9077,7.9466,8.0226,8.1257,8.1533,8.2021,8.2607,8.2705,8.1704,8.0501,8.0257,8.0306,8.0355,8.0452,8.0233,8.0233,8.0404,8.0355,8.0233,8.0428,8.033,8.0233,8.0355,8.0883,8.179,8.2791,8.4362,8.6381,8.8333,8.9851,9.1296,9.2303,9.2761,9.2697,9.2091,9.1793,9.1962,9.1962,9.1962,9.1962,9.1962,9.1962,9.1758,9.0827,9.009,8.9995,8.9577,8.9748,9.0736,9.1737,9.3474,9.4787,9.639,9.7502,9.818,9.9049,9.9627,9.9788,10.0545,10.1498,10.2353,10.1038,10.012,10.0906,10.1169,10.1498,10.255,10.2682,10.2616,10.2682,10.2912,10.3274,10.3339,10.3635,10.403,10.403,10.403,10.403,10.403,10.3964,10.4029,10.4095,10.4289,10.4705,10.5337,10.5911,10.654,10.7545,10.873,10.9532,11.0415,11.1192,11.1932,11.2246,11.252,11.2611,11.2701,11.2701,11.2701,11.2701,11.2701,11.2701,6.0062,6.0156,6.0741,6.1476,6.2283,6.3442,6.4767,6.6092,6.8503,7.0316,7.1952,7.4485,7.6583,7.7768,7.8588,7.9386,8.0355,8.033,8.0557,8.0404,8.0404,8.0306,7.994,7.9843,7.9843,7.994,7.9989,8.0062,7.9867,7.9892,8.0233,7.9965,7.9916,8.016,7.9916,8.016,8.0405,8.0953,8.1669,8.2768,8.4455,8.6165,8.7626,8.9131,8.9918,9.0783,9.1448,9.1318,9.1397,9.1877,9.1932,9.1962,9.1962,9.1962,9.1962,9.1903,9.074,8.9706,8.8852,8.8152,8.7892,8.8451,8.9534,9.0395,9.2514,9.4527,9.6141,9.6872,9.8227,9.92,9.9167,9.9558,9.9624,9.9788,9.9328,9.9197,9.9528,9.9594,9.9857,9.9955,9.9824,9.992,10.0282,10.1202,10.1662,10.2024,10.2813,10.3241,10.3438,10.3471,10.3832,10.3964,10.3898,10.3964,10.4257,10.4449,10.4959,10.5509,10.5854,10.6435,10.7191,10.8152,10.8973,11.0034,11.0989,11.1625,11.2118,11.243,11.2611,11.2701,11.2701,11.2701,11.2701,11.2701,11.2701,6.0062,6.0062,6.0269,6.0703,6.1228,6.1658,6.2534,6.3777,6.55,6.7053,6.8773,7.1066,7.3039,7.4751,7.5899,7.7316,7.8796,7.913,7.8995,7.841,7.8361,7.8361,7.8361,7.8336,7.8361,7.8361,7.8336,7.8336,7.8336,7.8361,7.8361,7.8361,7.8336,7.8385,7.8361,7.8336,7.8617,7.9123,7.9426,8.0104,8.1397,8.255,8.3881,8.5354,8.6908,8.8442,8.9925,9.0196,9.0715,9.1397,9.1793,9.1962,9.1962,9.1962,9.1962,9.1554,9.01,8.8779,8.845,8.7161,8.6522,8.7494,8.8464,8.9695,9.1116,9.2725,9.4142,9.487,9.6018,9.665,9.6998,9.7585,9.7684,9.6994,9.6994,9.6862,9.6994,9.7618,9.8407,9.9197,9.9397,9.9591,9.9591,10.015,10.0218,10.038,10.084,10.1202,10.1367,10.2024,10.2287,10.2583,10.3011,10.36,10.4155,10.457,10.5108,10.5273,10.5305,10.5646,10.5916,10.6695,10.7511,10.8471,11.0167,11.0821,11.1245,11.1734,11.196,11.262,11.2701,11.2558,11.2379,11.2451,11.2558,6.0062,6.0062,6.0062,6.025,6.0571,6.0571,6.1115,6.2087,6.3071,6.4599,6.6351,6.8082,7.0111,7.2155,7.3632,7.5268,7.7066,7.768,7.7646,7.711,7.7089,7.7238,7.7214,7.7189,7.7165,7.7165,7.7165,7.7165,7.7214,7.7214,7.7165,7.7165,7.7214,7.7165,7.7263,7.7165,7.7341,7.7716,7.7716,7.8114,7.8979,8.0082,8.1315,8.2789,8.4752,8.649,8.8075,8.91,9.0056,9.1142,9.1651,9.1962,9.1962,9.1962,9.1962,9.1671,8.9489,8.8196,8.8195,8.6624,8.5761,8.6714,8.7748,8.8858,9.0108,9.1587,9.2762,9.3559,9.4371,9.4922,9.5235,9.6111,9.6303,9.535,9.5284,9.5415,9.5613,9.6172,9.7158,9.8046,9.821,9.821,9.821,9.8736,9.8835,9.8901,9.9394,9.9693,9.9788,10.0577,10.0939,10.1005,10.1726,10.2317,10.2306,10.2514,10.3042,10.3307,10.3542,10.381,10.4076,10.4569,10.5328,10.6478,10.8527,10.9722,11.008,11.0389,11.041,11.0828,11.1131,11.1452,11.1844,11.2094,11.2237,6.0062,6.0062,6.0062,6.0156,6.0156,6.0156,6.0364,6.1003,6.1678,6.2868,6.4489,6.6263,6.8297,7.0428,7.2259,7.3941,7.5338,7.6099,7.6408,7.6537,7.694,7.7165,7.7165,7.7165,7.7165,7.7165,7.7165,7.7165,7.7165,7.7165,7.7165,7.7165,7.7165,7.7165,7.7165,7.7165,7.7165,7.7241,7.7241,7.7441,7.799,7.8979,8.0251,8.1768,8.3635,8.5186,8.6227,8.7986,8.9623,9.0943,9.1595,9.1962,9.1962,9.1816,9.1874,9.1409,8.9431,8.8093,8.7767,8.6041,8.5126,8.5702,8.6641,8.7892,8.9279,9.0721,9.2016,9.305,9.4091,9.48,9.4894,9.5267,9.5415,9.5284,9.5284,9.5284,9.5284,9.5317,9.535,9.558,9.5744,9.5415,9.5646,9.6599,9.7355,9.7585,9.8276,9.8966,9.8933,9.9229,9.9492,9.9591,10.0117,10.0803,10.0589,10.0396,10.0882,10.1352,10.1466,10.1629,10.1769,10.194,10.2577,10.4575,10.664,10.7998,10.841,10.8778,10.8835,10.9153,10.8876,10.9097,10.9775,11.0489,11.1024,6.0062,6.0062,6.0062,6.0062,6.0062,6.0062,6.0156,6.0364,6.0909,6.1678,6.2868,6.4489,6.6351,6.8297,7.079,7.2387,7.3195,7.4558,7.5602,7.6412,7.694,7.7165,7.7165,7.7165,7.7165,7.7165,7.7165,7.7165,7.7165,7.7165,7.7165,7.7165,7.7165,7.7165,7.7165,7.7165,7.7165,7.7165,7.7165,7.7241,7.7441,7.8114,7.9078,8.0348,8.1864,8.3542,8.5186,8.7031,8.8749,9.0113,9.1057,9.1566,9.1761,9.1147,9.0653,9.0391,8.821,8.6756,8.6552,8.5263,8.4668,8.5126,8.6002,8.7008,8.8281,8.9626,9.1057,9.2309,9.3337,9.4218,9.4711,9.5103,9.5251,9.5284,9.5284,9.5284,9.5284,9.5284,9.5284,9.5284,9.5284,9.5284,9.535,9.5711,9.5941,9.5941,9.6303,9.6632,9.6829,9.7388,9.8079,9.8144,9.8802,9.9321,9.9598,9.8371,9.807,9.8476,9.863,9.8895,9.9013,9.9144,10.0128,10.2521,10.4309,10.5702,10.6658,10.7077,10.753,10.8119,10.7777,10.742,10.8205,10.8812,10.9204,6.0062,6.0062,6.0062,6.0062,6.0062,6.0062,6.0062,6.0062,6.0364,6.0909,6.1678,6.3071,6.4709,6.6589,6.8961,7.0579,7.1632,7.3505,7.4967,7.6008,7.6638,7.6964,7.7165,7.7165,7.7165,7.7165,7.7165,7.7165,7.7165,7.7165,7.7165,7.7165,7.7165,7.7165,7.7165,7.7165,7.7165,7.7165,7.7165,7.7165,7.7265,7.7716,7.8213,7.8979,8.0226,8.2055,8.4196,8.61,8.7925,8.9738,9.0686,9.1194,9.118,9.0478,8.9868,8.9199,8.7337,8.6145,8.5999,8.4875,8.4409,8.4927,8.558,8.6523,8.7851,8.9069,9.045,9.1982,9.2955,9.3716,9.4523,9.4922,9.5131,9.5224,9.5284,9.5284,9.5284,9.5284,9.5284,9.5284,9.5284,9.5284,9.5284,9.5284,9.5284,9.5284,9.5284,9.535,9.5481,9.5974,9.6632,9.6796,9.7388,9.8075,9.8353,9.6539,9.5668,9.6105,9.651,9.7179,9.7915,9.8235,9.8844,10.1195,10.2569,10.3772,10.3975,10.4474,10.5187,10.5717,10.5958,10.5958,10.7135,10.7206,10.7492,6.0062,6.0062,6.0062,6.0062,6.0062,6.0062,6.0062,6.0062,6.0043,6.0383,6.089,6.2106,6.3515,6.53,6.7002,6.8747,7.0579,7.2676,7.425,7.5297,7.6008,7.6638,7.7165,7.7165,7.7165,7.7165,7.7165,7.7165,7.7165,7.7165,7.7165,7.7165,7.7165,7.7165,7.7165,7.7165,7.7165,7.7165,7.7165,7.7165,7.7265,7.7641,7.7915,7.8089,7.8904,8.0532,8.2835,8.4878,8.6935,8.9424,9.02,9.0503,8.9964,8.9843,8.9286,8.8006,8.6668,8.5883,8.5534,8.441,8.403,8.4605,8.4853,8.6046,8.7427,8.8414,8.9809,9.1952,9.2633,9.3291,9.3724,9.402,9.4485,9.4895,9.5087,9.5152,9.5218,9.5284,9.5284,9.5284,9.5284,9.5284,9.5284,9.5284,9.5284,9.5284,9.5284,9.5284,9.5284,9.5284,9.5448,9.5481,9.5481,9.5317,9.535,9.5311,9.555,9.593,9.6279,9.6625,9.7359,9.8073,9.875,9.9684,10.1165,10.1825,10.164,10.2109,10.3134,10.3626,10.3972,10.4459,10.5494,10.5637,10.5886,6.0062,6.0062,6.0062,6.0062,6.0062,6.0062,6.0062,6.0062,6.0062,6.0156,6.0383,6.1565,6.2534,6.3515,6.5258,6.724,6.9304,7.1211,7.2907,7.425,7.4865,7.5602,7.6537,7.6638,7.6864,7.7065,7.7165,7.7165,7.7165,7.7165,7.7165,7.7165,7.7165,7.7165,7.7165,7.7165,7.7165,7.7165,7.7165,7.7165,7.7141,7.7365,7.7541,7.7941,7.8132,7.9032,8.0876,8.1998,8.3536,8.5593,8.6871,8.7621,8.8157,8.8426,8.8035,8.6668,8.4633,8.2975,8.2044,8.1666,8.1641,8.2114,8.2716,8.3596,8.4868,8.5903,8.7617,8.988,9.0359,9.0582,9.1153,9.1719,9.2504,9.3515,9.3739,9.4199,9.5054,9.5284,9.5185,9.5284,9.512,9.5284,9.5284,9.5284,9.5284,9.5284,9.5284,9.5284,9.5284,9.5284,9.5284,9.5284,9.5284,9.5284,9.5284,9.5284,9.5371,9.5694,9.6047,9.6567,9.7448,9.7801,9.8343,9.9427,10.0526,10.1196,10.1337,10.1741,10.2581,10.2873,10.3283,10.3776,10.4168,10.4061,10.4352,6.0062,6.0062,6.0062,6.0062,6.0062,6.0062,6.0062,6.0062,6.0062,6.0062,6.008,6.0289,6.0734,6.1355,6.3101,6.5124,6.7307,6.9006,7.0701,7.2445,7.3322,7.425,7.5297,7.5805,7.6335,7.6839,7.704,7.7165,7.7165,7.7165,7.7165,7.7165,7.7165,7.7165,7.7165,7.7165,7.7165,7.7165,7.7165,7.6701,7.5945,7.5798,7.5995,7.6314,7.6619,7.7536,7.903,8.0472,8.2231,8.4305,8.5202,8.5816,8.6184,8.595,8.5205,8.3876,8.2469,8.1304,8.0576,8.0518,8.0738,8.1278,8.1653,8.245,8.3875,8.4761,8.5859,8.7631,8.7998,8.8625,8.989,9.0449,9.1067,9.1971,9.2259,9.2555,9.341,9.3476,9.3804,9.433,9.4396,9.4528,9.5087,9.5284,9.5284,9.5284,9.5284,9.5284,9.5284,9.5284,9.5284,9.5284,9.5284,9.5284,9.5284,9.5284,9.5338,9.5635,9.593,9.6395,9.7191,9.7614,9.8236,9.9358,10.0281,10.0912,10.1091,10.1787,10.2369,10.2595,10.3021,10.3384,10.3384,10.3384,10.3384,5.9796,5.9815,5.9739,5.9815,5.9758,5.9758,5.9739,5.9739,5.9796,5.9815,5.97,5.8731,5.8659,5.9336,6.0833,6.2642,6.4624,6.6234,6.7931,6.9711,7.1046,7.2215,7.3338,7.4329,7.5315,7.5848,7.6426,7.6553,7.6553,7.6726,7.6896,7.6994,7.6994,7.6994,7.697,7.6872,7.6823,7.6848,7.6848,7.5872,7.3992,7.387,7.387,7.387,7.4748,7.5754,7.7046,7.9367,8.1585,8.3693,8.4032,8.4185,8.3868,8.2742,8.1566,8.0415,8.0037,7.9892,7.9834,7.9805,7.9877,8.086,8.0708,8.1485,8.3388,8.3964,8.4394,8.476,8.5454,8.6646,8.8959,8.9426,8.9747,9.0468,9.0747,9.0812,9.1108,9.0944,9.1437,9.2818,9.2949,9.3377,9.433,9.4758,9.4955,9.4856,9.5021,9.5284,9.5284,9.5284,9.5284,9.5284,9.5284,9.5284,9.5284,9.5284,9.5311,9.5484,9.583,9.6029,9.633,9.6898,9.7565,9.7901,9.9358,10.0038,10.0626,10.151,10.195,10.1979,10.2481,10.3129,10.3384,10.3384,10.2991,5.8178,5.8178,5.8049,5.8068,5.8049,5.8049,5.8049,5.8178,5.8049,5.8068,5.814,5.7888,5.8022,5.8601,5.9443,6.0593,6.1927,6.3302,6.4541,6.5756,6.6962,6.8277,6.9655,7.0731,7.1753,7.2744,7.3628,7.4019,7.4116,7.4408,7.5042,7.5847,7.592,7.6019,7.5872,7.5042,7.4603,7.4627,7.4627,7.4358,7.3895,7.387,7.387,7.3748,7.322,7.3311,7.432,7.4948,7.6089,7.7849,7.9238,8.0219,8.0794,7.9949,7.9252,7.8816,7.7071,7.5937,7.5878,7.5035,7.4822,7.5554,7.5791,7.7007,7.9312,7.9369,7.937,7.9965,8.1078,8.2359,8.4157,8.5035,8.635,8.8576,8.9098,8.9563,9.0714,9.0944,9.1108,9.1338,9.1437,9.1536,9.2029,9.2917,9.3574,9.3804,9.4593,9.5218,9.5284,9.5284,9.5284,9.5284,9.5284,9.512,9.5284,9.5152,9.5179,9.5278,9.4919,9.4864,9.5024,9.4298,9.4371,9.6014,9.7251,9.8113,9.8059,9.8406,9.9366,10.0787,10.1243,10.1758,10.2808,10.3098,10.2711,5.7263,5.748,5.7499,5.7499,5.7499,5.7499,5.7499,5.7512,5.6683,5.6341,5.6341,5.6341,5.6573,5.6892,5.7421,5.8251,5.9346,6.0506,6.1634,6.2864,6.4264,6.5792,6.728,6.8637,6.996,7.1246,7.2347,7.2906,7.3172,7.3582,7.4212,7.4749,7.4798,7.4798,7.4749,7.4188,7.387,7.3822,7.2455,7.1361,7.0966,7.0966,7.0942,7.0966,7.0772,7.1017,7.1908,7.3059,7.4551,7.6248,7.6807,7.7535,7.828,7.6755,7.5617,7.5064,7.3697,7.2679,7.2098,7.1429,7.1579,7.2813,7.3355,7.4059,7.4861,7.4629,7.5394,7.7362,7.8398,7.9697,8.1522,8.2399,8.3505,8.5161,8.5619,8.6407,8.7656,8.7952,8.8511,8.9727,8.999,9.0253,9.0878,9.1667,9.2128,9.2193,9.2719,9.3541,9.4166,9.3739,9.3278,9.3278,9.3311,9.3311,9.3245,9.3363,9.3454,9.3454,9.3393,9.3644,9.3685,9.3801,9.3841,9.4891,9.614,9.6928,9.7265,9.7494,9.8233,9.9496,9.9683,10.0054,10.0883,10.1284,10.0678,5.6706,5.7138,5.7119,5.7246,5.7246,5.7138,5.7119,5.6986,5.5373,5.4633,5.4652,5.4652,5.4652,5.4652,5.5083,5.5777,5.6516,5.7579,5.8887,6.0231,6.1824,6.3548,6.5051,6.6689,6.8323,6.9828,7.0834,7.1655,7.211,7.2563,7.297,7.3163,7.3212,7.3187,7.3212,7.3236,7.3138,7.2919,7.0167,6.8339,6.7438,6.7413,6.7413,6.7501,6.8251,6.905,6.9937,7.202,7.4086,7.5758,7.5242,7.5169,7.5856,7.3572,7.1632,7.0498,7.0033,6.9277,6.8088,6.8001,6.8749,7.0431,7.1375,7.1353,7.0158,7.0502,7.2074,7.5044,7.6114,7.755,7.9439,8.0128,8.0714,8.1499,8.1813,8.2527,8.4039,8.4236,8.5157,8.7393,8.7919,8.8314,8.9399,9.0023,9.0253,9.0615,9.1141,9.1503,9.2292,9.1495,9.0639,9.0959,9.1115,9.1058,9.1469,9.1342,9.1577,9.1213,9.1766,9.1956,9.1745,9.2011,9.2576,9.3673,9.4184,9.5057,9.5677,9.6645,9.6612,9.698,9.7528,9.807,9.8501,9.7758,9.7258,5.5325,5.543,5.543,5.543,5.543,5.543,5.543,5.5335,5.3664,0.0,0.0,5.2943,5.2943,5.2962,5.3043,5.3138,5.3372,5.4034,5.4779,5.5798,5.7439,5.9132,6.0961,6.2269,6.3668,6.5198,6.5755,6.6527,6.7276,6.7842,6.8727,6.9802,6.985,6.985,6.985,6.985,6.9412,6.8559,6.7974,6.7608,6.7413,6.7413,6.7413,6.7413,6.7509,6.7922,6.8711,6.9126,7.0027,7.1547,7.1818,7.2269,7.2905,7.092,6.9102,6.7797,6.5728,6.41,6.3019,6.2902,6.3274,6.3988,6.5702,6.6669,6.6618,6.8123,6.9327,6.9953,7.1705,7.3473,7.5012,7.5766,7.7195,7.9832,8.0285,8.1014,8.233,8.2593,8.2691,8.3217,8.3513,8.3941,8.5486,8.6702,8.782,8.9004,8.9826,9.1108,9.1034,8.9227,8.8578,9.0563,9.0762,9.1348,9.1514,9.1503,9.1502,9.0224,8.9704,8.9223,8.8461,8.7941,8.8017,8.903,8.917,8.9939,9.0227,9.0923,9.111,9.2504,9.3826,9.5148,9.6078,9.3978,9.1795,5.3537,5.374,5.3721,5.374,0.0,5.374,5.374,5.3702,5.2867,5.2506,5.2506,5.2506,5.2506,5.2506,5.2506,5.2506,5.2506,5.2963,5.3689,5.4394,5.5681,5.7202,5.8946,5.9978,6.1476,6.3164,6.4204,6.5145,6.6111,6.6821,6.7505,6.8193,6.8193,6.8193,6.8193,6.8193,6.7477,6.589,6.6427,6.6427,6.5915,6.589,6.5598,6.5036,6.5359,0.0,0.0,0.0,0.0,0.0,0.0,0.0,0.0,6.8245,0.0,6.3459,6.0837,5.8724,5.7162,5.7079,5.7382,5.799,6.0914,6.1839,5.9751,6.2572,6.4791,6.577,6.7596,6.9306,7.0897,7.2185,7.3576,7.5043,7.6218,7.7398,7.868,7.8976,7.9502,8.0784,8.1146,8.1672,8.3119,8.4006,8.4697,8.542,8.6111,8.6702,8.7316,8.6264,8.5689,8.7379,8.7731,8.7783,8.7905,8.8144,8.7979,8.7742,8.7435,8.7231,8.6934,8.6783,8.6966,8.7455,8.8003,8.8458,8.883,8.9119,8.9618,9.0474,9.1296,9.176,9.0787,9.0491,9.0015,5.1714,5.2279,5.2279,5.2374,5.245,5.1823,5.1557,5.1557,5.1557,5.1557,5.1576,5.1557,5.1557,5.1655,5.1655,5.1771,5.1946,5.2412,5.3051,5.3849,5.474,5.6132,5.7802,5.8815,6.0027,6.1649,6.2983,6.4044,6.4916,6.5676,6.6195,6.6256,6.6281,6.6256,6.6195,0.0,0.0,0.0,6.4548,6.4548,6.3801,6.367,6.3312,6.2457,6.3264,0.0,6.3842,6.5398,6.6957,6.8435,6.8779,0.0,0.0,0.0,0.0,0.0,0.0,0.0,0.0,0.0,0.0,0.0,5.5488,5.5956,5.2893,5.6498,5.9977,6.2066,6.4018,6.569,6.698,6.878,6.9984,7.0291,7.1631,7.3084,7.448,7.4678,7.5534,7.7857,7.8384,7.9092,8.0311,8.1002,8.1332,8.2042,8.199,8.2338,8.3035,8.2632,8.2554,8.3062,8.3393,8.3354,8.3523,8.3973,8.4296,8.4056,8.4506,8.4771,8.4848,8.5258,8.5791,8.6149,8.6729,8.7018,8.7368,8.7752,8.7562,8.7984,8.852,8.8148,8.546,8.6852,8.8624,5.0683,5.1443,5.1443,5.1861,5.2279,4.9355,4.8102,4.8102,4.8102,4.8102,4.8121,4.8102,4.8284,4.8776,4.8776,4.9208,4.9948,5.0038,5.112,5.2975,5.3666,5.5081,5.7207,5.7873,5.84,5.9025,5.9697,6.0225,6.0639,6.1185,6.1485,6.1839,6.1839,6.1839,6.1839,6.1839,6.1717,6.1449,6.1571,6.1546,6.1449,6.1424,6.1535,6.1755,6.2622,6.3559,6.458,6.5203,6.6181,6.7501,6.7637,6.7464,6.7023,6.3925,6.0545,0.0,5.2378,0.0,0.0,0.0,0.0,0.0,0.0,0.0,0.0,5.2165,5.5993,5.8746,6.1427,6.315,6.3595,6.4993,6.6426,6.7889,6.8295,6.8966,7.0357,7.0556,7.0688,7.1086,7.2323,7.3681,7.516,7.6386,7.8175,8.0244,8.0558,7.9985,7.8751,7.8655,7.9278,8.0588,8.0912,8.0962,8.1248,8.1693,8.1686,8.0766,8.0955,8.0759,8.0328,8.0434,8.0669,8.1299,8.1704,8.1717,8.1735,8.1968,8.2034,8.2352,8.4257,8.5044,8.3025,8.2905,8.2775,4.8824,4.9165,4.9165,4.8577,4.7571,4.6565,4.609,4.5984,4.609,4.6177,4.6457,4.6438,4.6804,4.7496,4.7649,4.8164,4.8803,4.9781,5.0758,5.169,5.2754,5.4042,5.5559,5.6045,5.6923,5.8107,5.8848,5.9558,6.0229,6.0557,6.0851,6.101,6.101,6.0131,5.8472,5.8984,5.9594,6.0155,6.0717,6.101,6.101,6.1272,6.1317,6.1113,6.2088,6.2918,6.3427,6.4459,6.56,6.7067,6.6984,6.6045,6.41,6.08,5.678,0.0,0.0,0.0,0.0,0.0,0.0,0.0,0.0,0.0,0.0,0.0,5.0237,5.2311,5.5938,5.8628,5.9852,6.1215,6.2422,6.3279,6.4011,6.478,6.5416,6.5483,6.5706,6.6463,6.7938,6.9366,7.0774,7.2139,7.3871,7.6027,7.555,7.4905,7.4792,7.504,7.548,7.6318,7.7231,7.79,7.8012,7.9012,7.9736,7.9513,7.9624,7.9763,7.969,7.9803,8.0124,8.0504,8.0679,8.0793,8.1026,8.1081,8.1145,8.1145,8.1213,8.0985,8.0741,8.1412,8.2096,4.6109,4.6223,4.5426,4.4116,4.2616,4.3344,4.3705,4.3876,4.394,4.4091,4.4347,4.441,4.4619,4.5129,4.569,4.635,4.7133,4.8848,5.001,5.0872,5.2181,5.3477,5.4779,5.5285,5.6178,5.7538,5.8465,5.9174,5.9648,5.9853,5.9863,5.9838,5.9106,5.7642,5.5592,5.6568,5.7666,5.8716,5.9741,6.0277,6.0302,6.0746,6.0918,6.0729,6.1824,6.2583,6.29,6.4125,6.5234,6.6266,6.581,6.4042,6.0976,5.6938,0.0,0.0,0.0,0.0,0.0,0.0,0.0,0.0,0.0,3.585,3.7634,0.0,4.4896,0.0,5.0541,5.4167,5.6028,5.7514,0.0,0.0,5.9569,6.0179,6.0179,6.0179,6.0721,6.2035,6.3517,6.4964,6.6333,6.8082,6.9473,7.0057,6.912,6.8952,7.058,7.127,7.1751,7.2092,7.3347,7.4292,7.4431,7.5582,7.6554,7.7215,7.7243,7.7534,7.8034,7.8301,7.8498,7.8788,7.8973,7.9102,7.9181,7.9352,7.9341,7.9495,7.8032,7.6991,7.8136,7.9297,8.0241,4.2138,4.2735,3.9579,3.8611,3.9105,3.9515,4.0142,4.0833,4.1213,4.1086,4.0696,4.0677,4.0494,4.0268,4.1249,0.0,4.4498,4.5826,4.8118,5.1116,5.2167,5.3945,5.6185,5.6623,5.6828,5.6906,5.7746,5.7952,5.7427,5.6858,5.6543,5.647,5.3664,5.2634,5.3322,5.4347,5.5421,5.6421,5.7593,5.8154,5.8154,5.8957,5.9774,6.087,6.1827,6.3093,6.4466,6.4789,6.4926,6.4812,6.3424,6.1184,5.809,0.0,0.0,0.0,0.0,0.0,0.0,0.0,0.0,0.0,0.0,0.0,0.0,0.0,0.0,4.0994,4.6466,0.0,5.2203,5.3759,0.0,0.0,0.0,5.5019,5.5019,5.4935,5.5462,5.6996,0.0,0.0,6.1272,6.4012,6.5203,6.3306,6.3109,6.3755,6.5314,6.7117,6.8237,6.8293,6.9565,7.0611,7.0725,7.1038,7.1429,7.183,7.1597,7.1899,7.2356,7.2492,7.2659,7.3089,7.3133,7.3371,7.3407,7.3501,7.3514,7.4069,7.389,7.3812,7.4035,7.4279,7.4498,3.8155,3.566,3.4458,3.4223,3.4568,3.5477,3.6016,3.6327,3.6811,3.7074,3.7079,3.7253,3.7044,3.6764,3.7399,0.0,0.0,0.0,4.5093,4.7136,4.9395,5.1448,5.3204,5.4057,5.4684,5.5159,5.5434,5.5325,5.4694,5.4423,5.2663,4.9402,0.0,4.7503,4.9198,5.0858,5.2859,5.5201,5.6543,5.7574,5.8237,5.9056,6.0207,6.1769,6.3083,6.4139,6.4827,6.4841,6.4003,6.2329,5.9684,5.6084,0.0,0.0,0.0,0.0,0.0,0.0,0.0,0.0,0.0,0.0,0.0,2.7319,2.8481,0.0,0.0,0.0,4.104,4.57,4.8245,4.9092,0.0,0.0,0.0,0.0,0.0,0.0,0.0,5.1663,5.3878,5.5959,5.7386,5.9112,5.9921,5.9021,6.0756,6.2377,6.2976,0.0,6.4452,6.4556,6.588,6.6903,6.6972,6.7746,6.841,6.8587,6.8679,6.8837,6.9134,6.9379,6.958,6.992,7.0769,7.1579,7.1648,6.9328,6.7851,6.899,6.9255,6.9628,7.0586,7.0811,7.0763,3.3241,0.0,0.0,0.0,0.0,3.1217,3.1977,3.2589,3.3029,3.3421,3.3527,3.3424,0.0,0.0,0.0,0.0,0.0,0.0,4.1606,4.3392,4.6187,4.8466,5.0078,5.0975,5.1656,5.2352,5.2352,5.2146,5.159,4.9515,4.6343,4.2237,0.0,0.0,0.0,0.0,5.0574,5.3824,5.5993,5.774,5.9031,5.9867,6.1052,6.2522,6.4003,6.466,6.4303,6.3426,6.148,5.8289,5.4594,0.0,0.0,0.0,0.0,0.0,0.0,0.0,0.0,0.0,0.0,0.0,0.0,0.0,0.0,0.0,0.0,0.0,0.0,0.0,4.2921,4.4057,4.4822,0.0,0.0,0.0,0.0,0.0,0.0,0.0,0.0,0.0,5.3272,5.3989,5.4877,0.0,0.0,6.025,6.0762,6.1389,6.1829,6.2011,6.3387,0.0,6.4378,6.5316,6.6086,6.6048,6.6124,6.6254,6.6524,6.6674,6.6835,6.6996,6.8068,6.8496,6.7213,6.4616,6.3453,6.4204,6.4543,6.4946,6.6026,6.6316,6.6412,0.0,0.0,0.0,0.0,2.6237,0.0,0.0,0.0,3.0368,3.0387,0.0,2.9082,0.0,0.0,0.0,0.0,3.1244,3.4577,0.0,0.0,4.2941,4.5372,4.7592,4.7664,4.7951,4.8379,4.833,4.8257,4.7769,4.0945,0.0,0.0,0.0,0.0,0.0,0.0,4.8809,5.2166,5.5953,5.8608,6.0182,6.1216,6.2187,6.2987,6.4244,6.4246,6.282,6.0187,5.6765,5.2499,4.7932,0.0,0.0,0.0,0.0,0.0,0.0,0.0,0.0,0.0,0.0,0.0,0.0,0.0,0.0,0.0,0.0,0.0,0.0,0.0,0.0,3.8739,0.0,0.0,0.0,0.0,0.0,0.0,0.0,0.0,0.0,4.7836,4.8546,4.876,5.038,5.4977,0.0,0.0,0.0,0.0,6.092,6.1043,6.2529,6.3576,6.3543,6.3623,6.3688,6.3655,0.0,0.0,6.3808,6.386,6.381,6.4031,6.4137,6.2926,5.855,5.8742,5.9617,5.9807,5.9725,5.985,5.9963,6.0022,6.0482,0.0,0.0,0.0,0.0,0.0,0.0,0.0,0.0,0.0,2.6152,2.5947,2.5061,0.0,0.0,0.0,0.0,0.0,0.0,0.0,0.0,3.6488,3.8651,4.0775,4.1373,4.1713,4.1877,4.1877,3.9781,0.0,0.0,0.0,0.0,0.0,0.0,0.0,0.0,4.7027,5.19,5.613,5.9397,6.1593,6.3057,6.3931,6.4384,6.4893,6.3581,6.0099,5.7232,5.2779,0.0,0.0,0.0,0.0,0.0,0.0,0.0,0.0,0.0,0.0,0.0,0.0,0.0,0.0,0.0,0.0,0.0,0.0,0.0,0.0,0.0,0.0,0.0,3.5216,0.0,0.0,0.0,0.0,0.0,0.0,0.0,0.0,0.0,4.4014,4.6914,4.9534,5.1222,5.4237,5.652,5.7066,0.0,0.0,0.0,0.0,0.0,0.0,0.0,6.0564,5.9438,5.9205,5.8829,5.7866,5.772,5.7835,5.7843,0.0,0.0,5.3234,5.2836,5.3215,5.3215,5.3215,5.3215,5.3215,5.4092,5.5043,0.0,0.0,0.0,0.0,0.0,0.0,0.0,0.0,0.0,2.232,2.2267,0.0,0.0,0.0,0.0,0.0,0.0,0.0,0.0,0.0,0.0,0.0,3.4569,3.5152,0.0,0.0,0.0,0.0,0.0,0.0,0.0,0.0,0.0,0.0,0.0,0.0,4.516,5.1774,5.6314,6.0153,6.3229,6.4847,6.5695,6.6028,6.5655,6.3547,5.9395,0.0,0.0,0.0,0.0,0.0,0.0,0.0,0.0,0.0,0.0,0.0,0.0,0.0,0.0,0.0,0.0,0.0,0.0,0.0,0.0,0.0,0.0,0.0,0.0,0.0,3.1284,0.0,0.0,0.0,0.0,0.0,0.0,0.0,0.0,0.0,0.0,4.3938,4.6801,4.901,5.2643,5.5471,5.6625,5.8271,5.9479,0.0,0.0,0.0,0.0,0.0,0.0,0.0,0.0,0.0,0.0,0.0,0.0,0.0,0.0,5.0306,4.7001,4.6393,4.6393,4.6354,0.0,0.0,0.0,0.0,0.0,0.0,0.0,0.0,0.0,0.0,0.0,0.0,0.0,0.0,0.0,1.9109,0.0,0.0,1.7625,0.0,0.0,0.0,0.0,0.0,0.0,0.0,0.0,0.0,0.0,0.0,0.0,0.0,0.0,0.0,0.0,0.0,0.0,0.0,0.0,0.0,0.0,4.3463,5.1759,5.6572,6.0974,6.506,6.6595,6.7471,6.7764,6.6521,6.4224,6.0688,0.0,0.0,0.0,0.0,0.0,0.0,0.0,0.0,0.0,0.0,0.0,0.0,0.0,0.0,0.0,0.0,0.0,0.0,0.0,0.0,0.0,0.0,0.0,0.0,0.0,0.0,2.9544,3.2449,3.4393,0.0,0.0,0.0,0.0,0.0,0.0,0.0,0.0,0.0,4.847,5.0922,5.3247,5.6493,5.8438,5.9418,5.9479,5.9593,5.9721,5.9646,5.8333,5.7316,0.0,0.0,0.0,0.0,0.0,0.0,0.0,0.0,0.0,0.0,0.0,0.0,0.0,0.0,0.0,0.0,0.0,0.0,0.0,0.0,0.0,0.0,0.0,0.0,0.0,0.0,0.0,0.0,0.0,0.0,0.0,0.0,0.0,0.0,0.0,0.0,0.0,0.0,0.0,0.0,0.0,0.0,0.0,0.0,0.0,0.0,0.0,0.0,0.0,0.0,0.0,0.0,0.0,0.0,4.3767,5.2379,5.7799,6.2623,6.6951,6.8142,6.8529,6.8116,6.5802,6.2466,0.0,0.0,0.0,0.0,0.0,0.0,0.0,0.0,0.0,0.0,0.0,0.0,0.0,0.0,0.0,0.0,0.0,0.0,0.0,0.0,0.0,0.0,0.0,0.0,0.0,0.0,0.0,0.0,2.9903,3.121,3.1182,0.0,0.0,0.0,0.0,0.0,0.0,0.0,0.0,0.0,0.0,5.1266,5.3425,5.5174,5.632,5.6406,5.6341,5.6338,5.63,5.5909,5.4795,5.2411,0.0,0.0,0.0,0.0,0.0,0.0,0.0,0.0,0.0,0.0,0.0,0.0,0.0,0.0,0.0,0.0,0.0,0.0,0.0,0.0,0.0,0.0,0.0,0.0,0.0,0.0,0.0,0.0,0.0,0.0,0.0,0.0,0.0,0.0,0.0,0.0,0.0,0.0,0.0,0.0,0.0,0.0,0.0,0.0,0.0,0.0,0.0,0.0,0.0,0.0,0.0,0.0,0.0,4.3647,5.3318,5.8746,6.3793,6.8443,6.9714,6.9916,6.9162,6.5723,6.1367,0.0,0.0,0.0,0.0,0.0,0.0,0.0,0.0,0.0,0.0,0.0,0.0,0.0,0.0,0.0,0.0,0.0,0.0,0.0,0.0,0.0,0.0,0.0,0.0,0.0,0.0,0.0,0.0,2.7448,2.8547,2.7935,0.0,0.0,0.0,0.0,0.0,0.0,0.0,0.0,0.0,0.0,4.866,5.098,5.3335,0.0,0.0,5.4863,5.4829,5.4741,5.369,5.2139,5.0044,4.7592,0.0,0.0,0.0,0.0,0.0,0.0,0.0,0.0,0.0,0.0,0.0,0.0,0.0,0.0,0.0,0.0,0.0,0.0,0.0,0.0,0.0,0.0,0.0,0.0,0.0,0.0,0.0,0.0,0.0,0.0,0.0,0.0,0.0,0.0,0.0,0.0,0.0,0.0,0.0,0.0,0.0,0.0,0.0,0.0,0.0,0.0,0.0,0.0,0.0,0.0,0.0,0.0,4.3331,5.4548,5.9508,6.4616,6.9936,7.1235,7.1329,7.0423,6.6075,6.0704,0.0,0.0,0.0,0.0,0.0,0.0,0.0,0.0,0.0,0.0,0.0,0.0,0.0,0.0,0.0,0.0,0.0,0.0,0.0,0.0,0.0,0.0,0.0,0.0,0.0,0.0,0.0,0.0,0.0,0.0,0.0,0.0,0.0,0.0,0.0,0.0,0.0,0.0,0.0,0.0,0.0,4.5581,4.8939,5.2105,5.4117,0.0,5.4146,5.4109,5.3944,5.1385,4.9274,4.8919,0.0,0.0,0.0,0.0,0.0,0.0,0.0,0.0,0.0,0.0,0.0,0.0,0.0,0.0,0.0,0.0,0.0,0.0,0.0,0.0,0.0,0.0,0.0,0.0,0.0,0.0,0.0,0.0,0.0,0.0,0.0,0.0,0.0,0.0,0.0,0.0,0.0,0.0,0.0,0.0,0.0,0.0,0.0,0.0,0.0,0.0,0.0,0.0,0.0,0.0,0.0,0.0,0.0,0.0,5.5235,6.0578,6.6153,7.1791,7.2529,7.1602,6.9257,6.5594,0.0,0.0,0.0,0.0,0.0,0.0,0.0,0.0,0.0,0.0,0.0,0.0,0.0,0.0,0.0,0.0,0.0,0.0,0.0,0.0,0.0,0.0,0.0,0.0,0.0,0.0,0.0,2.0919,0.0,0.0,0.0,0.0,0.0,0.0,0.0,0.0,0.0,0.0,0.0,0.0,0.0,0.0,4.1999,4.5379,4.6577,4.7089,0.0,0.0,4.7091,4.7033,4.6257,4.4817,0.0,0.0,0.0,0.0,0.0,0.0,0.0,0.0,0.0,0.0,0.0,0.0,0.0,0.0,0.0,0.0,0.0,0.0,0.0,0.0,0.0,0.0,0.0,0.0,0.0,0.0,0.0,0.0,0.0,0.0,0.0,0.0,0.0,0.0,0.0,0.0,0.0,0.0,0.0,0.0,0.0,0.0,0.0,0.0,0.0,0.0,0.0,0.0,0.0,0.0,0.0,0.0,0.0,0.0,4.3778,5.4333,6.071,6.671,7.2327,7.3581,7.2646,6.9531,6.6013,5.9106,0.0,0.0,0.0,0.0,0.0,0.0,0.0,0.0,0.0,0.0,0.0,0.0,0.0,0.0,0.0,0.0,0.0,0.0,0.0,0.0,0.0,0.0,0.0,0.0,0.0,0.0,0.0,0.0,0.0,0.0,0.0,0.0,0.0,0.0,0.0,0.0,0.0,0.0,0.0,0.0,0.0,0.0,4.1773,4.2852,0.0,0.0,0.0,4.4235,4.4235,0.0,0.0,0.0,0.0,0.0,0.0,0.0,0.0,0.0,0.0,0.0,0.0,0.0,0.0,0.0,0.0,0.0,0.0,0.0,0.0,0.0,0.0,0.0,0.0,0.0,0.0,0.0,0.0,0.0,0.0,0.0,0.0,0.0,0.0,0.0,0.0,0.0,0.0,0.0,0.0,0.0,0.0,0.0,0.0,0.0,0.0,0.0,0.0,0.0,0.0,0.0,0.0,0.0,0.0,0.0,0.0,0.0,5.3074,6.0602,6.7049,7.2405,7.4613,7.3965,7.0455,6.6904,5.9794,0.0,0.0,0.0,0.0,0.0,0.0,0.0,0.0,0.0,0.0,0.0,0.0,0.0,0.0,0.0,0.0,0.0,0.0,0.0,0.0,0.0,0.0,0.0,0.0,0.0,0.0,0.0,0.0,0.0,0.0,0.0,0.0,0.0,0.0,0.0,0.0,0.0,0.0,0.0,0.0,0.0,3.4944,3.8188,3.9823,4.1247,0.0,0.0,4.2736,4.2753,4.0348,0.0,0.0,0.0,0.0,0.0,0.0,0.0,0.0,0.0,0.0,0.0,0.0,0.0,0.0,0.0,0.0,0.0,0.0,0.0,0.0,0.0,0.0,0.0,0.0,0.0,0.0,0.0,0.0,0.0,0.0,0.0,0.0,0.0,0.0,0.0,0.0,0.0,0.0,0.0,0.0,0.0,0.0,0.0,0.0,0.0,0.0,0.0,0.0,0.0,0.0,0.0,0.0,0.0,0.0,0.0,0.0,5.3153,6.1589,6.871,7.4408,7.6245,7.4926,7.0324,6.741,5.9503,0.0,0.0,0.0,0.0,0.0,0.0,0.0,0.0,0.0,0.0,0.0,0.0,0.0,0.0,0.0,0.0,0.0,0.0,0.0,0.0,0.0,0.0,0.0,0.0,0.0,0.0,0.0,0.0,0.0,0.0,0.0,0.0,0.0,0.0,0.0,0.0,0.0,0.0,0.0,0.0,0.0,3.2712,3.4628,3.5273,0.0,0.0,0.0,0.0,3.5837,3.5348,0.0,0.0,0.0,0.0,0.0,0.0,0.0,0.0,0.0,0.0,0.0,0.0,0.0,0.0,0.0,0.0,0.0,0.0,0.0,0.0,0.0,0.0,0.0,0.0,0.0,0.0,0.0,0.0,0.0,0.0,0.0,0.0,0.0,0.0,0.0,0.0,0.0,0.0,0.0,0.0,0.0,0.0,0.0,0.0,0.0,0.0,0.0,0.0,0.0,0.0,0.0,0.0,0.0,0.0,0.0,0.0,5.067,6.0164,6.7849,7.3649,7.6808,7.5933,7.0813,6.7394,5.9157,0.0,0.0,0.0,0.0,0.0,0.0,0.0,0.0,0.0,0.0,0.0,0.0,0.0,0.0,0.0,0.0,0.0,0.0,0.0,0.0,0.0,0.0,0.0,0.0,0.0,0.0,0.0,0.0,0.0,0.0,0.0,0.0,0.0,0.0,0.0,0.0,0.0,0.0,0.0,0.0,2.6734,2.8452,3.0034,0.0,0.0,0.0,0.0,0.0,0.0,3.3066,3.1682,0.0,0.0,0.0,0.0,0.0,0.0,0.0,0.0,0.0,0.0,0.0,0.0,0.0,0.0,0.0,0.0,0.0,0.0,0.0,0.0,0.0,0.0,0.0,0.0,0.0,0.0,0.0,0.0,0.0,0.0,0.0,0.0,0.0,0.0,0.0,0.0,0.0,0.0,0.0,0.0,0.0,0.0,0.0,0.0,0.0,0.0,0.0,0.0,0.0,0.0,0.0,0.0,0.0,0.0,0.0,4.736,5.8257,6.6686,7.2439,7.72,7.6936,7.1534,6.7426,5.9031,4.6201,0.0,0.0,0.0,0.0,0.0,0.0,0.0,0.0,0.0,0.0,0.0,0.0,0.0,0.0,0.0,0.0,0.0,0.0,0.0,0.0,0.0,0.0,0.0,0.0,0.0,0.0,0.0,0.0,0.0,0.0,0.0,0.0,0.0,0.0,0.0,0.0,0.0,0.0,0.0,2.2819,2.4386,0.0,0.0,0.0,0.0,0.0,0.0,0.0,0.0,2.9316,0.0,0.0,0.0,0.0,0.0,0.0,0.0,0.0,0.0,0.0,0.0,0.0,0.0,0.0,0.0,0.0,0.0,0.0,0.0,0.0,0.0,0.0,0.0,0.0,0.0,0.0,0.0,0.0,0.0,0.0,0.0,0.0,0.0,0.0,0.0,0.0,0.0,0.0,0.0,0.0,0.0,0.0,0.0,0.0,0.0,0.0,0.0,0.0,0.0,0.0,0.0,0.0,0.0,0.0,0.0,0.0,5.8141,6.7713,7.3501,7.8324,7.8034,7.227,6.8129,5.9771,4.677,0.0,0.0,0.0,0.0,0.0,0.0,0.0,0.0,0.0,0.0,0.0,0.0,0.0,0.0,0.0,0.0,0.0,0.0,0.0,0.0,0.0,0.0,0.0,0.0,0.0,0.0,0.0,0.0,0.0,0.0,0.0,0.0,0.0,0.0,0.0,0.0,0.0,0.0,2.102,2.2695,0.0,0.0,0.0,0.0,0.0,0.0,0.0,0.0,2.5011,0.0,0.0,0.0,0.0,0.0,0.0,0.0,0.0,0.0,0.0,0.0,0.0,0.0,0.0,0.0,0.0,0.0,0.0,0.0,0.0,0.0,0.0,0.0,0.0,0.0,0.0,0.0,0.0,0.0,0.0,0.0,0.0,0.0,0.0,0.0,0.0,0.0,0.0,0.0,0.0,0.0,0.0,0.0,0.0,0.0,0.0,0.0,0.0,0.0,0.0,0.0,0.0,0.0,0.0,0.0,0.0,0.0,0.0,6.5311,7.1967,7.7757,7.8235,7.3041,6.8382,5.9462,0.0,0.0,0.0,0.0,0.0,0.0,0.0,0.0,0.0,0.0,0.0,0.0,0.0,0.0,0.0,0.0,0.0,0.0,0.0,0.0,0.0,0.0,0.0,0.0,0.0,0.0,0.0,0.0,0.0,0.0,0.0,0.0,0.0,0.0,0.0,0.0,0.0,0.0,0.0,0.0,0.0,0.0,0.0,0.0,0.0,0.0,0.0,0.0,0.0,0.0,0.0,0.0,0.0,0.0,0.0,0.0,0.0,0.0,0.0,0.0,0.0,0.0,0.0,0.0,0.0,0.0,0.0,0.0,0.0,0.0,0.0,0.0,0.0,0.0,0.0,0.0,0.0,0.0,0.0,0.0,0.0,0.0,0.0,0.0,0.0,0.0,0.0,0.0,0.0,0.0,0.0,0.0,0.0,0.0,0.0,0.0,0.0,0.0,0.0,0.0,0.0,0.0,0.0,0.0,0.0,0.0,0.0,0.0,6.2603,7.0096,7.7021,7.8391,7.3806,6.8498,5.908,0.0,0.0,0.0,0.0,0.0,0.0,0.0,0.0,0.0,0.0,0.0,0.0,0.0,0.0,0.0,0.0,0.0,0.0,0.0,0.0,0.0,0.0,0.0,0.0,0.0,0.0,0.0,0.0,0.0,0.0,0.0,0.0,0.0,0.0,0.0,0.0,0.0,0.0,0.0,0.0,0.0,0.0,0.0,0.0,0.0,0.0,0.0,0.0,2.2442,0.0,0.0,0.0,0.0,0.0,0.0,0.0,0.0,0.0,0.0,0.0,0.0,0.0,0.0,0.0,0.0,0.0,0.0,0.0,0.0,0.0,0.0,0.0,0.0,0.0,0.0,0.0,0.0,0.0,0.0,0.0,0.0,0.0,0.0,0.0,0.0,0.0,0.0,0.0,0.0,0.0,0.0,0.0,0.0,0.0,0.0,0.0,0.0,0.0,0.0,0.0,0.0,0.0,0.0,0.0,0.0,0.0,0.0,0.0,6.1451,6.9024,7.6921,7.8886,7.4402,6.8847,5.9242,0.0,0.0,0.0,0.0,0.0,0.0,0.0,0.0,0.0,0.0,0.0,0.0,0.0,0.0,0.0,0.0,0.0,0.0,0.0,0.0,0.0,0.0,0.0,0.0,0.0,0.0,0.0,0.0,0.0,0.0,0.0,0.0,0.0,0.0,0.0,0.0,0.0,0.0,0.0,0.0,0.0,0.0,0.0,0.0,0.0,0.0,0.0,0.0,0.0,0.0,0.0,0.0,0.0,0.0,0.0,0.0,0.0,0.0,0.0,0.0,0.0,0.0,0.0,0.0,0.0,0.0,0.0,0.0,0.0,0.0,0.0,0.0,0.0,0.0,0.0,0.0,0.0,0.0,0.0,0.0,0.0,0.0,0.0,0.0,0.0,0.0,0.0,0.0,0.0,0.0,0.0,0.0,0.0,0.0,0.0,0.0,0.0,0.0,0.0,0.0,0.0,0.0,0.0,0.0,0.0,0.0,0.0,0.0,5.585,6.5247,7.3297,7.5878,7.2507,6.6545,5.6745,0.0,0.0,0.0,0.0,0.0,0.0,0.0,0.0,0.0,0.0,0.0,0.0,0.0,0.0,0.0,0.0,0.0,0.0,0.0,0.0,0.0,0.0,0.0,0.0,0.0,0.0,0.0,0.0,0.0,0.0,0.0,0.0,0.0,0.0,0.0,0.0,0.0,0.0,0.0,0.0,0.0,0.0,0.0,0.0,0.0,0.0,0.0,0.0,0.0,0.0,0.0,0.0,0.0,0.0,0.0,0.0,0.0,0.0,0.0,0.0,0.0,0.0,0.0,0.0,0.0,0.0,0.0,0.0,0.0,0.0,0.0,0.0,0.0,0.0,0.0,0.0,0.0,0.0,0.0,0.0,0.0,0.0,0.0,0.0,0.0,0.0,0.0,0.0,0.0,0.0,0.0,0.0,0.0,0.0,0.0,0.0,0.0,0.0,0.0,0.0,0.0,0.0,0.0,0.0,0.0,0.0,0.0,0.0,0.0,6.1434,6.7657,6.9697,6.7347,6.2489,5.3329,0.0,0.0,0.0,0.0,0.0,0.0,0.0,0.0,0.0,0.0,0.0,0.0,0.0,0.0,0.0,0.0,0.0,0.0,0.0,0.0,0.0,0.0,0.0,0.0,0.0,0.0,0.0,0.0,0.0,0.0,0.0,0.0,0.0,0.0,0.0,0.0,0.0,0.0,0.0,0.0,0.0,0.0,0.0,0.0,0.0,0.0,0.0,0.0,0.0,0.0,0.0,0.0,0.0,0.0,0.0,0.0,0.0,0.0,0.0,0.0,0.0,0.0,0.0,0.0,0.0,0.0,0.0,0.0,0.0,0.0,0.0,0.0,0.0,0.0,0.0,0.0,0.0,0.0,0.0,0.0,0.0,0.0,0.0,0.0,0.0,0.0,0.0,0.0,0.0,0.0,0.0,0.0,0.0,0.0,0.0,0.0,0.0,0.0,0.0,0.0,0.0,0.0,0.0,0.0,0.0,0.0,0.0,0.0,0.0,5.892,5.9814,5.9471,5.8025,5.617,4.9224,0.0,0.0,0.0,0.0,0.0,0.0,0.0,0.0,0.0,0.0,0.0,0.0,0.0,0.0,0.0,0.0,0.0,0.0,0.0,0.0,0.0,0.0,0.0,0.0,0.0,0.0,0.0,0.0,0.0,0.0,0.0,0.0,0.0,0.0,0.0,0.0,0.0,0.0,0.0,0.0,0.0,0.0,0.0,0.0,0.0,0.0,0.0,0.0,0.0,0.0,0.0,0.0,0.0,0.0,0.0,0.0,0.0,0.0,0.0,0.0,0.0,0.0,0.0,0.0,0.0,0.0,0.0,0.0,0.0,0.0,0.0,0.0,0.0,0.0,0.0,0.0,0.0,0.0,0.0,0.0,0.0,0.0,0.0,0.0,0.0,0.0,0.0,0.0,0.0,0.0,0.0,0.0,0.0,0.0,0.0,0.0,0.0,0.0,0.0,0.0,0.0,0.0,0.0,0.0,0.0,0.0,0.0,0.0,0.0,4.7057,5.0424,5.2285,5.2756,4.9347,4.2907,3.334,0.0,0.0,0.0,0.0,0.0,0.0,0.0,0.0,0.0,0.0,0.0,0.0,0.0,0.0,0.0,0.0,0.0,0.0,0.0,0.0,0.0,0.0,0.0,0.0,0.0,0.0,0.0,0.0,0.0,0.0,0.0,0.0,0.0,0.0,0.0,0.0,0.0,0.0,0.0,0.0,0.0,0.0,0.0,0.0,0.0,0.0,0.0,0.0,0.0,0.0,0.0,0.0,0.0,0.0,0.0,0.0,0.0,0.0,0.0,0.0,0.0,0.0,0.0,0.0,0.0,0.0,0.0,0.0,0.0,0.0,0.0,0.0,0.0,0.0,0.0,0.0,0.0,0.0,0.0,0.0,0.0,0.0,0.0,0.0,0.0,0.0,0.0,0.0,0.0,0.0,0.0,0.0,0.0,0.0,0.0,0.0,0.0,0.0,0.0,0.0,0.0,0.0,0.0,0.0,0.0,0.0,0.0,0.0,3.5943,4.0854,4.3728,4.4164,4.1158,3.6146,0.0,0.0,0.0,0.0,0.0,0.0,0.0,0.0,0.0,0.0,0.0,0.0,0.0,0.0,0.0,0.0,0.0,0.0,0.0,0.0,0.0,0.0,0.0,0.0,0.0,0.0,0.0,0.0,0.0,0.0,0.0,0.0,0.0,0.0,0.0,0.0,0.0,0.0,0.0,0.0,0.0,0.0,0.0,0.0,0.0,0.0,0.0,0.0,0.0,0.0,0.0,0.0,0.0,0.0,0.0,0.0,0.0,0.0,0.0,0.0,0.0,0.0,0.0,0.0,0.0,0.0,0.0,0.0,0.0,0.0,0.0,0.0,0.0,0.0,0.0,0.0,0.0,0.0,0.0,0.0,0.0,0.0,0.0,0.0,0.0,0.0,0.0,0.0,0.0,0.0,0.0,0.0,0.0,0.0,0.0,0.0,0.0,0.0,0.0,0.0,0.0,0.0,0.0,0.0,0.0,0.0,0.0,0.0,2.1434,2.6387,3.1369,3.3398,3.1605,3.1634,2.9177,0.0,0.0,0.0,0.0,0.0,0.0,0.0,0.0,0.0,0.0,0.0,0.0,0.0,0.0,0.0,0.0,0.0,0.0,0.0,0.0,0.0,0.0,0.0,0.0,0.0,0.0,0.0,0.0,0.0,0.0,0.0,0.0,0.0,0.0,0.0,0.0,0.0,0.0,0.0,0.0,0.0,0.0,0.0,0.0,0.0,0.0,0.0,0.0,0.0,0.0,0.0,0.0,0.0,0.0,0.0,0.0,0.0,0.0,0.0,0.0,0.0,0.0,0.0,0.0,0.0,0.0,0.0,0.0,0.0,0.0,0.0,0.0,0.0,0.0,0.0,0.0,0.0,0.0,0.0,0.0,0.0,0.0,0.0,0.0,0.0,0.0,0.0,0.0,0.0,0.0,0.0,0.0,0.0,0.0,0.0,0.0,0.0,0.0,0.0,0.0,0.0,0.0,0.0,0.0,0.0,0.0,0.0,0.0,0.0,2.2813,0.0,2.8393,2.7848,2.6865,2.5061,0.0,0.0,0.0,0.0,0.0,0.0,0.0,0.0,0.0,0.0,0.0,0.0,0.0,0.0,0.0,0.0,0.0,0.0,0.0,0.0,0.0,0.0,0.0,0.0,0.0,0.0,0.0,0.0,0.0,0.0,0.0,0.0,0.0,0.0,0.0,0.0,0.0,0.0,0.0,0.0,0.0,0.0,0.0,0.0,0.0,0.0,0.0,0.0,0.0,0.0,0.0,0.0,0.0,0.0,0.0,0.0,0.0,0.0,0.0,0.0,0.0,0.0,0.0,0.0,0.0,0.0,0.0,0.0,0.0,0.0,0.0,0.0,0.0,0.0,0.0,0.0,0.0,0.0,0.0,0.0,0.0,0.0,0.0,0.0,0.0,0.0,0.0,0.0,0.0,0.0,0.0,0.0,0.0,0.0,0.0,0.0,0.0,0.0,0.0,0.0,0.0,0.0,0.0,0.0,0.0,0.0,0.0,0.0,0.0,2.0239,2.2402,2.3561,2.3583,2.2622,2.1624,0.0,0.0,0.0,0.0,0.0,0.0,0.0,0.0,0.0,0.0,0.0,0.0,0.0,0.0,0.0,0.0,0.0,0.0,0.0,0.0,0.0,0.0,0.0,0.0,0.0,0.0,0.0,0.0,0.0,0.0,0.0,0.0,0.0,0.0,0.0,0.0,0.0,0.0,0.0,0.0,0.0,0.0,0.0,0.0,0.0,0.0,0.0,0.0,0.0,0.0,0.0,0.0,0.0,0.0,0.0,0.0,0.0,0.0,0.0,0.0,0.0,0.0,0.0,0.0,0.0,0.0,0.0,0.0,0.0,0.0,0.0,0.0,0.0,0.0,0.0,0.0,0.0,0.0,0.0,0.0,0.0,0.0,0.0,0.0,0.0,0.0,0.0,0.0,0.0,0.0,0.0,0.0,0.0,0.0,0.0,0.0,0.0,0.0,0.0,0.0,0.0,0.0,0.0,0.0,0.0,0.0,0.0,0.0,0.0,1.8487,1.8654,1.8741,1.8947,1.8853,1.8853,0.0,0.0,0.0,0.0,0.0,0.0,0.0,0.0,0.0,0.0,0.0,0.0,0.0,0.0,0.0,0.0,0.0,0.0,0.0,0.0,0.0,0.0,0.0,0.0,0.0,0.0,0.0,0.0,0.0,0.0,0.0,0.0,0.0,0.0,0.0,0.0,0.0,0.0,0.0,0.0,0.0,0.0,0.0,0.0,0.0,0.0,0.0,0.0,0.0,0.0,0.0,0.0,0.0,0.0,0.0,0.0,0.0,0.0,0.0,0.0,0.0,0.0,0.0,0.0,0.0,0.0,0.0,0.0,0.0,0.0,0.0,0.0,0.0,0.0,0.0,0.0,0.0,0.0,0.0,0.0,0.0,0.0,0.0,0.0,0.0,0.0,0.0,0.0,0.0,0.0,0.0,0.0,0.0,0.0,0.0,0.0,0.0,0.0,0.0,0.0,0.0,0.0,0.0,0.0,0.0,0.0,0.0,0.0,0.0,0.0,1.826,1.8409,1.8462,1.8537,1.8561,1.8561,0.0,0.0,0.0,0.0,0.0,0.0,0.0,0.0,0.0,0.0,0.0,0.0,0.0,0.0,0.0,0.0,0.0,0.0,0.0,0.0,0.0,0.0,0.0,0.0,0.0,0.0,0.0,0.0,0.0,0.0,0.0,0.0,0.0,0.0,0.0,0.0,0.0,0.0,0.0,0.0,0.0,0.0,0.0,0.0,0.0,0.0,0.0,0.0,0.0,0.0,0.0,0.0,0.0,0.0,0.0,0.0,0.0,0.0,0.0,0.0,0.0,0.0,0.0,0.0,0.0,0.0,0.0,0.0,0.0,0.0,0.0,0.0,0.0,0.0,0.0,0.0,0.0,0.0,0.0,0.0,0.0,0.0,0.0,0.0,0.0,0.0,0.0,0.0,0.0,0.0,0.0,0.0,0.0,0.0,0.0,0.0,0.0,0.0,0.0,0.0,0.0,0.0,0.0,0.0,0.0,0.0,0.0,0.0,0.0,0.0,1.8124,1.8139,1.8218,1.8313,0.0,0.0,0.0,0.0,0.0,0.0,0.0,0.0,0.0,0.0,0.0,0.0,0.0,0.0,0.0,0.0,0.0,0.0,0.0,0.0,0.0,0.0,0.0,0.0,0.0,0.0,0.0,0.0,0.0,0.0,0.0,0.0,0.0,0.0,0.0,0.0,0.0,0.0,0.0,0.0,0.0,0.0,0.0,0.0,0.0,0.0,0.0,0.0,0.0,0.0,0.0,0.0,0.0,0.0,0.0,0.0,0.0,0.0,0.0,0.0,0.0,0.0,0.0,0.0,0.0,0.0,0.0,0.0,0.0,0.0,0.0,0.0,0.0,0.0,0.0,0.0,0.0,0.0,0.0,0.0,0.0,0.0,0.0,0.0,0.0,0.0,0.0,0.0,0.0,0.0,0.0,0.0,0.0,0.0,0.0,0.0,0.0,0.0,0.0,0.0,0.0,0.0,0.0,0.0,0.0,0.0,0.0,0.0,0.0,0.0,0.0,1.7852,1.7833,1.8,0.0,1.8002,0.0,0.0,0.0,0.0,0.0,0.0,0.0,0.0,0.0,0.0,0.0,0.0,0.0,0.0,0.0,0.0,0.0,0.0,0.0,0.0,0.0,0.0,0.0,0.0,0.0,0.0,0.0,0.0,0.0,0.0,0.0,0.0,0.0,0.0,0.0,0.0,0.0,0.0,0.0,0.0,0.0,0.0,0.0,0.0,0.0,0.0,0.0,0.0,0.0,0.0,0.0,0.0,0.0,0.0,0.0,0.0,0.0,0.0,0.0,0.0,0.0,0.0,0.0,0.0,0.0,0.0,0.0,0.0,0.0,0.0,0.0,0.0,0.0,0.0,0.0,0.0,0.0,0.0,0.0,0.0,0.0,0.0,0.0,0.0,0.0,0.0,0.0,0.0,0.0,0.0,0.0,0.0,0.0,0.0,0.0,0.0,0.0,0.0,0.0,0.0,0.0,0.0,0.0,0.0,0.0,0.0,0.0,0.0,0.0,0.0,0.0,0.0,1.769,1.7764,1.7774,0.0,0.0,0.0,0.0,0.0,0.0,0.0,0.0,0.0,0.0,0.0,0.0,0.0,0.0,0.0,0.0,0.0,0.0,0.0,0.0,0.0,0.0,0.0,0.0,0.0,0.0,0.0,0.0,0.0,0.0,0.0,0.0,0.0,0.0,0.0,0.0,0.0,0.0,0.0,0.0,0.0,0.0,0.0,0.0,0.0,0.0,0.0,0.0,0.0,0.0,0.0,0.0,0.0,0.0,0.0,0.0,0.0,0.0,0.0,0.0,0.0,0.0,0.0,0.0,0.0,0.0,0.0,0.0,0.0,0.0,0.0,0.0,0.0,0.0,0.0,0.0,0.0,0.0,0.0,0.0,0.0,0.0,0.0,0.0,0.0,0.0,0.0,0.0,0.0,0.0,0.0,0.0,0.0,0.0,0.0,0.0,0.0,0.0,0.0,0.0,0.0,0.0,0.0,0.0,0.0,0.0,0.0,0.0,0.0,0.0,1.7413,1.7401,1.7531,1.764,1.7606,0.0,0.0,0.0,0.0,0.0,0.0,0.0,0.0,0.0,0.0,0.0,0.0,0.0,0.0,0.0,0.0,0.0,0.0,0.0,0.0,0.0,0.0,0.0,0.0,0.0,0.0,0.0,0.0,0.0,0.0,0.0,0.0,0.0,0.0,0.0,0.0,0.0,0.0,0.0,0.0,0.0,0.0,0.0,0.0,0.0,0.0,0.0,0.0,0.0,0.0,0.0,0.0,0.0,0.0,0.0,0.0,0.0,0.0,0.0,0.0,0.0,0.0,0.0,0.0,0.0,0.0,0.0,0.0,0.0,0.0,0.0,0.0,0.0,0.0,0.0,0.0,0.0,0.0,0.0,0.0,0.0,0.0,0.0,0.0,0.0,0.0,0.0,0.0,0.0,0.0,0.0,0.0,0.0,0.0,0.0,0.0,0.0,0.0,0.0,0.0,0.0,0.0,0.0,0.0,0.0,0.0,0.0,0.0,0.0,0.0,0.0,0.0,0.0,0.0,1.7415,0.0,0.0,0.0,0.0,0.0,0.0,0.0,0.0,0.0,0.0,0.0,0.0,0.0,0.0,0.0,0.0,0.0,0.0,0.0,0.0,0.0,0.0,0.0,0.0,0.0,0.0,0.0,0.0,0.0,0.0,0.0,0.0,0.0,0.0,0.0,0.0,0.0,0.0,0.0,0.0,0.0,0.0,0.0,0.0,0.0,0.0,0.0,0.0,0.0,0.0,0.0,0.0,0.0,0.0,0.0,0.0,0.0,0.0,0.0,0.0,0.0,0.0,0.0,0.0,0.0,0.0,0.0,0.0,0.0,0.0,0.0,0.0,0.0,0.0,0.0,0.0,0.0,0.0,0.0,0.0,0.0,0.0,0.0,0.0,0.0,0.0,0.0,0.0,0.0,0.0,0.0,0.0,0.0,0.0,0.0,0.0,0.0,0.0,0.0,0.0,0.0,0.0,0.0,0.0,0.0,0.0,0.0,0.0,0.0,0.0,0.0,0.0,0.0,0.0,0.0,0.0,0.0,0.0,0.0,0.0,0.0,0.0,0.0,0.0,0.0,0.0,0.0,0.0,0.0,0.0,0.0,0.0,0.0,0.0,0.0,0.0,0.0,0.0,0.0,0.0,0.0,0.0,0.0,0.0,0.0,0.0,0.0,0.0,0.0,0.0,0.0,0.0,0.0,0.0,0.0,0.0,0.0,0.0,0.0,0.0,0.0,0.0,0.0,0.0,0.0,0.0,0.0,0.0,0.0,0.0,0.0,0.0,0.0,0.0,0.0,0.0,0.0,0.0,0.0,0.0,0.0,0.0,0.0,0.0,0.0,0.0,0.0,0.0,0.0,0.0,0.0,0.0,0.0,0.0,0.0,0.0,0.0,0.0,0.0,0.0,0.0,0.0,0.0,0.0,0.0,0.0,0.0,0.0,0.0,0.0,0.0,0.0,0.0,0.0,0.0,0.0,0.0,0.0,0.0,0.0,0.0,0.0,0.0,0.0,0.0,0.0,0.0,0.0,0.0,0.0,0.0,0.0,0.0,0.0,0.0,0.0,0.0,0.0,0.0,0.0,0.0,0.0,0.0,0.0,0.0,0.0,0.0,0.0,0.0,0.0,0.0,0.0,0.0,0.0,0.0,0.0,0.0,0.0,0.0,0.0,0.0,0.0,0.0,0.0,0.0,0.0,0.0,0.0,0.0,0.0,0.0,0.0,0.0,0.0,0.0,0.0,0.0,0.0,0.0,0.0,0.0,0.0,0.0,0.0,0.0,0.0,0.0,0.0,0.0,0.0,0.0,0.0,0.0,0.0,0.0,0.0,0.0,0.0,0.0,0.0,0.0,0.0,0.0,0.0,0.0,0.0,0.0,0.0,0.0,0.0,0.0,0.0,0.0,0.0,0.0,0.0,0.0,0.0,0.0,0.0,0.0,0.0,0.0,0.0,0.0,0.0,0.0,0.0,0.0,0.0,0.0,0.0,0.0,0.0,0.0,0.0,0.0,0.0,0.0,0.0,0.0,0.0,0.0,0.0,0.0,0.0,0.0,0.0,0.0,0.0,0.0,0.0,0.0,0.0,0.0,0.0,0.0,0.0,0.0,0.0,0.0,0.0,0.0,0.0,0.0,0.0,0.0,0.0,0.0,0.0,0.0,0.0,0.0,0.0,0.0,0.0,0.0,0.0,0.0,0.0,0.0,0.0,0.0,0.0,0.0,0.0,0.0,0.0,0.0,0.0,0.0,0.0,0.0,0.0,0.0,0.0,0.0,0.0,0.0,0.0,0.0,0.0,0.0,0.0,0.0,0.0,0.0,0.0,0.0,0.0,0.0,0.0,0.0,0.0,0.0,0.0,0.0,0.0,0.0,0.0,0.0,0.0,0.0,0.0,0.0,0.0,0.0,0.0,0.0,0.0,0.0,0.0,0.0,0.0,0.0,0.0,0.0,0.0,0.0,0.0,0.0,0.0,0.0,0.0,0.0,0.0,0.0,0.0,0.0,0.0,0.0,0.0,0.0,0.0,0.0,0.0,0.0,0.0,0.0,0.0,0.0,0.0,0.0,0.0,0.0,0.0,0.0,0.0,0.0,0.0,0.0,0.0,0.0,0.0,0.0,0.0,0.0,0.0,0.0,0.0,0.0,0.0,0.0,0.0,0.0,0.0,0.0,0.0,0.0,0.0,0.0,0.0,0.0,0.0,0.0,0.0,0.0,0.0,0.0,0.0,0.0,0.0,0.0,0.0,0.0,0.0,0.0,0.0,0.0,0.0,0.0,0.0,0.0,0.0,0.0,0.0,0.0,0.0,0.0,0.0,0.0,0.0,0.0,0.0,0.0,0.0,0.0,0.0,0.0,0.0,0.0,0.0,0.0,0.0,0.0,0.0,0.0,0.0,0.0,0.0,0.0,0.0,0.0,0.0,0.0,0.0,0.0,0.0,0.0,0.0,0.0,0.0,0.0,0.0,0.0,0.0,0.0,0.0,0.0,0.0,0.0,0.0,0.0,0.0,0.0,0.0,0.0,0.0,0.0,0.0,0.0,0.0,0.0,0.0,0.0,0.0,0.0,0.0,0.0,0.0,0.0,0.0,0.0,0.0,0.0,0.0,0.0,0.0,0.0,0.0,0.0,0.0,0.0,0.0,0.0,0.0,0.0,0.0,0.0,0.0,0.0,0.0,0.0,0.0,0.0,0.0,0.0,0.0,0.0,0.0,0.0,0.0,0.0,0.0,0.0,0.0,0.0,0.0,0.0,0.0,0.0,0.0,0.0,0.0,0.0,0.0,0.0,0.0,0.0,0.0,0.0,0.0,0.0,0.0,0.0,0.0,0.0,0.0,0.0,0.0,0.0,0.0,0.0,0.0,0.0,0.0,0.0,0.0,0.0,0.0,0.0,0.0,0.0,0.0,0.0,0.0,0.0,0.0,0.0,0.0,0.0,0.0,0.0,0.0,0.0,0.0,0.0,0.0,0.0,0.0,0.0,0.0,0.0,0.0,0.0,0.0,0.0,0.0,0.0,0.0,0.0,0.0,0.0,0.0,0.0,0.0,0.0,0.0,0.0,0.0,0.0,0.0,0.0,0.0,0.0,0.0,0.0,0.0,0.0,0.0,0.0,0.0,0.0,0.0,0.0,0.0,0.0,0.0,0.0,0.0,0.0,0.0,0.0,0.0,0.0,0.0,0.0,0.0,0.0,0.0,0.0,0.0,0.0,0.0,0.0,0.0,0.0,0.0,0.0,0.0,0.0,0.0,0.0,0.0,0.0,0.0,0.0,0.0,0.0,0.0,0.0,0.0,0.0,0.0,0.0,0.0,0.0,0.0,0.0,0.0,0.0,0.0,0.0,0.0,0.0,0.0,0.0,0.0,0.0,0.0,0.0,0.0,0.0,0.0,0.0,0.0,0.0,0.0,0.0,0.0,0.0,0.0,0.0,0.0,0.0,0.0,0.0,0.0,0.0,0.0,0.0,0.0,0.0,0.0,0.0,0.0,0.0,0.0,0.0,0.0,0.0,0.0,0.0,0.0,0.0,0.0,0.0,0.0,0.0,0.0,0.0,0.0,0.0,0.0,0.0,0.0,0.0,0.0,0.0,0.0,0.0,0.0,0.0,0.0,0.0,0.0,0.0,0.0,0.0,0.0,0.0,0.0,0.0,0.0,0.0,0.0,0.0,0.0,0.0,0.0,0.0,0.0,0.0,0.0,0.0,0.0,0.0,0.0,0.0,0.0,0.0,0.0,0.0,0.0,0.0,0.0,0.0,0.0,0.0,0.0,0.0,0.0,0.0,0.0,0.0,0.0,0.0,0.0,0.0,0.0,0.0,0.0,0.0,0.0,0.0,0.0,0.0,0.0,0.0,0.0,0.0,0.0,0.0,0.0,0.0,0.0,0.0,0.0,0.0,0.0,0.0,0.0,0.0,0.0,0.0,0.0,0.0,0.0,0.0,0.0,0.0,0.0,0.0,0.0,0.0,0.0,0.0,0.0,0.0,0.0,0.0,0.0,0.0,0.0,0.0,0.0,0.0,0.0,0.0,0.0,0.0,0.0,0.0,0.0,0.0,0.0,0.0,0.0,0.0,0.0,0.0,0.0,0.0,0.0,0.0,0.0,0.0,0.0,0.0,0.0,0.0,0.0,0.0,0.0,0.0,0.0,0.0,0.0,0.0,0.0,0.0,0.0,0.0,0.0,0.0,0.0,0.0,0.0,0.0,0.0,0.0,0.0,0.0,0.0,0.0,0.0,0.0,0.0,0.0,0.0,0.0,0.0,0.0,0.0,0.0,0.0,0.0,0.0,0.0,0.0,0.0,0.0,0.0,0.0,0.0,0.0,0.0,0.0,0.0,0.0,0.0,0.0,0.0,0.0,0.0,0.0,0.0,0.0]}]]]